[[{"header":{"parameterUnit":"m.s-1","parameterCategory":1,"la1":30.6,"la2":29.2853,"lo1":-89.7004,"lo2":-87.6739,"dx":0.0162,"dy":0.0183,"nx":112,"ny":82,"refTime":"2022-12-17T06:00:00:Z","depth":0,"parameterNumber":2,"parameterNumberName":"U-component_of_WINDS"},"data":[0.0,0.0,0.0,0.0,0.0,0.0,0.0,0.0,0.0,0.0,0.0,0.0,0.0,0.0,0.0,0.0,0.0,0.0,0.0,0.0,0.0,0.0,0.0,0.0,0.0,0.0,0.0,0.0,0.0,0.0,0.0,0.0,0.0,0.0,0.0,0.0,0.0,0.0,0.0,0.0,0.0,0.0,0.0,0.0,0.0,0.0,0.0,0.0,0.0,0.0,0.0,0.0,0.0,0.0,0.0,0.0,0.0,0.0,0.0,0.0,0.0,0.0,0.0,0.0,0.0,0.0,0.0,0.0,0.0,0.0,0.0,0.0,0.0,0.0,0.0,0.0,0.0,0.0,0.0,0.0,0.0,0.0,0.0,0.0,0.0,0.0,0.0,0.0,0.0,0.0,0.0,5.1935,5.4072,5.5461,5.5371,5.482,5.3084,4.9786,0.0,0.0,0.0,0.0,0.0,0.0,0.0,0.0,0.0,0.0,0.0,0.0,0.0,0.0,0.0,0.0,0.0,0.0,0.0,0.0,0.0,0.0,0.0,0.0,0.0,0.0,0.0,0.0,0.0,0.0,0.0,0.0,0.0,0.0,0.0,0.0,0.0,0.0,0.0,0.0,0.0,0.0,0.0,0.0,0.0,0.0,0.0,0.0,0.0,0.0,0.0,0.0,0.0,0.0,0.0,0.0,0.0,0.0,0.0,0.0,0.0,0.0,0.0,0.0,0.0,0.0,0.0,0.0,0.0,0.0,0.0,0.0,0.0,0.0,0.0,0.0,0.0,0.0,0.0,0.0,0.0,0.0,0.0,0.0,0.0,0.0,0.0,0.0,0.0,0.0,0.0,0.0,0.0,0.0,0.0,0.0,0.0,0.0,0.0,0.0,0.0,0.0,0.0,0.0,5.2905,5.5192,5.6269,5.6598,5.6102,5.5953,5.4473,5.1128,0.0,0.0,0.0,0.0,0.0,0.0,0.0,0.0,0.0,0.0,0.0,0.0,0.0,0.0,0.0,0.0,0.0,0.0,0.0,0.0,0.0,0.0,0.0,0.0,0.0,0.0,0.0,0.0,0.0,0.0,0.0,0.0,0.0,0.0,0.0,0.0,0.0,0.0,0.0,0.0,0.0,0.0,0.0,0.0,0.0,0.0,0.0,0.0,0.0,0.0,0.0,0.0,0.0,0.0,0.0,0.0,0.0,0.0,0.0,0.0,0.0,0.0,0.0,0.0,0.0,0.0,0.0,0.0,0.0,0.0,0.0,0.0,0.0,0.0,0.0,0.0,0.0,0.0,0.0,0.0,0.0,0.0,0.0,0.0,0.0,0.0,0.0,0.0,0.0,0.0,0.0,0.0,0.0,0.0,0.0,0.0,0.0,0.0,0.0,0.0,0.0,0.0,0.0,5.2767,5.5102,5.7034,5.7483,5.753,5.7244,5.6898,5.5431,5.2456,4.764,0.0,0.0,0.0,0.0,0.0,0.0,0.0,0.0,0.0,0.0,0.0,0.0,0.0,0.0,0.0,0.0,0.0,0.0,0.0,0.0,0.0,0.0,0.0,0.0,0.0,0.0,0.0,0.0,0.0,0.0,0.0,0.0,0.0,0.0,0.0,0.0,0.0,0.0,0.0,0.0,0.0,0.0,0.0,0.0,0.0,0.0,0.0,0.0,0.0,0.0,0.0,0.0,0.0,0.0,0.0,0.0,0.0,0.0,0.0,0.0,0.0,0.0,0.0,0.0,0.0,0.0,0.0,0.0,0.0,0.0,0.0,0.0,0.0,0.0,0.0,0.0,0.0,0.0,0.0,0.0,0.0,0.0,0.0,0.0,0.0,0.0,0.0,0.0,0.0,0.0,0.0,0.0,0.0,0.0,0.0,0.0,0.0,0.0,0.0,0.0,0.0,0.0,5.5311,5.7077,5.8218,5.8338,5.8338,5.8338,5.7872,5.6479,5.3845,4.8993,0.0,0.0,0.0,0.0,0.0,0.0,0.0,0.0,0.0,0.0,0.0,0.0,0.0,0.0,0.0,0.0,0.0,0.0,0.0,0.0,0.0,0.0,0.0,0.0,0.0,0.0,0.0,0.0,0.0,0.0,0.0,0.0,0.0,0.0,0.0,0.0,0.0,0.0,0.0,0.0,0.0,0.0,0.0,0.0,0.0,0.0,0.0,0.0,0.0,0.0,0.0,0.0,0.0,0.0,0.0,0.0,0.0,0.0,0.0,0.0,0.0,0.0,0.0,0.0,0.0,0.0,0.0,0.0,0.0,0.0,0.0,0.0,0.0,0.0,0.0,0.0,0.0,0.0,0.0,0.0,0.0,0.0,0.0,0.0,0.0,0.0,0.0,0.0,0.0,0.0,0.0,0.0,0.0,0.0,0.0,0.0,0.0,0.0,0.0,0.0,0.0,0.0,5.6393,5.8248,5.8936,5.9039,5.9039,5.9039,5.8979,5.7842,5.5222,5.034,0.0,0.0,0.0,0.0,0.0,0.0,0.0,0.0,0.0,0.0,0.0,0.0,0.0,0.0,0.0,0.0,0.0,0.0,0.0,0.0,0.0,0.0,0.0,0.0,0.0,0.0,0.0,0.0,0.0,0.0,0.0,0.0,0.0,0.0,0.0,0.0,0.0,0.0,0.0,0.0,0.0,0.0,0.0,0.0,0.0,0.0,0.0,0.0,0.0,0.0,0.0,0.0,0.0,0.0,0.0,0.0,0.0,0.0,0.0,0.0,0.0,0.0,0.0,0.0,0.0,0.0,0.0,0.0,0.0,0.0,0.0,0.0,0.0,0.0,0.0,0.0,0.0,0.0,0.0,0.0,0.0,0.0,0.0,0.0,0.0,0.0,0.0,0.0,0.0,0.0,0.0,0.0,0.0,0.0,0.0,0.0,0.0,0.0,0.0,0.0,0.0,0.0,5.6483,5.8683,0.0,5.9608,5.9444,6.0282,5.9967,5.8375,5.5203,0.0,0.0,0.0,0.0,0.0,0.0,0.0,0.0,0.0,0.0,0.0,0.0,0.0,0.0,0.0,0.0,0.0,0.0,0.0,0.0,0.0,0.0,0.0,0.0,0.0,0.0,0.0,0.0,0.0,0.0,0.0,0.0,0.0,0.0,0.0,0.0,0.0,0.0,0.0,0.0,0.0,0.0,0.0,0.0,0.0,0.0,0.0,0.0,0.0,0.0,0.0,0.0,0.0,0.0,0.0,0.0,0.0,0.0,0.0,0.0,0.0,0.0,0.0,0.0,0.0,0.0,0.0,0.0,0.0,0.0,0.0,0.0,0.0,0.0,0.0,0.0,0.0,0.0,0.0,0.0,0.0,0.0,0.0,0.0,0.0,0.0,0.0,0.0,0.0,0.0,0.0,0.0,0.0,0.0,0.0,0.0,0.0,0.0,0.0,0.0,0.0,0.0,5.3883,5.6379,5.8837,0.0,6.0206,5.9744,6.0517,5.9986,5.8102,5.4641,0.0,0.0,0.0,0.0,0.0,0.0,0.0,0.0,0.0,0.0,0.0,0.0,0.0,0.0,0.0,0.0,0.0,0.0,0.0,0.0,0.0,0.0,0.0,0.0,0.0,0.0,0.0,0.0,0.0,0.0,0.0,0.0,0.0,0.0,0.0,0.0,0.0,0.0,0.0,0.0,0.0,0.0,0.0,0.0,0.0,0.0,0.0,0.0,0.0,0.0,0.0,0.0,0.0,0.0,0.0,0.0,0.0,0.0,0.0,0.0,0.0,0.0,0.0,0.0,0.0,0.0,0.0,0.0,0.0,0.0,0.0,0.0,0.0,0.0,0.0,0.0,0.0,0.0,0.0,0.0,0.0,0.0,0.0,0.0,0.0,0.0,0.0,0.0,0.0,0.0,0.0,0.0,0.0,0.0,0.0,0.0,0.0,0.0,0.0,0.0,0.0,0.0,5.3687,5.616,5.874,6.1729,6.0853,5.9895,5.9531,5.8879,5.7016,0.0,0.0,0.0,0.0,0.0,0.0,0.0,0.0,0.0,0.0,0.0,0.0,0.0,0.0,0.0,0.0,0.0,0.0,0.0,0.0,0.0,0.0,0.0,0.0,0.0,0.0,0.0,0.0,0.0,0.0,0.0,0.0,0.0,0.0,0.0,0.0,0.0,0.0,0.0,0.0,0.0,0.0,0.0,0.0,0.0,0.0,0.0,0.0,0.0,0.0,0.0,0.0,0.0,0.0,0.0,0.0,0.0,0.0,0.0,0.0,0.0,0.0,0.0,0.0,0.0,0.0,0.0,0.0,0.0,0.0,0.0,0.0,0.0,0.0,0.0,0.0,0.0,0.0,0.0,0.0,0.0,0.0,0.0,0.0,0.0,0.0,0.0,0.0,0.0,0.0,0.0,0.0,0.0,0.0,0.0,0.0,0.0,0.0,0.0,0.0,0.0,0.0,0.0,5.2813,5.6007,5.8627,5.9655,5.8234,5.7852,5.9428,5.824,5.6534,5.4369,0.0,0.0,0.0,0.0,0.0,0.0,0.0,0.0,0.0,0.0,0.0,0.0,0.0,0.0,0.0,0.0,0.0,0.0,0.0,0.0,0.0,0.0,0.0,0.0,0.0,0.0,0.0,0.0,0.0,0.0,0.0,0.0,0.0,0.0,0.0,0.0,0.0,0.0,0.0,0.0,0.0,0.0,0.0,0.0,0.0,0.0,0.0,0.0,0.0,0.0,0.0,0.0,0.0,0.0,0.0,0.0,0.0,0.0,0.0,0.0,0.0,0.0,0.0,0.0,0.0,0.0,0.0,0.0,0.0,0.0,0.0,0.0,0.0,0.0,0.0,0.0,0.0,0.0,0.0,0.0,0.0,0.0,0.0,0.0,0.0,0.0,0.0,0.0,0.0,0.0,0.0,0.0,0.0,0.0,0.0,0.0,0.0,0.0,0.0,0.0,0.0,0.0,5.2531,5.5319,5.7727,5.8969,5.7858,5.738,5.822,5.7504,5.596,5.3442,0.0,0.0,0.0,0.0,0.0,0.0,0.0,0.0,0.0,0.0,0.0,0.0,0.0,0.0,0.0,0.0,0.0,0.0,0.0,0.0,0.0,0.0,0.0,0.0,0.0,0.0,0.0,0.0,0.0,0.0,0.0,0.0,0.0,0.0,0.0,0.0,0.0,0.0,0.0,0.0,0.0,0.0,0.0,0.0,0.0,0.0,0.0,0.0,0.0,0.0,0.0,0.0,0.0,0.0,0.0,0.0,0.0,0.0,0.0,0.0,0.0,0.0,0.0,0.0,0.0,0.0,0.0,0.0,0.0,0.0,0.0,0.0,0.0,0.0,0.0,0.0,0.0,0.0,0.0,0.0,0.0,0.0,0.0,0.0,0.0,0.0,0.0,0.0,0.0,0.0,0.0,0.0,0.0,0.0,0.0,0.0,0.0,0.0,0.0,0.0,0.0,0.0,5.2455,5.4244,5.6319,5.8925,5.8631,5.7725,5.6465,5.668,5.5363,5.1817,0.0,0.0,0.0,0.0,0.0,0.0,0.0,0.0,0.0,0.0,0.0,0.0,0.0,0.0,0.0,0.0,0.0,0.0,0.0,0.0,0.0,0.0,0.0,0.0,0.0,0.0,0.0,0.0,0.0,0.0,0.0,0.0,0.0,0.0,0.0,0.0,0.0,0.0,0.0,0.0,0.0,0.0,0.0,0.0,0.0,0.0,0.0,0.0,0.0,0.0,0.0,0.0,0.0,0.0,0.0,0.0,0.0,0.0,0.0,0.0,5.1594,0.0,0.0,0.0,0.0,0.0,0.0,0.0,0.0,0.0,0.0,0.0,0.0,0.0,0.0,0.0,0.0,0.0,0.0,0.0,0.0,0.0,0.0,0.0,0.0,0.0,0.0,0.0,0.0,0.0,0.0,0.0,0.0,0.0,0.0,0.0,0.0,0.0,0.0,0.0,0.0,0.0,5.0941,5.3527,5.561,5.6221,5.5782,5.5829,5.6769,5.5804,5.4776,5.3936,5.267,0.0,0.0,0.0,0.0,0.0,0.0,0.0,0.0,0.0,0.0,0.0,0.0,0.0,0.0,0.0,0.0,0.0,0.0,0.0,0.0,0.0,0.0,0.0,0.0,0.0,0.0,0.0,0.0,0.0,0.0,0.0,0.0,0.0,0.0,0.0,0.0,0.0,0.0,0.0,0.0,0.0,0.0,0.0,0.0,0.0,0.0,0.0,0.0,0.0,0.0,0.0,0.0,0.0,0.0,0.0,0.0,0.0,0.0,0.0,0.0,5.2546,0.0,0.0,0.0,0.0,0.0,0.0,0.0,0.0,0.0,0.0,0.0,0.0,0.0,0.0,0.0,0.0,0.0,0.0,0.0,0.0,0.0,0.0,0.0,0.0,0.0,0.0,0.0,0.0,0.0,0.0,0.0,0.0,0.0,0.0,0.0,0.0,0.0,0.0,0.0,0.0,5.1548,5.3598,5.5311,5.6084,5.5917,5.5993,5.6577,5.6093,5.5415,5.4647,5.3775,0.0,0.0,0.0,0.0,0.0,0.0,0.0,0.0,0.0,0.0,0.0,0.0,0.0,0.0,0.0,0.0,0.0,0.0,0.0,0.0,0.0,0.0,0.0,0.0,0.0,0.0,0.0,0.0,0.0,0.0,0.0,0.0,0.0,0.0,0.0,0.0,0.0,0.0,0.0,0.0,0.0,0.0,0.0,0.0,0.0,0.0,0.0,0.0,0.0,0.0,0.0,0.0,0.0,5.609,5.6299,5.706,5.706,5.7766,5.8906,5.7855,5.6449,5.4777,5.3563,0.0,0.0,0.0,0.0,0.0,0.0,0.0,0.0,0.0,0.0,0.0,0.0,0.0,0.0,0.0,0.0,0.0,0.0,0.0,0.0,0.0,0.0,5.3897,5.3315,5.4553,5.5473,5.412,0.0,0.0,0.0,0.0,0.0,0.0,0.0,0.0,0.0,0.0,0.0,5.2694,5.3976,5.5333,5.6835,5.7085,5.7029,5.6652,5.6953,5.6502,5.4981,5.4881,5.4077,0.0,0.0,0.0,0.0,0.0,0.0,0.0,0.0,0.0,0.0,0.0,0.0,0.0,0.0,0.0,0.0,0.0,0.0,0.0,0.0,0.0,0.0,0.0,0.0,0.0,0.0,0.0,0.0,0.0,0.0,0.0,0.0,4.7668,4.7769,0.0,0.0,0.0,0.0,0.0,0.0,0.0,0.0,0.0,0.0,0.0,0.0,0.0,5.4892,5.5923,5.6359,5.7004,5.7859,5.8338,5.9249,6.0462,6.0462,6.1194,6.2435,6.2255,0.0,5.753,5.6765,0.0,0.0,0.0,0.0,0.0,0.0,0.0,0.0,0.0,0.0,0.0,0.0,0.0,0.0,0.0,0.0,0.0,0.0,0.0,0.0,0.0,0.0,5.4954,5.4752,5.5363,5.602,5.628,5.4441,5.2588,5.2024,4.9816,0.0,0.0,0.0,0.0,0.0,0.0,0.0,5.2795,5.431,5.5742,5.6885,5.7455,5.7932,5.8334,5.8027,5.7273,5.6068,5.5993,5.5039,5.2887,5.2277,0.0,0.0,0.0,0.0,0.0,0.0,0.0,0.0,0.0,0.0,0.0,0.0,0.0,0.0,0.0,0.0,0.0,0.0,0.0,0.0,0.0,0.0,0.0,0.0,0.0,0.0,0.0,0.0,0.0,4.676,4.8008,4.8768,4.8278,4.8267,0.0,0.0,0.0,0.0,0.0,0.0,0.0,0.0,0.0,5.6209,5.6645,5.75,5.8949,5.9219,5.9697,6.0356,6.0252,6.0745,6.1672,6.1672,6.2181,6.3078,6.2704,6.1926,6.0835,5.9787,5.859,5.7334,0.0,0.0,0.0,0.0,5.5281,5.5837,5.5837,5.6064,5.6453,5.6722,0.0,0.0,0.0,0.0,0.0,0.0,0.0,5.4024,5.4801,5.489,5.494,5.55,5.5848,5.5969,5.5621,5.5004,5.434,5.3685,5.2239,5.1137,5.1267,0.0,0.0,0.0,0.0,5.3331,5.4192,5.5214,5.6394,5.7807,5.8183,5.8434,5.8685,5.8485,5.7857,5.6728,5.6093,5.5189,5.3909,5.2729,5.1749,0.0,0.0,0.0,0.0,0.0,0.0,0.0,0.0,0.0,0.0,0.0,0.0,0.0,0.0,0.0,0.0,0.0,0.0,0.0,0.0,0.0,0.0,0.0,0.0,0.0,0.0,0.0,0.0,4.7807,4.9045,5.0373,5.0103,5.0331,0.0,0.0,0.0,0.0,0.0,0.0,5.6149,5.5705,5.6436,5.8574,5.8936,5.9923,6.1613,6.1419,6.1702,6.2345,6.1852,6.1942,6.26,6.26,6.2959,6.3572,6.3049,6.3139,6.3482,6.1972,6.0775,5.9817,5.9325,5.8697,5.8082,5.7616,5.7736,5.8112,5.8112,5.8143,5.8274,5.8711,5.7426,5.551,5.4615,0.0,0.0,0.0,0.0,5.4143,5.4587,5.4397,5.4363,5.5456,5.5716,5.5555,5.4938,5.5284,5.543,5.4467,5.3833,5.3231,5.2606,0.0,0.0,0.0,0.0,5.4712,5.5691,5.6401,5.7305,5.856,5.8811,5.8961,5.9087,5.8987,5.8485,5.7506,5.657,5.5659,5.4848,5.3474,5.2603,5.231,0.0,0.0,0.0,0.0,0.0,0.0,0.0,0.0,0.0,0.0,0.0,0.0,0.0,0.0,0.0,0.0,0.0,0.0,0.0,0.0,0.0,0.0,0.0,0.0,0.0,0.0,0.0,0.0,0.0,5.379,5.391,0.0,0.0,0.0,0.0,5.5042,5.5132,5.6256,5.877,5.889,6.007,6.2704,6.2225,6.2241,6.2988,6.2375,6.2405,6.3048,6.3018,6.3333,6.3887,6.3887,6.4261,6.4904,6.4874,6.4874,6.4755,6.2839,6.2002,6.1942,6.1912,6.1493,6.091,6.0851,6.088,6.091,6.091,5.9849,5.8769,6.0404,5.8393,5.5039,5.3538,5.1895,0.0,0.0,5.2065,5.2064,5.4612,5.413,5.3276,5.4419,5.4671,5.4786,5.5275,5.5002,5.4494,5.3872,5.3301,5.3091,5.3532,0.0,5.4009,5.5089,5.5742,5.6276,5.6835,5.7907,5.861,5.8685,5.9156,5.9659,6.0166,5.9759,5.9232,5.866,5.8102,5.7047,5.5433,5.4798,5.3976,5.2887,5.282,0.0,0.0,0.0,0.0,0.0,0.0,0.0,0.0,0.0,0.0,0.0,0.0,0.0,0.0,0.0,0.0,0.0,0.0,0.0,0.0,0.0,0.0,0.0,0.0,0.0,0.0,0.0,0.0,5.479,5.5222,0.0,5.6688,5.7124,5.7633,5.8304,5.9129,6.0057,6.0984,6.1044,6.1463,6.2435,6.3019,6.3438,6.3692,6.3872,6.4082,6.4321,6.4755,6.5293,6.5967,6.6386,6.6954,6.7552,6.7119,6.67,6.6191,6.5084,6.4096,6.3318,6.3318,6.2929,6.2405,6.2405,6.164,6.0588,6.0209,5.8916,5.7294,5.6522,5.534,5.3979,5.2766,5.2227,5.2202,5.3105,5.3384,5.3714,5.5032,5.5181,5.5297,5.6445,5.6972,5.7399,5.7926,5.7625,5.7173,5.6953,5.534,5.416,5.4687,5.5089,5.5717,5.6846,5.7474,5.8008,5.8535,5.8956,5.9207,5.9207,5.9382,5.9709,6.0242,5.9809,5.9408,5.9232,5.8008,5.6903,5.5968,5.5056,5.4403,5.4002,5.4336,5.3858,0.0,0.0,0.0,0.0,0.0,0.0,0.0,0.0,0.0,0.0,0.0,0.0,0.0,0.0,0.0,0.0,0.0,0.0,0.0,0.0,0.0,0.0,0.0,0.0,0.0,0.0,5.5371,5.579,5.6628,5.7406,5.8065,5.9129,6.0057,6.0729,6.1597,6.2301,6.272,6.275,6.2839,6.3064,6.4126,6.4784,6.4994,6.5682,6.6116,6.6355,6.6804,6.69,6.6725,6.7588,6.7883,6.7639,6.7007,6.6832,6.6908,6.5863,6.5273,6.4964,6.4515,6.3728,6.2824,6.2824,6.1687,5.9977,5.904,5.8277,5.728,5.4515,5.403,5.4236,5.2801,5.2737,5.3289,5.3833,5.4429,5.5031,5.5742,5.62,5.6702,5.7675,5.8177,5.8529,5.888,5.8679,5.8434,5.8434,5.6947,5.5885,5.642,5.6821,5.7405,5.8554,5.8855,5.9162,5.9709,5.9608,5.9483,5.9483,5.9483,5.9784,6.0537,6.0286,6.006,6.006,5.8836,5.7807,5.7079,5.6344,5.591,5.5709,5.5666,5.5214,5.426,0.0,0.0,0.0,0.0,0.0,0.0,0.0,0.0,0.0,0.0,0.0,0.0,0.0,0.0,0.0,0.0,0.0,0.0,0.0,0.0,0.0,0.0,0.0,5.4521,5.491,5.582,5.7047,5.8351,5.9428,6.01,6.0775,6.1419,6.2121,6.2181,6.275,6.4006,6.4066,6.4395,6.5084,6.5757,6.64,6.7074,6.7656,6.8284,6.8974,6.8863,6.7865,6.6124,6.7314,6.6828,6.5007,6.4485,6.5274,6.6737,6.4991,6.5277,6.6711,6.5442,6.3911,6.2357,6.231,6.1115,5.9303,5.7638,5.809,5.8804,5.4962,5.4877,5.5853,5.3672,5.3364,5.3934,5.4529,5.5082,5.5717,5.6753,5.7035,5.7186,5.7801,5.7951,5.7951,5.7951,5.7951,5.7976,5.7976,5.8001,5.8152,5.861,5.871,5.9087,6.0141,5.9885,0.0,6.0242,5.9859,5.9508,5.9508,5.9533,6.001,6.1135,6.1235,6.121,6.121,6.0613,5.979,5.8736,5.8685,5.8409,5.7876,5.6796,5.5968,5.5458,0.0,0.0,0.0,0.0,0.0,0.0,0.0,0.0,0.0,0.0,0.0,0.0,0.0,0.0,0.0,0.0,0.0,0.0,0.0,0.0,0.0,0.0,5.7992,5.7141,5.8022,5.8873,5.9232,6.0027,6.0791,6.1507,6.2165,6.2824,6.3438,6.3932,6.456,6.5413,6.5922,6.646,6.7164,6.7837,6.8256,6.8435,6.7241,6.7198,6.8256,6.603,6.5131,6.5491,6.5034,6.4511,6.3991,6.3868,6.3819,6.3768,6.3269,6.3083,6.3187,6.4114,6.4189,6.3587,6.2298,6.0389,5.8257,5.6482,5.5917,5.5812,5.4713,5.4941,5.5596,5.5358,5.5673,5.6226,5.6821,5.7116,5.7273,5.7575,5.7932,5.8284,5.8434,5.878,5.9056,5.9056,5.9382,5.9639,5.9639,5.9985,5.9954,5.8899,5.9006,5.9508,6.0191,6.0537,6.0613,6.0342,6.0166,6.0066,6.0066,6.0462,6.1034,6.1718,6.1793,6.1617,6.1235,6.0261,5.9408,5.8736,5.8328,5.7832,5.7255,5.6953,5.6702,0.0,0.0,0.0,0.0,0.0,0.0,0.0,0.0,0.0,0.0,0.0,0.0,0.0,0.0,0.0,0.0,0.0,0.0,0.0,0.0,0.0,0.0,5.7039,5.8997,5.9366,6.006,6.0625,6.0894,6.1523,6.2181,6.2839,6.3498,6.4276,6.5173,6.5622,6.6236,6.7208,6.7627,6.8032,6.8421,6.8274,6.845,6.8988,6.6829,6.6347,6.7608,6.5267,6.4128,6.4082,6.4166,6.377,6.3008,6.3008,6.3216,6.3518,6.2748,6.2635,6.3015,0.0,0.0,0.0,0.0,5.9191,5.7868,5.6822,5.6237,5.5986,5.5986,5.6187,5.6495,5.6821,5.7129,5.7506,5.8058,5.8252,5.8303,5.8504,5.8805,5.9056,5.9056,5.9282,5.9483,5.9483,5.9915,6.0292,6.0292,6.0588,0.0,5.9879,6.0004,6.0311,6.0638,6.0763,6.0688,6.0342,6.0091,5.994,5.994,6.0286,6.0708,6.1246,6.1517,0.0,0.0,0.0,6.006,5.9759,5.9207,0.0,0.0,0.0,5.7832,5.738,5.7054,0.0,0.0,5.5265,5.5139,0.0,0.0,0.0,0.0,0.0,0.0,0.0,0.0,0.0,0.0,0.0,0.0,0.0,0.0,0.0,0.0,5.6772,5.9127,6.0772,6.0983,6.1277,6.2198,6.2725,6.3368,6.4261,6.4681,6.5546,6.7103,6.6823,6.7312,6.9018,0.0,0.0,0.0,0.0,6.7509,6.8792,6.6177,6.5555,6.6865,6.5235,6.3695,6.2344,6.374,6.3449,6.1797,6.185,6.2814,6.4174,6.2556,6.2859,6.4237,6.2835,6.1187,5.9454,5.8335,5.7901,5.7901,5.7901,0.0,0.0,5.7901,5.7951,5.8001,5.8001,5.8027,5.8177,5.866,5.8786,5.8886,5.9382,5.9483,5.9483,5.9483,5.9483,5.9483,5.9483,5.9915,6.0292,6.0292,6.0392,6.0663,6.121,6.1185,6.111,6.111,6.0638,6.0267,6.0217,5.9809,5.9508,5.9583,5.9633,0.0,6.0342,6.0989,6.1311,6.111,6.1059,6.1009,6.1009,6.0487,6.0191,6.0116,5.9659,5.8905,5.7901,5.7901,5.7901,5.7901,5.7355,5.6878,0.0,0.0,0.0,0.0,0.0,0.0,0.0,0.0,0.0,0.0,0.0,0.0,0.0,0.0,0.0,5.38,5.6643,5.8884,5.9217,5.9651,6.0807,6.3326,6.2937,6.3498,6.6159,6.5136,6.547,6.8385,6.5754,6.5705,6.9608,6.6842,6.6562,6.9702,6.7044,6.6176,6.7443,6.4474,6.3785,6.542,0.0,0.0,6.158,6.0444,5.9717,5.9408,5.9839,6.0202,6.0526,6.0189,6.0481,6.1217,6.1498,6.0474,5.8819,5.8133,5.7901,5.7901,5.7901,5.7901,5.7901,5.7901,5.8183,5.8535,5.8535,5.8855,0.0,5.9307,5.9357,5.9357,5.9458,5.9483,5.9483,5.9483,5.9483,5.9483,5.9483,5.9915,6.0292,6.0292,6.1045,6.1718,6.1818,6.109,6.0468,6.0468,6.0367,6.0141,5.9709,5.9558,5.9659,6.0091,6.0588,6.0889,6.1034,6.1943,6.1898,6.0543,6.006,5.9834,5.9834,5.9709,5.9458,5.9012,5.8911,5.8535,5.7901,5.7901,5.7901,5.7901,5.7775,5.7882,0.0,0.0,0.0,0.0,0.0,0.0,0.0,0.0,0.0,0.0,0.0,4.8837,4.9097,0.0,5.2909,5.4001,5.6097,5.7832,5.8722,5.9059,5.996,6.2047,6.204,6.3,6.5878,6.4655,6.4897,6.7842,6.5369,6.4745,6.707,6.562,6.5474,6.7132,6.4998,6.4404,6.5649,6.253,6.1872,6.3621,6.0831,6.0136,6.1268,6.064,6.0342,6.0367,6.0919,6.1145,6.1145,6.1145,6.1296,6.1571,6.167,6.0972,5.991,5.9633,5.9533,5.9527,5.9207,5.9106,5.9056,5.878,5.888,5.9106,5.9106,5.9282,5.9483,5.9483,5.9483,5.9483,5.9483,5.9709,5.9985,6.0261,6.0563,6.0738,6.0738,6.117,6.1472,6.1195,6.1617,6.1994,6.1994,6.1316,6.0839,6.1095,6.0939,6.0537,5.9966,5.991,5.991,5.991,6.0412,6.0738,6.0738,6.1517,6.1768,6.119,6.0638,6.0356,6.0356,6.0356,6.0211,5.996,5.996,5.9809,5.9533,5.9533,5.9533,5.9533,5.9533,5.9382,0.0,0.0,0.0,0.0,0.0,0.0,0.0,4.7591,4.7741,4.8269,4.9213,5.0067,5.0494,5.1498,5.2703,5.4052,5.5314,5.665,5.8157,5.8426,5.8841,5.994,6.078,6.2271,6.4844,6.3772,6.4038,6.6697,6.4674,6.3746,6.4845,6.4489,6.4372,6.4661,6.3033,6.2754,6.3952,6.1229,6.0602,6.2162,6.1028,6.0788,6.1386,6.1793,6.1994,6.2044,6.2576,6.2802,6.2802,6.2802,6.2802,6.2777,6.2325,6.1893,6.1512,6.1285,6.121,6.1135,6.0638,6.0468,6.0392,5.996,5.9834,5.9834,5.9834,5.9834,5.9834,5.9834,5.9834,5.9834,5.9834,6.0161,6.0638,6.1235,6.1692,6.1994,6.1994,6.2325,6.2476,6.1943,6.1943,6.1994,6.1994,6.1718,6.1592,6.1818,6.1466,6.1034,6.0537,6.0468,6.0311,5.9885,6.0211,6.0518,6.0618,6.0964,6.1466,6.2119,6.1642,6.1411,6.1512,6.1492,6.1492,6.1492,6.1492,6.1492,6.1492,6.1492,6.1492,6.1492,6.1411,6.0808,4.5211,4.5959,4.6873,4.7481,4.7682,4.8008,0.0,4.9314,4.9464,5.0001,5.0645,5.1138,5.1188,5.2076,5.2887,5.3063,5.4462,5.5739,5.6402,5.6914,5.7468,5.812,5.9672,6.1657,6.4106,6.2696,6.2882,6.5975,6.2366,6.1967,6.6386,6.2935,6.2358,6.5608,6.2853,6.1909,6.3113,6.1734,6.136,6.2013,6.141,6.1366,6.1918,6.1969,6.1994,6.2044,6.2576,6.2802,6.2802,6.2802,6.2802,6.2802,6.2752,6.2676,6.2501,6.1542,6.121,6.1185,6.1135,6.111,6.111,6.1034,6.1009,6.1009,6.1009,6.1009,6.1009,6.1009,6.1009,6.1009,6.1009,6.1059,6.126,6.1793,6.1969,6.1994,6.1994,6.2044,6.1943,6.1411,6.1667,6.1994,6.1994,6.235,6.2325,6.1416,6.1235,6.1185,6.111,6.111,6.1085,6.1009,6.1059,6.1291,6.1768,6.1461,6.1617,6.2651,6.2199,6.2124,6.2601,6.2626,6.2626,6.2626,6.2626,6.2626,6.2626,6.2626,6.2626,6.2601,6.2124,6.1592,4.7245,4.7747,4.8209,4.8761,4.9122,4.9473,4.9967,5.0343,5.0661,5.087,5.1624,5.2226,5.2226,5.313,5.3984,5.431,5.5214,5.605,5.6602,5.7412,5.8083,5.8334,5.9585,6.1151,6.2962,6.1708,6.1915,6.4677,6.2148,6.125,6.298,6.1655,6.1378,6.2603,6.1704,6.1435,6.1953,6.1455,6.1466,6.1994,6.1768,6.1943,6.2476,6.2476,6.2476,6.2476,6.2701,6.2802,6.2802,6.2802,6.2802,6.2802,6.2802,6.3003,6.3249,6.2446,6.2144,6.2094,6.1768,6.1667,6.1667,6.1667,6.1667,6.1718,6.2044,6.2144,6.2144,6.2144,6.2144,6.2144,6.2144,6.2395,6.2697,6.2948,6.3245,6.337,6.3048,6.2998,6.2822,6.2245,6.23,6.2476,6.2476,6.2651,6.2651,6.2199,6.2144,6.2019,6.1692,6.1667,6.1667,6.1667,6.1667,6.2019,6.2898,6.2471,6.245,6.3274,6.2777,6.2727,6.3299,6.3324,6.3475,6.3776,6.3776,6.3776,6.3776,6.3776,6.3776,6.3776,6.3571,6.3345,4.8752,4.9028,4.9154,4.969,5.0101,5.0452,5.0619,5.0987,5.1389,5.1674,5.236,5.3013,5.3314,5.416,5.5006,5.5516,5.6068,5.6677,5.738,5.8309,5.8987,5.9112,5.9966,6.1024,6.2175,6.122,6.1348,6.3305,6.2047,6.114,6.0995,6.1266,6.1291,6.0995,6.1416,6.1642,6.1642,6.1642,6.1843,6.2225,6.2225,6.2425,6.2802,6.2802,6.2902,6.3053,6.3053,6.3128,6.3274,6.3274,6.3274,6.3274,6.3274,6.3525,6.3873,6.3425,6.3274,6.3178,6.2647,6.2471,6.2496,6.2647,6.2596,6.2571,6.3124,6.3274,6.3274,6.3274,6.3274,6.3229,6.3078,6.3375,6.3701,6.3701,6.3998,6.4174,6.3776,6.3701,6.3525,6.2927,6.2802,6.2852,6.3028,6.3053,6.3103,6.3229,6.3274,6.3003,6.23,6.2225,6.2225,6.2225,6.2225,6.2621,6.3601,6.3299,6.3375,6.4078,6.3751,6.3731,6.4329,6.4354,6.453,6.4927,6.5103,6.5179,6.5179,6.5329,6.5405,6.5405,6.5254,6.5179,4.943,4.9581,4.969,5.0226,5.0377,5.0553,5.1138,5.1289,5.1615,5.2636,5.2887,5.3239,5.4328,5.5006,5.5541,5.6093,5.6627,5.738,5.8497,5.9125,5.9659,6.0191,6.0788,6.1406,0.0,6.1506,6.1431,6.2024,6.1531,6.1642,6.2676,6.225,6.2199,6.2727,6.2752,6.2752,6.2752,6.2752,6.2777,6.2777,6.2777,6.2802,6.2802,6.2802,6.3103,6.3676,6.3676,6.3973,6.4446,6.4446,6.4446,6.4446,6.4446,6.4471,6.445,6.4471,6.4446,6.4375,6.3827,6.3651,6.3726,6.4249,6.4073,6.3747,6.4274,6.4446,6.4446,6.4446,6.4446,6.4325,6.3822,6.3697,6.3701,6.3701,6.3701,6.3701,6.3701,6.3701,6.3525,6.2927,6.2802,6.2978,6.3576,6.3676,6.3847,6.435,6.4446,6.4048,6.2927,6.2777,6.2777,6.2777,6.2777,6.3028,6.3651,6.3676,6.4128,6.5183,6.5233,6.5459,6.599,6.6036,6.6015,6.604,6.6635,6.6912,6.6937,6.7464,6.7693,6.7693,6.7163,6.6912,5.0076,5.0126,5.0268,5.0845,5.1272,5.1582,5.1774,5.2126,5.2561,5.3264,5.4034,5.4687,5.5056,5.5867,5.6527,5.6684,5.723,5.7976,5.9075,5.9684,6.0261,6.0814,6.1391,6.1793,6.1994,6.1843,6.1943,6.2476,6.235,6.2425,6.2802,6.2626,6.2626,6.2802,6.2802,6.2802,6.2802,6.2802,6.2802,6.2781,6.3224,6.3576,6.3948,6.3948,6.4048,6.4199,6.3847,6.3802,6.3948,6.3525,6.3375,6.3375,6.3375,6.3626,6.3923,6.3525,6.3847,6.445,6.43,6.3998,6.3797,6.4346,6.4149,6.3797,6.4325,6.4496,6.4496,6.4496,6.4496,6.4471,6.4274,6.4224,6.4149,6.3776,6.3701,6.3701,6.3701,6.3701,6.3747,6.3898,6.3948,6.3998,6.4199,6.4224,6.43,6.445,6.4496,6.435,6.3998,6.3948,6.3948,6.3948,6.3948,6.4023,6.4199,6.4224,6.4375,6.4752,6.4777,6.5003,6.5534,6.5559,6.5735,6.609,6.6689,6.6811,6.6413,6.6987,6.7066,6.6689,6.6912,6.6987,5.072,5.072,5.087,5.1423,5.2,5.2385,5.2385,5.2812,5.3339,5.3909,5.4755,5.5516,5.5917,5.6552,5.7136,5.7537,5.7757,5.8353,5.9608,6.0261,6.0839,6.1416,6.1969,6.2275,6.2275,6.2275,6.2425,6.2756,6.2802,6.2802,6.2802,6.2802,6.2802,6.2802,6.2802,6.2802,6.2802,6.3003,6.3203,6.3425,6.3802,6.4174,6.4496,6.4496,6.4601,6.4777,6.4425,6.4254,6.4228,6.3852,6.358,6.3425,6.3425,6.3626,6.3948,6.355,6.3852,6.445,6.4274,6.3998,6.3797,6.4346,6.4149,6.3797,6.4325,6.4496,6.4496,6.4496,6.4496,6.4496,6.4496,6.4496,6.44,6.4073,6.3998,6.3998,6.3998,6.3998,6.4099,6.4446,6.4496,6.4551,6.4752,6.4953,6.5078,6.5078,6.5078,6.4927,6.4547,6.4496,6.4496,6.4496,6.4496,6.4576,6.4777,6.4777,6.4877,6.5053,6.5078,6.5229,6.5559,6.5584,6.576,6.609,6.6689,6.6811,6.6413,6.699,6.7091,6.6739,6.7292,6.7467,5.1289,5.1314,5.149,5.2051,5.2561,5.2945,5.2945,5.3339,5.3858,5.4471,5.5056,5.5767,5.6809,5.7035,5.7412,5.8535,5.8234,5.8478,6.0116,6.0839,6.1411,6.1969,6.2476,6.2802,6.2802,6.2802,6.2802,6.2802,6.2802,6.2802,6.2802,6.2802,6.2802,6.2802,6.2802,6.2807,6.2852,6.345,6.4023,6.4547,6.4547,6.4572,6.4576,6.4576,6.4852,6.5333,6.5329,6.5283,6.5304,6.5233,6.4927,6.4471,6.4446,6.44,6.44,6.4446,6.4471,6.4375,6.3923,6.3726,6.3776,6.43,6.4099,6.3751,6.4249,6.4425,6.4471,6.4471,6.4496,6.4496,6.4496,6.4496,6.4496,6.4496,6.4496,6.4521,6.4547,6.4547,6.4547,6.4576,6.4576,6.4726,6.5254,6.576,6.609,6.609,6.609,6.5735,6.4701,6.4576,6.4576,6.4576,6.4576,6.4777,6.5283,6.5333,6.5559,6.6086,6.609,6.609,6.609,6.609,6.609,6.609,6.6689,6.6987,6.6962,6.7514,6.7744,6.7719,6.8274,6.8249,5.1289,5.159,5.2126,5.3055,5.3406,5.3507,5.3507,5.3607,5.3858,5.4471,5.5358,5.62,5.6878,5.738,5.7901,5.8585,5.8234,5.8604,6.0663,6.111,6.1562,6.2476,6.2727,6.2802,6.2802,6.2802,6.2802,6.2802,6.2802,6.2802,6.2802,6.2802,6.2802,6.2802,6.2802,6.3028,6.3475,6.4023,6.4576,6.5103,6.5103,6.5329,6.5685,6.5685,6.576,6.5886,6.5459,6.5283,6.5233,6.4429,6.4048,6.3873,6.3425,6.3229,6.3299,6.3726,6.3898,6.3948,6.4199,6.4048,6.3726,6.3873,6.35,6.3053,6.3178,6.355,6.3898,6.3898,6.4199,6.4496,6.4496,6.4496,6.4496,6.4496,6.4496,6.4601,6.5003,6.5103,6.5229,6.5609,6.5685,6.5735,6.5886,6.599,6.609,6.609,6.609,6.599,6.5735,6.5685,6.5685,6.5685,6.5685,6.576,6.5886,6.5911,6.5939,6.609,6.609,6.609,6.609,6.609,6.609,6.609,6.6689,6.6786,6.6338,6.6937,6.6965,6.6564,6.7141,6.7317,5.195,5.2402,5.3005,5.3876,5.426,5.4386,5.4152,5.4278,5.4554,5.4881,5.5616,5.6426,5.7255,5.7455,5.7832,5.8886,5.8403,5.8654,6.0884,6.121,6.1592,6.2676,6.2802,6.2802,6.2802,6.2802,6.2802,6.2802,6.2802,6.2802,6.2802,6.2802,6.2927,6.3178,6.3178,6.3475,6.4048,6.435,6.4777,6.5283,6.5053,6.5333,6.609,6.586,6.576,6.576,6.5685,6.5383,6.4927,6.453,6.4274,6.4023,6.3676,6.355,6.3576,6.3948,6.4048,6.4099,6.4396,6.43,6.4048,6.4048,6.3802,6.355,6.355,6.3776,6.4048,6.4048,6.4274,6.4551,6.4777,6.4852,6.4902,6.5153,6.5204,6.5283,6.5584,6.566,6.5735,6.604,6.609,6.609,6.609,6.609,6.609,6.609,6.609,6.609,6.609,6.609,6.609,6.609,6.609,6.609,6.609,6.609,6.609,6.609,6.609,6.609,6.609,6.609,6.609,6.609,6.6438,6.6438,6.609,6.6438,6.6438,6.6115,6.6736,6.6861,5.2744,5.3289,5.3858,5.4547,5.5006,5.5182,5.4798,5.5006,5.5308,5.5383,5.5817,5.6502,5.76,5.7405,5.7606,5.9056,5.8579,5.873,6.0808,6.116,6.1592,6.2676,6.2802,6.2802,6.2802,6.2802,6.2802,6.2802,6.2802,6.2802,6.2802,6.2877,6.3178,6.3797,6.3877,6.4149,6.4601,6.4676,6.4902,6.5283,6.4827,6.5053,6.5886,6.543,6.5233,6.5329,6.5785,6.5509,6.4726,6.5153,6.5028,6.4597,6.4547,6.4496,6.4521,6.4576,6.4622,6.4601,6.4697,6.4701,6.4676,6.4547,6.4496,6.4496,6.4496,6.4547,6.4622,6.4622,6.4651,6.4827,6.5304,6.543,6.5509,6.5986,6.609,6.609,6.609,6.609,6.609,6.609,6.609,6.609,6.609,6.609,6.609,6.609,6.6187,6.6237,6.6237,6.614,6.609,6.609,6.609,6.609,6.609,6.609,6.609,6.609,6.609,6.609,6.609,6.609,6.609,6.609,6.609,6.609,6.609,6.609,6.609,6.6115,6.6736,6.6739,5.2744,5.3289,5.3959,5.5006,5.5006,5.483,5.5182,5.4981,5.4856,5.5308,5.5817,5.6401,5.7054,5.7481,5.7851,5.8127,5.8384,5.8987,6.0267,6.0889,6.1592,6.2676,6.2802,6.2802,6.2802,6.2802,6.2802,6.2802,6.2802,6.2802,6.2802,6.3254,6.3797,6.4325,6.4802,6.5078,6.5179,6.5609,6.5634,6.5283,6.5204,6.5028,6.4777,6.4676,6.4877,6.5329,6.5383,0.0,6.581,6.5434,6.5254,6.5128,6.4676,6.4496,6.4551,6.5003,6.5179,6.5208,6.566,6.5835,6.5685,6.4777,6.4496,6.4496,6.4496,6.4802,6.5179,6.5179,6.5484,6.5835,6.5936,6.5939,6.5965,6.6086,6.609,6.609,6.609,6.609,6.609,6.609,6.609,6.609,6.609,6.609,6.609,6.609,6.6513,6.6836,6.6836,6.6413,6.609,6.609,6.609,6.609,6.609,6.609,6.609,6.609,6.609,6.609,6.609,6.609,6.609,6.609,6.609,6.609,6.609,6.609,6.609,6.6115,6.6736,6.7188,5.3482,5.3976,5.4429,5.5541,5.539,5.5157,5.5691,5.5408,5.5157,5.5691,5.6018,5.6351,5.6885,5.7255,5.7631,5.8208,5.8535,5.9187,6.0563,6.1034,6.1592,6.2676,6.2802,6.2802,6.2802,6.2802,6.2802,6.2802,6.3078,6.3274,6.3274,6.4078,6.4651,6.4902,6.5179,6.5179,6.4877,6.4856,6.4731,6.4454,6.4153,6.4178,6.4496,6.4199,6.4375,6.4902,6.5179,6.5434,6.5685,6.571,6.571,6.5685,6.5434,6.5333,6.5358,6.5609,6.571,6.576,6.599,6.609,6.6036,6.5484,6.5333,6.5333,6.5333,6.5509,6.571,6.571,6.5911,6.609,6.609,6.609,6.609,6.609,6.609,6.609,6.609,6.609,6.609,6.609,6.609,6.6212,6.6513,6.6564,6.6664,6.694,6.7216,6.7439,6.7439,6.7166,6.699,6.699,6.699,6.699,6.699,6.699,6.699,6.699,6.699,6.699,6.699,6.699,6.699,6.699,6.699,6.699,6.699,6.699,6.699,6.699,6.7267,6.7543,5.3976,5.4403,5.4629,5.5616,5.544,5.5189,5.5892,5.5616,5.5383,5.5917,5.61,5.6301,5.6602,5.6953,5.7455,5.8208,5.8736,5.9489,6.0814,6.1235,6.1718,6.2701,6.2802,6.2802,6.2802,6.2802,6.2852,6.2978,6.3525,6.3873,6.3873,6.4802,6.5283,6.5283,6.5283,6.5103,6.4676,6.4149,6.3802,6.3676,6.3203,6.34,6.4124,6.3701,6.3873,6.45,6.4953,6.5279,6.5509,6.5936,6.609,6.609,6.609,6.609,6.609,6.609,6.609,6.609,6.609,6.609,6.609,6.609,6.609,6.609,6.609,6.609,6.609,6.609,6.609,6.609,6.609,6.609,6.609,6.609,6.609,6.609,6.609,6.609,6.6137,6.6287,6.6287,6.6488,6.7087,6.7163,6.7314,6.7744,6.7894,6.797,6.797,6.807,6.8123,6.8123,6.7945,6.7794,6.7794,6.7794,6.7794,6.7794,6.7794,6.7794,6.7794,6.7794,6.7794,6.7794,6.7794,6.7794,6.7794,6.7794,6.7794,6.7794,6.7919,6.8045,5.3482,5.3783,5.3934,5.4597,5.4303,5.4135,5.5232,5.5056,5.4823,5.5358,5.5867,5.6068,5.5616,5.6796,5.7656,5.723,5.8861,6.0217,6.0367,6.1271,6.2124,6.2727,6.2802,6.2802,6.2802,6.2802,6.3028,6.3576,6.4124,6.4446,6.4446,6.4978,6.5283,6.5283,6.5283,6.5279,6.5229,6.4701,6.4174,6.3701,6.3626,6.34,6.2952,6.2902,6.3475,6.4496,6.4551,6.5128,0.0,6.6086,6.609,6.609,6.609,6.609,6.609,6.609,6.609,6.609,6.609,6.609,6.609,6.609,6.609,6.609,6.609,6.609,6.609,6.609,6.609,6.609,6.609,6.609,6.609,6.609,6.609,6.609,6.609,6.609,6.6262,6.6811,6.6912,6.7087,6.7618,6.7719,6.7744,6.7794,6.8199,6.8525,6.8525,6.8929,6.9255,6.9255,6.8374,6.7794,6.7794,6.7794,6.7794,6.7794,6.7794,6.7794,6.7794,6.7794,6.7794,6.7794,6.7794,6.7794,6.7794,6.7794,6.7794,6.7819,6.8299,6.8801,5.3113,5.3439,5.3833,5.4446,5.4421,5.4454,5.5232,5.4999,5.4748,5.5282,5.5308,5.5282,5.5383,5.6194,5.7022,5.7455,5.8811,6.006,6.0738,6.1773,6.2551,6.2756,6.3128,6.3178,6.2852,6.2802,6.3053,6.3651,6.4199,6.435,6.4048,6.4526,6.5128,6.576,6.4831,6.45,6.4802,6.3927,6.3375,6.3153,6.3153,6.3028,6.2827,6.3178,6.3751,6.4521,6.4852,6.543,0.0,6.609,6.609,6.609,6.609,6.609,6.609,6.609,6.609,6.609,6.609,6.609,6.609,6.609,6.609,6.609,6.609,6.609,6.609,6.609,6.609,6.609,6.609,6.609,6.609,6.609,6.609,6.6212,6.6564,6.6639,6.6789,6.7367,6.7467,6.7643,6.8173,6.8274,6.8374,6.8726,6.8929,6.908,6.908,6.9255,6.9406,6.9406,6.9027,6.8776,6.8776,6.8776,6.8776,6.8776,6.8776,6.8776,6.8776,6.8776,6.8776,6.8776,6.8776,6.8776,6.8776,6.8776,6.8776,6.8776,6.8979,6.8362,5.2795,5.3063,5.3406,5.4152,5.4328,5.4479,5.5031,5.4856,5.4672,5.4856,5.473,5.4723,5.5082,5.5717,5.6552,5.77,5.893,6.0085,6.1059,6.2119,6.2877,6.3028,6.345,6.3525,6.3103,6.3203,6.3475,6.3898,6.4274,6.4346,6.3973,6.3973,6.445,6.5358,6.4429,6.4048,6.4249,6.3279,6.2802,6.2802,6.2802,6.2902,6.3078,6.35,6.4099,6.4752,6.5128,6.5609,0.0,6.609,6.609,6.609,6.609,6.609,6.609,6.609,6.609,6.609,6.609,6.609,6.609,6.609,6.609,6.609,6.609,6.609,6.609,6.609,6.609,6.609,6.609,6.609,6.614,6.6338,6.6363,6.6538,6.7113,6.7238,6.7414,6.7945,6.8045,6.8221,6.8751,6.8851,6.8954,6.9331,6.9406,6.9406,6.9406,6.9406,6.9406,6.9406,6.9406,6.9406,6.9406,6.9406,6.9406,6.9406,6.9406,6.9406,6.9406,6.9406,6.9406,6.9406,6.9406,6.9042,6.8265,6.8265,6.7875,6.7139,6.7139,6.6166,5.2611,5.2511,5.2377,5.3432,5.3708,5.3858,5.4471,5.4597,5.4446,5.3833,5.4177,5.4597,5.4622,5.5483,5.6552,5.77,5.9257,6.0493,6.111,6.2119,6.3028,6.3626,6.3701,6.3701,6.3676,6.4174,6.4496,6.4496,6.4496,6.4496,6.4496,6.3425,6.3103,6.3701,6.4224,6.4249,6.3701,6.3103,6.2802,6.2802,6.2802,6.3103,6.3676,6.3701,6.4279,6.5283,6.5283,6.5609,0.0,6.609,6.609,6.609,6.609,6.609,6.609,6.609,6.609,6.609,6.609,6.609,6.609,6.609,6.609,6.609,6.609,6.609,6.609,6.609,6.609,6.609,6.609,6.609,6.6262,6.6861,6.6987,6.7138,6.7668,6.7794,6.7945,6.8475,6.86,6.8776,6.9306,6.9381,6.9381,6.9406,6.9406,6.9406,6.9406,6.9406,6.9406,6.9406,6.9406,6.9406,6.9406,6.9406,6.9406,6.9406,6.9406,6.9406,6.9406,6.9406,6.9406,6.9406,6.9406,6.8151,6.5655,6.5655,6.4319,6.1775,6.1775,6.1773,5.236,5.2511,5.2737,5.3063,5.3432,5.3758,5.3934,5.3984,5.3934,5.3733,5.3557,5.3683,5.4471,5.4881,5.5709,5.76,5.8956,5.996,6.0512,6.222,6.3199,6.2621,6.2546,6.2847,6.3626,6.3475,6.35,6.3923,6.3948,6.3751,6.3375,6.34,6.3676,6.4224,6.3651,6.345,6.3701,6.3103,6.2802,6.2802,6.2802,6.3103,6.3701,6.4073,6.4626,6.5308,6.5685,6.5936,6.609,6.609,6.609,6.609,6.609,6.609,6.609,6.609,6.609,6.609,6.609,6.609,6.609,6.609,6.609,6.609,6.609,6.609,6.609,6.609,6.609,6.619,6.661,6.6736,6.6861,6.7392,6.7565,6.7693,6.8224,6.8349,6.85,6.9029,6.913,6.9205,6.9356,6.9406,6.9406,6.9406,6.9406,6.9406,6.9406,6.9406,6.9406,6.9406,6.9406,6.9406,6.9406,6.9406,6.9406,6.9406,6.9406,6.9406,6.9406,6.9406,6.9406,6.9406,6.7692,6.6399,6.5608,6.3823,6.2516,6.1677,5.993,5.9098,5.2485,5.2511,5.2711,5.3113,5.3439,5.3708,5.3708,5.3708,5.3658,5.3439,5.3289,5.3507,5.4446,5.4931,5.581,5.76,5.8805,5.9759,6.0537,6.2044,6.2948,6.2672,6.2446,6.2747,6.3898,6.3254,6.3053,6.3651,6.3701,6.345,6.2852,6.3153,6.35,6.3847,6.34,6.3203,6.3375,6.2978,6.2802,6.2802,6.3028,6.345,6.4023,6.4551,6.5103,6.5609,6.5939,6.609,0.0,6.609,6.609,6.609,6.609,6.609,6.609,6.609,6.609,6.609,6.609,6.609,6.609,6.609,6.609,6.609,6.609,6.609,6.609,6.609,6.6262,6.6513,6.6912,6.7163,6.7417,6.797,6.812,6.8249,6.8801,6.8901,6.8979,6.9331,6.9406,6.9406,6.9406,6.9406,6.9406,6.9406,6.8585,6.7968,6.7968,6.7116,6.6491,6.6491,6.6491,6.6491,6.6491,6.8288,6.9406,6.9406,6.9406,6.8974,6.8014,6.7968,6.7484,6.6491,6.4953,6.3657,6.2683,6.0054,5.8778,5.8753,5.7182,5.6427,0.0,5.2536,5.2402,5.3406,5.3658,5.3658,5.3658,5.3683,0.0,5.3063,5.3389,5.3959,5.4597,5.5516,5.662,5.7826,5.8855,5.9885,6.1034,6.1617,6.237,6.35,6.3028,6.3103,6.4325,6.3375,6.2978,6.3651,6.3651,6.34,6.2827,6.2802,6.2802,6.2802,6.335,6.3375,6.2827,6.2802,6.2802,6.2827,6.3425,6.3998,6.4521,6.5053,6.5584,0.0,6.609,6.609,6.609,6.609,6.609,6.609,6.609,6.609,6.609,6.609,6.609,6.609,6.609,6.609,6.609,6.609,6.609,6.609,6.609,6.609,6.609,6.614,6.6564,6.7012,6.7087,6.7467,6.7995,6.8525,6.865,6.8801,6.928,6.9406,6.9406,6.9406,6.9406,6.9406,6.9406,6.9406,6.9361,6.9155,6.7116,6.5538,6.5351,6.3207,6.1701,6.1701,6.1701,6.1701,6.1701,6.6097,6.8835,6.8835,6.8835,6.7783,6.5398,6.5304,6.4177,6.1749,6.1532,6.0176,5.7609,5.5158,5.3998,5.3998,5.3998,5.3998,5.2787,0.0,5.2787,5.3038,5.3088,5.3088,0.0,5.3389,5.3658,5.3557,5.3976,5.468,5.5641,5.6043,5.6828,5.8805,5.9332,5.9885,6.1034,6.1311,6.1793,6.2877,6.1748,6.1672,6.3697,6.2491,6.219,6.3576,6.3274,6.2952,6.2827,6.2802,6.2802,6.2802,6.2927,6.2952,6.2802,6.2802,6.2802,6.2827,6.3425,6.3998,6.4521,6.5053,6.5584,6.609,6.609,6.609,6.609,6.609,6.609,6.609,6.609,6.609,6.609,6.609,6.609,6.609,6.609,6.609,6.609,6.609,6.609,6.609,6.609,6.609,6.6212,6.666,6.6887,6.7188,6.802,6.8324,6.855,6.908,6.9205,6.9255,6.9381,6.9406,6.9406,6.9406,6.9406,6.9406,6.9406,6.9406,6.8745,6.6793,6.5981,6.4883,6.2874,6.2085,6.1701,6.1701,6.1701,6.1701,6.1701,6.2826,6.3516,6.3516,6.3516,6.3231,6.2636,6.2612,6.2325,6.1703,5.9808,5.7509,5.4925,5.4304,5.3998,5.3998,5.3998,5.3998,5.2744,5.2895,5.2895,5.2895,5.2895,5.2945,5.3213,5.349,5.3783,5.4077,5.478,5.5491,5.6075,5.6646,5.7449,5.8905,5.9332,5.9985,6.1366,6.1768,6.2149,6.2727,6.1773,6.1647,6.3128,6.2245,6.2044,6.3178,6.2978,6.2802,6.2802,6.2802,6.2802,6.2802,6.2802,6.2802,6.2802,6.2802,6.2927,6.3203,6.3776,6.435,6.4877,6.5409,6.5835,6.609,6.609,6.609,6.609,6.609,6.609,6.609,6.609,6.609,6.609,6.609,6.609,6.609,6.609,6.609,6.609,6.609,6.609,6.614,6.6438,6.6513,6.6564,6.6912,6.7364,6.7869,6.845,6.8776,6.9029,6.9331,6.9406,6.9406,6.9406,6.9406,6.9406,6.9406,6.9406,6.9406,6.9406,6.8449,6.7185,6.5818,6.3586,6.1556,6.0127,5.8901,5.8158,5.8158,5.8158,5.8158,5.8158,5.8158,5.9171,6.1534,6.1701,6.1195,5.9981,5.9979,5.9392,5.8183,5.6807,5.5411,5.3998,5.3998,5.3998,5.3998,5.3998,5.3998,5.2737,5.2895,5.2895,5.2895,5.2945,5.3138,5.3607,5.3833,5.4135,5.4705,5.5616,5.6351,5.6426,5.7323,5.8202,5.8736,5.9357,6.0261,6.1692,6.2174,6.245,6.2551,6.2074,6.1974,6.2626,6.227,6.2225,6.2777,6.2802,6.2802,6.2802,6.2802,6.2802,6.2802,6.2802,6.2802,6.2802,6.2802,6.3103,6.3701,6.4249,6.4777,6.5329,6.586,6.614,6.6237,6.6137,6.614,6.6237,6.6137,6.609,6.609,6.609,6.609,6.609,6.609,6.609,6.609,6.609,6.609,6.609,6.609,6.609,6.619,6.6836,6.7062,6.7138,6.7238,6.7894,6.8625,6.8701,6.9077,6.9406,6.9406,6.9406,6.9431,6.9506,6.9554,6.9556,6.9632,6.9657,6.9518,6.9132,6.7267,6.5541,6.4741,6.0838,5.7858,5.7543,5.5441,5.4037,5.4095,5.4037,5.3998,5.3998,5.3998,5.587,6.0249,6.0517,5.9563,5.7406,5.7306,5.6252,5.4049,5.3998,5.3998,5.3998,5.3998,5.3998,5.3998,5.3998,5.3998,5.2636,5.2895,5.2895,5.2895,5.3239,5.3607,5.3683,5.4436,5.529,5.5842,5.6451,5.7029,5.7549,5.8133,5.8736,5.9282,6.0256,6.1034,6.1285,6.0964,6.0869,6.1366,6.0939,6.097,6.2019,6.2044,6.2225,6.2777,6.2802,6.2802,6.2802,6.2802,6.2802,6.2802,6.2802,6.2802,6.2802,6.2802,6.3103,6.3701,6.4249,6.4777,6.5329,6.586,6.6388,6.6836,6.6338,6.6388,6.6836,6.6312,6.609,6.609,6.609,6.609,6.609,6.609,6.609,6.609,6.609,6.609,6.609,6.609,6.609,6.619,6.6836,6.7339,6.7769,6.8246,6.8475,6.8701,6.9155,6.9331,6.9406,6.9406,6.9406,6.9554,7.0051,7.0152,7.0302,7.0732,7.0832,7.0112,6.7841,6.713,6.5361,6.0851,5.9177,5.776,5.5926,5.4704,5.4154,5.4531,5.4258,5.3998,5.3998,5.3998,5.4335,5.5108,5.5184,5.5001,5.4615,5.4589,5.4411,5.3998,5.3998,5.3998,5.3998,5.3998,5.3998,5.3998,5.3998,5.3998,5.2611,5.2895,5.297,5.3264,5.3532,5.3783,5.4127,5.5039,5.5917,5.615,5.7129,5.7907,5.7901,5.8334,5.8886,5.9408,6.0457,6.121,6.121,6.0939,6.0889,6.116,6.1215,6.1421,6.1943,6.225,6.2526,6.2802,6.2802,6.2802,6.2802,6.2802,6.2802,6.2802,6.2802,6.2952,6.3279,6.3299,6.3576,6.4149,6.4978,6.566,6.6234,6.6764,6.7015,6.6987,6.6711,6.6564,6.6488,6.619,6.609,6.609,6.609,6.609,6.609,6.609,6.609,6.609,6.609,6.609,6.609,6.609,6.6338,6.6689,6.7241,6.802,6.8726,6.8977,6.9029,6.908,6.9331,6.9629,6.9878,6.9878,7.0104,6.999,6.8821,6.8567,6.8193,6.6963,6.6724,6.6317,6.511,6.3744,6.1991,5.9575,5.7802,5.6337,5.5117,5.4824,5.4707,5.4713,5.4512,5.4375,5.4375,5.4134,5.3998,5.3998,5.3998,5.3998,5.3998,5.3998,5.3998,5.3998,5.3998,5.3998,5.3998,5.3998,5.3998,5.3998,5.3998,5.3998,5.2611,5.2988,5.3188,5.3607,5.3808,5.4102,5.4805,5.5591,5.6301,5.6702,5.7706,5.8459,5.8303,5.8604,5.9106,5.9784,6.0406,6.0858,6.0984,6.0884,6.0858,6.0964,6.1466,6.1868,6.1994,6.2476,6.2802,6.2802,6.2802,6.2802,6.2802,6.2802,6.2802,6.2802,6.2802,6.3078,6.3676,6.3802,6.4149,6.4701,6.5634,6.6413,6.7012,6.7565,6.7643,6.7389,6.7238,6.6937,6.6488,6.6363,6.6237,6.6115,6.6262,6.6312,6.6287,6.614,6.609,6.609,6.609,6.6187,6.6312,6.6312,6.6789,6.7464,6.7869,6.8751,6.9604,6.9604,6.9705,6.978,6.9654,7.0054,7.0341,6.9693,6.9854,6.9451,6.6865,6.6335,6.5754,6.3789,6.3415,6.317,6.2548,6.0834,5.9326,5.8706,5.6799,5.5371,5.5182,5.5137,5.5078,5.4844,5.4772,5.4713,5.4713,5.4375,5.4115,5.4017,5.3998,5.3998,5.3998,5.3998,5.3998,5.3998,5.3998,5.3998,5.3998,5.3998,5.3998,5.3998,5.4115,5.4154,5.2611,5.3264,5.3658,5.3683,5.4127,5.4805,5.5842,5.6125,5.6627,5.8208,5.8227,5.8252,5.9207,5.9408,5.9784,6.0909,6.0256,5.9784,6.0292,5.9935,5.9809,6.0292,6.0889,6.1441,6.1943,6.2476,6.2802,6.2802,6.2802,6.2802,6.2802,6.2802,6.2802,6.2802,6.2802,6.3078,6.3676,6.4199,6.4701,6.5254,6.5835,6.6413,6.7012,6.7565,6.8045,6.845,6.797,6.7719,6.7643,6.7138,6.661,6.6162,6.6736,6.6937,6.6861,6.6312,6.609,6.609,6.609,6.6463,6.6937,6.6937,6.7643,6.85,6.8525,6.9325,7.0227,7.0227,7.0579,7.088,7.0353,7.0629,7.0404,6.7915,6.7368,6.6793,6.4506,6.4027,6.4136,6.4505,6.4569,6.3787,6.1207,6.0608,5.9662,5.7157,5.6258,5.5989,5.6406,5.5475,5.4889,5.5215,5.4922,5.4713,5.4713,5.4674,5.4453,5.4037,5.3998,5.3998,5.3998,5.3998,5.3998,5.3998,5.3998,5.3998,5.3998,5.3998,5.3998,5.4017,5.4453,5.4655,5.2711,5.3289,5.3858,5.4587,5.5164,5.5691,5.6118,5.7004,5.7832,5.8133,5.8855,5.9633,6.0412,6.0236,6.0161,6.0588,6.0286,5.996,5.9834,5.9935,6.0066,6.0267,6.114,6.1768,6.1994,6.2476,6.2802,6.2802,6.2802,6.2802,6.2802,6.2802,6.2802,6.2802,6.3153,6.3626,6.4199,6.4726,6.5455,6.6359,6.689,6.7292,6.7518,6.8399,6.8726,6.86,6.8374,6.812,6.7769,6.7238,6.6861,6.6639,6.6488,6.6686,6.6937,6.6338,6.609,6.614,6.6538,6.7037,6.7543,6.7894,6.85,6.9177,6.9526,7.0202,7.0805,7.0805,7.141,7.1887,7.1031,6.997,6.8849,6.7846,6.6582,6.4914,6.2375,6.1806,6.1383,5.9933,5.9661,5.932,5.8282,5.8097,5.7773,5.6769,5.6445,5.6308,5.6165,5.5996,5.5723,5.5351,5.4941,5.4785,5.5058,5.4824,5.4609,5.4453,5.4154,5.3998,5.3998,5.3998,5.3998,5.3998,5.3998,5.3998,5.3998,5.3998,5.3998,5.4017,5.4173,5.4414,5.3013,5.3791,5.4637,5.5257,5.6194,5.6928,5.6796,5.7757,5.8635,5.8453,5.9558,6.0713,6.1115,6.0864,6.0568,6.0568,6.0267,5.9935,5.9533,5.994,6.0367,6.0563,6.1416,6.2069,6.2225,6.2576,6.2802,6.2802,6.2802,6.2802,6.2802,6.2802,6.2802,6.2802,6.34,6.3973,6.4496,6.5028,6.5882,6.7012,6.7543,6.7894,6.8095,6.8979,6.9205,6.8851,6.8851,6.855,6.802,6.7467,6.7263,6.7188,6.6614,6.684,6.7392,6.6463,6.6338,6.6689,6.6912,6.7568,6.8374,6.8726,6.9479,7.0232,7.0478,7.1056,7.156,7.1384,7.2012,7.2541,7.1811,6.9878,6.7934,6.7083,6.5113,6.2675,5.9927,5.9346,5.8789,5.6963,5.6609,5.6609,5.6609,5.6609,5.6609,5.6609,5.6609,5.6484,5.6145,5.6269,5.6152,5.554,5.5019,5.4844,5.5273,5.4922,5.4713,5.4713,5.4394,5.4154,5.4017,5.3998,5.4076,5.4238,5.4213,5.4271,5.4408,5.4408,5.4408,5.4408,5.4544,5.4759,5.354,5.4913,5.6068,5.5559,5.7072,5.856,5.8052,5.8334,5.8861,5.9408,6.0406,6.1185,6.121,6.1185,6.1185,6.1185,6.0256,5.9483,5.9483,5.9985,6.0518,6.1135,6.1667,6.222,6.2752,6.2802,6.2802,6.2802,6.2802,6.2802,6.2802,6.2802,6.2802,6.2827,6.34,6.3973,6.4496,6.5053,6.5882,6.7012,6.7543,6.8095,6.8625,6.9177,6.9406,6.9406,6.9406,6.908,6.8575,6.8045,6.7819,6.7744,6.7213,6.7668,6.8399,6.6718,6.684,6.7719,6.7213,6.807,6.9406,6.9406,7.0558,7.1811,7.1259,7.1861,7.2591,7.2062,7.229,7.2717,7.2717,7.0686,6.799,6.5312,6.2598,5.9823,5.7176,5.6609,5.6609,5.6609,5.6609,5.6609,5.6609,5.6609,5.6609,5.6609,5.6609,5.6609,5.6609,5.6184,5.5911,5.5911,5.5176,5.4844,5.5273,5.4922,5.4713,5.4713,5.4713,5.4492,5.4037,5.4017,5.4238,5.4694,5.4713,5.4883,5.5312,5.5312,5.5312,5.5312,5.5716,5.5911,5.354,5.4637,5.5792,5.6376,5.7631,5.8761,5.8981,5.9438,5.9991,6.0582,6.0331,6.0256,6.1059,6.0537,6.0136,6.0512,5.996,5.9483,5.9483,6.0311,6.0989,6.1185,6.2019,6.2626,6.2802,6.2802,6.2802,6.2802,6.2802,6.2802,6.2802,6.2802,6.3003,6.3425,6.3973,6.4526,6.5053,6.6033,6.6861,6.7568,6.812,6.845,6.8625,6.9177,6.9406,6.9406,6.9406,6.9306,6.9105,6.8575,6.8349,6.8299,6.7769,6.7995,6.85,6.7618,6.7518,6.7894,6.8475,6.9275,7.0177,7.0932,7.1487,7.1937,7.2163,7.2164,7.2164,7.239,7.2591,7.2717,7.2717,6.9308,6.5688,6.4908,6.1153,5.7581,5.6769,5.6609,5.6609,5.6609,5.6609,5.6609,5.6609,5.6609,5.6609,5.6609,5.6609,5.6609,5.6609,5.6184,5.5911,5.5911,5.5176,5.4844,5.5273,5.5195,5.5117,5.5117,5.539,5.5234,5.4512,5.4492,5.4551,5.4713,5.4713,5.4883,5.5312,5.5312,5.5312,5.5312,5.543,5.5618,5.3607,5.4687,5.5867,5.6527,5.7531,5.8579,5.9332,5.9759,6.0161,6.0713,6.0286,6.0035,6.0713,6.0286,5.9915,6.0242,5.9859,5.9558,5.9784,6.0632,6.1285,6.1492,6.2275,6.2802,6.2802,6.2802,6.2802,6.2802,6.2802,6.2802,6.2802,6.2802,6.3078,6.3676,6.4224,6.4752,6.5283,6.6434,6.7288,6.7819,6.8324,6.8726,6.8926,6.9255,6.9406,6.9406,6.9406,6.928,6.9055,6.8977,6.8801,6.8575,6.8224,6.845,6.8826,6.8095,6.807,6.8525,6.918,6.993,7.0755,7.161,7.2039,7.2265,7.2616,7.2466,7.229,7.2616,7.2717,7.2717,7.2717,6.87,6.4706,6.4706,6.0552,5.6609,5.6609,5.6609,5.6609,5.6609,5.6609,5.6609,5.6609,5.6609,5.6609,5.6609,5.6609,5.6609,5.6609,5.6184,5.5911,5.5911,5.5332,5.5039,5.5293,5.5312,5.539,5.5521,5.5774,5.5677,5.5195,5.4863,5.4791,5.4922,5.4941,5.5215,5.582,5.582,5.582,5.582,5.582,5.5957,5.3683,5.4888,5.615,5.6251,5.7173,5.8303,5.9282,5.9483,5.9659,6.0191,6.0267,6.0217,6.0217,6.0217,6.0217,6.0217,5.9834,5.9684,6.0217,6.0814,6.1411,6.1943,6.2476,6.2802,6.2802,6.2802,6.2802,6.2802,6.2802,6.2802,6.2802,6.2852,6.3153,6.3751,6.43,6.4852,6.5434,6.6535,6.7339,6.7869,6.8424,6.8926,6.9406,6.9406,6.9406,6.9406,6.9406,6.9105,6.8726,6.9205,6.9105,6.8675,6.8675,6.8977,6.928,6.8321,6.855,6.9406,6.9506,7.0232,7.1207,7.1786,7.229,7.2717,7.2717,7.2717,7.2717,7.2717,7.2717,7.2717,7.2717,6.87,6.4706,6.4706,6.0552,5.6609,5.6609,5.6609,5.6609,5.6609,5.6609,5.6609,5.6609,5.6609,5.6609,5.6609,5.6609,5.6609,5.6609,5.623,5.595,5.5911,5.556,5.5351,5.5312,5.5332,5.5501,5.5891,5.595,5.595,5.5911,5.5195,5.498,5.5351,5.5345,5.5762,5.6609,5.6609,5.6609,5.6609,5.6609,5.6609,5.3582,5.4612,5.5767,5.6627,5.7983,5.9207,5.9433,5.9483,5.9659,6.0191,5.9985,5.9684,5.9684,5.9684,5.9684,5.9684,5.9583,5.9684,6.0217,6.0814,6.1411,6.1943,6.2476,6.2802,6.2802,6.2802,6.2802,6.2802,6.2802,6.2802,6.2802,6.3229,6.3751,6.43,6.4852,6.5606,6.6635,6.7314,6.7894,6.8424,6.8977,6.928,6.9406,6.9406,6.9406,6.9406,6.9406,6.9331,6.923,6.9356,6.9331,6.923,6.923,6.9306,6.9381,6.913,6.9205,6.9531,7.043,7.0882,7.1282,7.2215,7.2616,7.2717,7.2717,7.2717,7.2717,7.2717,7.2717,7.2717,7.2717,6.87,6.4706,6.4706,6.0552,5.6609,5.6609,5.6609,5.6609,5.6609,5.6609,5.6609,5.6609,5.6609,5.6609,5.6609,5.6609,5.6609,5.6609,5.6504,5.6308,5.595,5.5833,5.5638,5.5332,5.5579,5.5813,5.5891,5.625,5.6289,5.593,5.5735,5.5677,5.5774,5.5774,5.6028,5.6609,5.6609,5.6609,5.6609,5.6609,5.6609,5.3406,5.4135,5.4963,5.6602,5.8259,5.9433,5.9182,5.9307,5.9583,5.9859,5.9684,5.9483,5.9483,5.9483,5.9483,5.9483,5.9709,6.0085,6.0638,6.1215,6.1793,6.2325,6.2626,6.2802,6.2802,6.2802,6.2802,6.2802,6.2802,6.2802,6.2802,6.3375,6.3948,6.4496,6.5028,6.5857,6.6987,6.7518,6.807,6.86,6.913,6.9406,6.9406,6.9406,6.9406,6.9406,6.9406,6.9406,6.9406,6.9406,6.9406,6.9406,6.9406,6.9406,6.9406,6.9406,6.9406,6.9531,7.0405,7.088,7.1209,7.2039,7.2491,7.2717,7.2717,7.2717,7.2717,7.2717,7.2717,7.2717,7.2717,6.87,6.4706,6.4706,6.0552,5.6609,5.6609,5.6609,5.6609,5.6609,5.6609,5.6609,5.6609,5.6609,5.6609,5.6609,5.6609,5.6609,5.6609,5.6609,5.6426,5.595,5.6087,5.6048,5.5618,5.5996,5.625,5.625,5.6465,5.6484,5.625,5.625,5.6126,5.5911,5.5911,5.6126,5.6609,5.6609,5.6609,5.6609,5.6609,5.6609,5.3281,5.3909,5.4637,5.6652,5.8259,5.9282,5.8911,5.9182,5.9483,5.9483,5.9483,5.9483,5.9483,5.9483,5.9483,5.9483,5.996,6.0512,6.1135,6.1667,6.2199,6.2752,6.2802,6.2802,6.2802,6.2802,6.2802,6.2802,6.2802,6.2852,6.2952,6.3525,6.4099,6.4601,6.5254,6.6083,6.7138,6.7668,6.8221,6.8751,6.918,6.9406,6.9406,6.9406,6.9406,6.9406,6.9406,6.9406,6.9406,6.9406,6.9406,6.9406,6.9406,6.9406,6.9406,6.9406,6.9406,6.9481,7.0102,7.0654,7.1207,7.1736,7.2265,7.2717,7.2717,7.2717,7.2717,7.2717,7.2717,7.2717,7.2717,6.87,6.4706,6.4706,6.0552,5.6609,5.6609,5.6609,5.6609,5.6609,5.6609,5.6609,5.6609,5.6609,5.6609,5.6609,5.6609,5.6609,5.6609,5.6609,5.6445,5.6067,5.6367,5.6445,5.6048,5.6387,5.6609,5.6609,5.6609,5.6609,5.6609,5.6609,5.6406,5.6028,5.6028,5.6204,5.6609,5.6609,5.6609,5.6609,5.6609,5.6609,5.3381,5.4762,5.615,5.7474,5.8284,5.8911,5.9307,5.9433,5.9483,5.9483,5.9483,5.9483,5.9483,5.9483,5.9483,5.9483,5.996,6.0512,6.1135,6.1667,6.2199,6.2752,6.2802,6.2802,6.2802,6.2802,6.2802,6.2802,6.2802,6.3028,6.355,6.4099,6.4626,6.5179,6.6234,6.7087,6.7693,6.8246,6.8776,6.928,6.9356,6.9406,6.9406,6.9406,6.9406,6.9406,6.9406,6.9406,6.9406,6.9406,6.9406,6.9406,6.9406,6.9406,6.9406,6.9406,6.9406,6.9481,7.0102,7.0654,7.1207,7.1736,7.2265,7.2717,7.2717,7.2717,7.2717,7.2717,7.2717,7.2717,7.2717,6.87,6.4706,6.4706,6.0552,5.6609,5.6609,5.6609,5.6609,5.6609,5.6609,5.6609,5.6609,5.6609,5.6609,5.6609,5.6609,5.6609,5.6609,5.6609,5.6589,5.6504,5.6543,5.6562,5.6504,5.6543,5.6609,5.6609,5.6609,5.6609,5.6609,5.6609,5.6589,5.6504,5.6504,5.6523,5.6609,5.6609,5.6609,5.6609,5.6609,5.6609,5.3231,5.4712,5.6093,5.7549,5.8284,5.8836,5.9382,5.9483,5.9483,5.9483,5.9483,5.9483,5.9483,5.9483,5.9583,5.991,6.0437,6.0989,6.1567,6.2119,6.2526,6.2777,6.2802,6.2802,6.2802,6.2802,6.2802,6.2802,6.2802,6.3053,6.3651,6.4199,6.4752,6.5283,6.6409,6.7263,6.7794,6.8324,6.8876,6.9406,6.9406,6.9406,6.9406,6.9406,6.9406,6.9406,6.9406,6.9406,6.9406,6.9406,6.9406,6.9406,6.9406,6.9406,6.9406,6.9406,6.9406,6.9431,6.9705,7.038,7.1156,7.1382,7.2037,7.2717,7.2717,7.2717,7.2717,7.2717,7.2717,7.236,7.0854,6.7597,6.4328,6.2777,5.9425,5.6609,5.6609,5.6609,5.6609,5.6609,5.6609,5.6609,5.6609,5.6609,5.6609,5.6609,5.6609,5.6609,5.6609,5.6609,5.6609,5.6609,5.6609,5.6609,5.6609,5.6609,5.6609,5.6609,5.6609,5.6609,5.6609,5.6609,5.6609,5.6609,5.6609,5.6609,5.6609,5.6609,5.6609,5.6609,5.6609,5.6609,5.3055,5.4336,5.5534,5.6922,5.7757,5.8459,5.9156,5.9408,5.9483,5.9483,5.9483,5.9483,5.9483,5.9483,5.9684,6.0217,6.0814,6.1386,6.1918,6.245,6.2802,6.2802,6.2802,6.2802,6.2802,6.2802,6.2802,6.2802,6.2802,6.3128,6.3873,6.4274,6.4802,6.5484,6.661,6.7414,6.7794,6.8475,6.9004,6.9406,6.9406,6.9406,6.9406,6.9406,6.9406,6.9406,6.9406,6.9406,6.9406,6.9406,6.9406,6.9406,6.9406,6.9406,6.9406,6.9406,6.9406,6.9406,6.9406,7.0056,7.093,7.1056,7.1736,7.2516,7.2666,7.2717,7.2717,7.2717,7.2717,7.2074,6.9381,6.6709,6.4002,6.1235,5.8552,5.6609,5.6609,5.6609,5.6609,5.6609,5.6609,5.6609,5.6609,5.6609,5.6609,5.6609,5.6609,5.6609,5.6609,5.6609,5.6609,5.6609,5.6609,5.6609,5.6609,5.6609,5.6609,5.6609,5.6609,5.6609,5.6609,5.6609,5.6609,5.6609,5.6609,5.6609,5.6609,5.6609,5.6609,5.6609,5.6609,5.6609,5.2895,5.3758,5.4798,5.5383,5.6301,5.7387,5.8485,5.9112,5.9483,5.9483,5.9483,5.9483,5.9483,5.9483,5.9684,6.0217,6.0814,6.1386,6.1918,6.245,6.2802,6.2802,6.2802,6.2802,6.2802,6.2802,6.2802,6.2802,6.2802,6.3299,6.44,6.4496,6.4978,6.6036,6.7166,6.7769,6.7794,6.8851,6.9381,6.9406,6.9406,6.9406,6.9406,6.9406,6.9406,6.9406,6.9406,6.9406,6.9406,6.9406,6.9406,6.9406,6.9406,6.9406,6.9406,6.9406,6.9406,6.9406,6.9406,6.9805,7.0451,7.093,7.1485,7.2037,7.2541,7.2717,7.2717,7.2717,7.2717,7.2074,6.9381,6.6709,6.4002,6.1235,5.8552,5.6609,5.6609,5.6609,5.6609,5.6609,5.6609,5.6609,5.6609,5.6609,5.6609,5.6609,5.6609,5.6609,5.6609,5.6609,5.6609,5.6609,5.6609,5.6609,5.6609,5.6609,5.6609,5.6609,5.6609,5.6609,5.6609,5.6609,5.6609,5.6609,5.6609,5.6609,5.6609,5.6609,5.6609,5.6609,5.6609,5.6609,5.2694,5.3439,5.4411,5.6025,5.6728,5.7405,5.888,5.9106,5.9062,5.9433,5.9483,5.9483,5.9483,5.9483,5.9784,6.0713,6.1059,6.1512,6.2375,6.2676,6.2802,6.2802,6.2802,6.2802,6.2802,6.2802,6.2802,6.2802,6.3153,6.3701,6.4471,6.4827,6.553,6.6639,6.7417,6.8145,6.8826,6.9205,6.9406,6.9406,6.9406,6.9406,6.9406,6.9406,6.9406,6.9406,6.9406,6.9406,6.9406,6.9406,6.9406,6.9406,6.9406,6.9406,6.9406,6.9406,6.9406,6.9406,6.9406,6.9803,7.0401,7.093,7.146,7.2012,7.2541,7.2717,7.2717,7.2717,7.1453,6.9914,6.8943,6.539,6.1412,5.8684,5.7289,5.6609,5.6609,5.6609,5.6609,5.6609,5.6609,5.6609,5.6609,5.6609,5.6609,5.6609,5.6609,5.6609,5.6609,5.6609,5.6609,5.6609,5.6609,5.6609,5.6609,5.6609,5.6609,5.6609,5.6609,5.6609,5.6609,5.6609,5.6609,5.6609,5.6609,5.6609,5.6609,5.6609,5.6609,5.6609,5.6609,5.6609,5.2226,5.2887,5.3816,5.5472,5.6326,5.7129,5.8629,5.8981,5.9112,5.9659,5.9784,5.9784,5.9784,5.9784,6.0085,6.1059,6.121,6.1567,6.2651,6.2802,6.2802,6.2802,6.2802,6.2802,6.2802,6.2802,6.2802,6.2802,6.3375,6.3948,6.445,6.5003,6.5886,6.7238,6.7794,6.85,6.9381,6.9406,6.9406,6.9406,6.9406,6.9406,6.9406,6.9406,6.9406,6.9406,6.9406,6.9406,6.9406,6.9406,6.9406,6.9406,6.9406,6.9406,6.9406,6.9406,6.9406,6.9406,6.9406,6.9803,7.0401,7.093,7.146,7.2012,7.2541,7.2717,7.2717,7.2717,7.1405,6.9623,6.7818,6.3342,5.8816,5.7016,5.6609,5.6609,5.6609,5.6609,5.6609,5.6609,5.6609,5.6609,5.6609,5.6609,5.6609,5.6609,5.6609,5.6609,5.6609,5.6609,5.6609,5.6609,5.6609,5.6609,5.6609,5.6609,5.6609,5.6609,5.6609,5.6609,5.6609,5.6609,5.6609,5.6609,5.6609,5.6609,5.6609,5.6609,5.6609,5.6609,5.6609,5.6609,0.0,0.0,0.0,5.3607,5.4963,5.6477,5.765,5.8704,5.9608,6.0166,6.0267,6.0267,6.0267,6.0267,6.0468,6.1085,6.1185,6.1542,6.2626,6.2777,6.2802,6.2802,6.2802,6.2802,6.2802,6.2802,6.2802,6.2802,6.3375,6.3948,6.445,6.5053,6.6112,6.7744,6.8324,6.8876,6.9381,6.9406,6.9406,6.9406,6.9406,6.9406,6.9406,6.9406,6.9406,6.9406,6.9406,6.9406,6.9406,6.9406,6.9406,6.9406,6.9406,6.9406,6.9406,6.9406,6.9406,6.9406,6.9406,6.9803,7.0401,7.093,7.146,7.2012,7.2541,7.2717,7.2717,7.2717,7.2621,7.1333,6.5985,6.0682,5.6689,5.6609,5.6609,5.6609,5.6609,5.6609,5.6609,5.6609,5.6609,5.6609,5.6609,5.6609,5.6609,5.6609,5.6609,5.6609,5.6609,5.6609,5.6609,5.6609,5.6609,5.6609,5.6609,5.6609,5.6609,5.6609,5.6609,5.6609,5.6609,5.6609,5.6609,5.6609,5.6609,5.6609,5.6609,5.6609,5.6609,5.6609,5.6609,5.6609,5.1925,0.0,0.0,0.0,0.0,0.0,5.7549,5.8127,5.8604,5.9533,5.9734,5.9734,5.9734,5.9734,5.991,6.0462,6.0563,6.0939,6.2049,6.2225,6.2375,6.2752,6.2802,6.2802,6.2802,6.2802,6.2802,0.0,6.3726,6.4325,6.4496,6.6158,6.7317,6.7794,6.8701,6.9255,6.9406,6.9406,6.9406,6.9406,6.9406,6.9406,6.9406,6.9406,6.9406,6.9406,6.9406,6.9406,6.9406,6.9406,6.9406,6.9406,6.9406,6.9406,6.9406,6.9406,6.9406,6.9406,6.9406,6.9803,7.0401,7.093,7.146,7.2012,7.2541,7.2717,7.2717,7.2717,7.1309,6.8554,6.3138,6.0609,5.9,5.7069,5.6609,5.6609,5.6609,5.6609,5.6609,5.6609,5.6609,5.6609,5.6609,5.6609,5.6609,5.6609,5.6609,5.6609,5.6609,5.6609,5.6609,5.6609,5.6609,5.6609,5.6609,5.6609,5.6609,5.6609,5.6609,5.6609,5.6609,5.6609,5.6609,5.6609,5.6609,5.6609,5.6609,5.6609,5.6609,5.6609,5.6609,5.6609,5.2159,5.2711,5.349,5.4077,0.0,0.0,5.6922,5.7725,5.8478,5.9332,5.9684,5.9834,5.9834,5.9834,5.996,6.0242,6.0292,6.0618,6.1542,6.1667,6.1868,6.24,6.2476,6.2551,6.2777,6.2802,6.2802,6.2802,6.3651,6.435,6.4802,6.651,6.7568,6.7794,6.8851,6.9406,6.9406,6.9406,6.9406,6.9406,6.9406,6.9406,6.9406,6.9406,6.9406,6.9406,6.9406,6.9406,6.9406,6.9406,6.9406,6.9406,6.9406,6.9406,6.9406,6.9406,6.9406,6.9406,6.9406,6.993,7.0679,7.1006,7.161,7.229,7.2616,7.2717,7.2717,7.2717,6.9962,6.6037,6.1725,5.9771,5.8526,5.6963,5.6609,5.6609,5.6609,5.6609,5.6609,5.6609,5.6609,5.6609,5.6609,5.6609,5.6609,5.6609,5.6609,5.6609,5.6609,5.6609,5.6609,5.6609,5.6609,5.6609,5.6609,5.6609,5.6609,5.6609,5.6609,5.6609,5.6609,5.6609,5.6609,5.6609,5.6609,5.6609,5.6609,5.6609,5.6609,5.6609,5.6609,5.6609,5.2335,5.2536,5.2995,5.349,5.4411,0.0,5.5968,5.7305,5.8585,5.9207,5.9759,6.0116,6.0116,6.0217,6.0292,6.0292,6.0292,6.0518,6.121,6.1235,6.1411,6.1943,6.1943,6.2119,6.2651,6.2727,6.2752,6.2802,6.3375,6.4153,6.5233,6.6384,6.7263,6.7769,6.8851,6.9406,6.9406,6.9406,6.9406,6.9406,6.9406,6.9406,6.9406,6.9406,6.9406,6.9406,6.9406,6.9406,6.9406,6.9406,6.9406,6.9406,6.9406,6.9406,6.9406,6.9406,6.9406,6.9406,6.9406,7.0131,7.1106,7.1106,7.1836,7.2717,7.2717,7.2717,7.2621,7.236,6.8602,6.4075,6.1313,5.8605,5.6609,5.6609,5.6609,5.6609,5.6609,5.6609,5.6609,5.6609,5.6609,5.6609,5.6609,5.6609,5.6609,5.6609,5.6609,5.6609,5.6609,5.6609,5.6609,5.6609,5.6609,5.6609,5.6609,5.6609,5.6609,5.6609,5.6609,5.6609,5.6609,5.6609,5.6609,5.6609,5.6609,5.6609,5.6609,5.6609,5.6609,5.6609,5.6609,5.6609,0.0,0.0,0.0,0.0,0.0,0.0,5.5315,5.6143,5.6997,5.8001,5.8654,5.9012,5.9012,5.9714,6.0292,6.0292,6.0292,6.0643,6.1692,6.1466,6.1411,6.1943,6.1617,6.1567,6.2099,6.2149,6.2325,6.2777,6.3375,6.4153,6.5233,6.6384,6.7263,6.7769,6.8851,6.9406,6.9406,6.9406,6.9406,6.9406,6.9406,6.9406,6.9406,6.9406,6.9406,6.9406,6.9406,6.9406,6.9406,6.9406,6.9406,6.9406,6.9406,6.9406,6.9406,6.9406,6.9406,6.9406,6.9406,7.0131,7.1106,7.1106,7.1836,7.2717,7.2717,7.2717,7.224,7.0107,6.7177,6.4075,6.1313,5.8605,5.6609,5.6609,5.6609,5.6609,5.6609,5.6609,5.6609,5.6609,5.6609,5.6609,5.6609,5.6609,5.6609,5.6609,5.6609,5.6609,5.6609,5.6609,5.6609,5.6609,5.6609,5.6609,5.6609,5.6609,5.6609,5.6609,5.6609,5.6609,5.6609,5.6609,5.6609,5.6609,5.6609,5.6609,5.6609,5.6609,5.6609,5.6609,5.6609,5.6609,0.0,0.0,0.0,5.2895,0.0,0.0,0.0,5.5415,5.6351,5.6947,5.7725,5.8384,5.866,5.9137,5.9689,6.0217,6.0292,6.0693,6.1843,6.1291,6.1065,6.1893,6.1768,6.1818,6.235,6.24,6.2501,6.2777,6.3375,6.4048,6.4852,6.6234,6.7263,6.7769,6.8851,6.9406,6.9406,6.9406,6.9406,6.9406,6.9406,6.9406,6.9406,6.9406,6.9406,6.9406,6.9406,6.9406,6.9406,6.9406,6.9406,6.9406,6.9406,6.9406,6.9406,6.9406,6.9406,6.9406,6.9406,7.0131,7.1106,7.1106,7.1836,7.2717,7.2717,7.2717,7.1859,6.7843,6.5738,6.3771,5.9661,5.7608,5.6609,5.6609,5.6609,5.6609,5.6609,5.6609,5.6609,5.6609,5.6609,5.6609,5.6609,5.6609,5.6609,5.6609,5.6609,5.6609,5.6609,5.6609,5.6609,5.6609,5.6609,5.6609,5.6609,5.6609,5.6609,5.6609,5.6609,5.6609,5.6609,5.6609,5.6609,5.6609,5.6609,5.6609,5.6609,5.6609,5.6609,5.6609,5.6609,5.6609,0.0,0.0,0.0,0.0,0.0,5.3565,0.0,0.0,0.0,5.5867,5.6796,5.77,5.8133,5.8485,5.8936,5.9714,6.0016,6.0468,6.1391,6.0839,6.0769,6.2019,6.1969,6.2094,6.2752,6.3003,6.3078,6.2978,6.3626,6.4199,6.4626,6.6133,6.7263,6.7769,6.8851,6.9406,6.9406,6.9406,6.9406,6.9406,6.9406,6.9406,6.9406,6.9406,6.9406,6.9406,6.9406,6.9406,6.9406,6.9406,6.9406,6.9406,6.9406,6.9406,6.9406,6.9406,6.9406,6.9406,6.9406,7.0131,7.1106,7.1106,7.1836,7.2717,7.2717,7.236,7.0926,6.606,6.4328,6.2777,5.7853,5.6609,5.6609,5.6609,5.6609,5.6609,5.6609,5.6609,5.6609,5.6609,5.6609,5.6609,5.6609,5.6609,5.6609,5.6609,5.6609,5.6609,5.6609,5.6609,5.6609,5.6609,5.6609,5.6609,5.6609,5.6609,5.6609,5.6609,5.6609,5.6609,5.6609,5.6609,5.6609,5.6609,5.6609,5.6609,5.6609,5.6609,5.6609,5.6609,5.6609,5.6609,0.0,0.0,0.0,0.0,5.3289,0.0,0.0,0.0,0.0,0.0,0.0,5.6401,5.6477,0.0,0.0,5.8227,5.8981,5.9633,5.9759,6.0085,6.0894,6.2526,6.1868,6.1692,6.2701,6.3701,6.4099,6.3626,6.453,6.5132,6.5204,6.6359,6.7263,6.7769,6.8851,6.9406,6.9406,6.9406,6.9406,6.9406,6.9406,6.9406,6.9406,6.9406,6.9406,6.9406,6.9406,6.9406,6.9406,6.9406,6.9406,6.9406,6.9406,6.9406,6.9406,6.9406,6.9406,6.9406,6.9406,7.0131,7.1106,7.1106,7.1836,7.2717,7.2717,7.1022,6.8529,6.5538,6.2956,6.0375,5.7369,5.6609,5.6609,5.6609,5.6609,5.6609,5.6609,5.6609,5.6609,5.6609,5.6609,5.6609,5.6609,5.6609,5.6609,5.6609,5.6609,5.6609,5.6609,5.6609,5.6609,5.6609,5.6609,5.6609,5.6609,5.6609,5.6609,5.6609,5.6609,5.6609,5.6609,5.6609,5.6609,5.6609,5.6609,5.6609,5.6609,5.6609,5.6609,5.6609,5.6609,5.6609,0.0,0.0,0.0,0.0,0.0,0.0,0.0,0.0,5.4278,0.0,0.0,0.0,0.0,0.0,0.0,0.0,5.8052,5.8679,5.9006,5.9238,6.0116,6.2099,6.1943,0.0,6.2727,6.3827,6.4124,6.3229,6.4781,6.5484,6.4877,6.651,6.7568,6.7794,6.8851,6.9406,6.9406,6.9406,6.9406,6.9406,6.9406,6.9406,6.9406,6.9406,6.9406,6.9406,6.9406,6.9406,6.9406,6.9406,6.9406,6.9406,6.9406,6.9406,6.9406,6.9406,6.9406,6.9456,6.9803,7.043,7.1184,7.1836,7.2315,7.2717,7.2717,7.083,6.8138,6.5438,6.2726,5.9979,5.7289,5.6609,5.6609,5.6609,5.6609,5.6609,5.6609,5.6609,5.6609,5.6609,5.6609,5.6609,5.6609,5.6609,5.6609,5.6609,5.6609,5.6609,5.6609,5.6609,5.6609,5.6609,5.6609,5.6609,5.6609,5.6609,5.6609,5.6609,5.6609,5.6609,5.6609,5.6609,5.6609,5.6609,5.6609,5.6609,5.6609,5.6609,5.6609,5.6609,5.6609,5.6609,5.7757,0.0,0.0,0.0,0.0,0.0,0.0,0.0,0.0,0.0,0.0,0.0,0.0,0.0,0.0,0.0,0.0,5.7474,5.7575,5.7957,5.9112,6.1492,6.2044,6.2375,0.0,6.3952,6.4325,6.335,6.5183,6.586,6.4777,6.6686,6.7794,6.7794,6.8851,6.9406,6.9406,6.9406,6.9406,6.9406,6.9406,6.9406,6.9406,6.9406,6.9406,6.9406,6.9406,6.9406,6.9406,6.9406,6.9406,6.9406,6.9406,6.9406,6.9406,6.9406,6.9481,6.9705,7.0152,7.0755,7.146,7.239,7.2717,7.2717,7.2717,7.083,6.8138,6.5438,6.2726,5.9979,5.7289,5.6609,5.6609,5.6609,5.6609,5.6609,5.6609,5.6609,5.6609,5.6609,5.6609,5.6609,5.6609,5.6609,5.6609,5.6609,5.6609,5.6609,5.6609,5.6609,5.6609,5.6609,5.6609,5.6609,5.6609,5.6609,5.6609,5.6609,5.6465,5.6465,5.6582,5.6609,5.6609,5.6609,5.6609,5.6609,5.6609,5.6609,5.6609,5.6609,5.6609,5.6609,0.0,0.0,0.0,5.7675,0.0,0.0,0.0,0.0,5.5232,0.0,0.0,0.0,0.0,0.0,0.0,0.0,0.0,0.0,0.0,5.6068,5.8108,6.0909,6.2124,6.2802,0.0,6.4304,6.5053,0.0,6.6007,6.6485,6.5354,6.689,6.7794,6.7794,6.8851,6.9406,6.9406,6.9406,6.9406,6.9406,6.9406,6.9406,6.9406,6.9406,6.9406,6.9406,6.9406,6.9406,6.9406,6.9406,6.9406,6.9406,6.9406,6.9406,6.9406,6.9406,6.9777,7.0275,7.03,7.0981,7.1987,7.2516,7.2717,7.2717,7.2717,7.083,6.8138,6.5438,6.2726,5.9979,5.7289,5.6609,5.6609,5.6609,5.6609,5.6609,5.6609,5.6609,5.6609,5.6609,5.6609,5.6609,5.6609,5.6609,5.6609,5.6609,5.6609,5.6609,5.6609,5.6609,5.6609,5.6609,5.6609,5.6609,5.6609,5.6609,5.6609,5.6609,5.6165,5.6126,5.6562,5.6609,5.6609,5.6609,5.6609,5.6609,5.6609,5.6609,5.6609,5.6609,5.6609,5.6609,0.0,0.0,5.9137,5.9006,0.0,0.0,0.0,0.0,0.0,0.0,0.0,0.0,0.0,0.0,0.0,0.0,0.0,0.0,0.0,5.5666,5.6828,5.7775,5.9815,6.1446,6.2199,6.3797,0.0,6.345,6.5258,6.5932,6.4827,6.5986,6.7015,6.7769,6.85,6.9029,6.9406,6.9406,6.9406,6.9406,6.9406,6.9406,6.9406,6.9406,6.9406,6.9406,6.9406,6.9406,6.9431,6.9828,6.9978,7.0029,7.038,7.0531,7.048,7.0129,7.0127,7.0378,7.1131,7.1836,7.2466,7.2641,7.2717,7.2384,7.0589,6.8162,6.5488,6.273,6.0032,5.7747,5.6849,5.6609,5.6609,5.6609,5.6609,5.6609,5.6609,5.6609,5.6609,5.6609,5.6609,5.6609,5.6609,5.6609,5.6609,5.6609,5.6609,5.6609,5.6609,5.6609,5.6609,5.6609,5.6609,5.6609,5.6609,5.6328,5.6269,5.6562,5.6145,5.6106,5.6562,5.6609,5.6609,5.6609,5.6609,5.6609,5.6609,5.6609,5.6609,5.6609,5.6609,5.6609,6.1517,6.1065,0.0,6.0437,6.0085,0.0,5.9351,0.0,0.0,0.0,0.0,0.0,0.0,0.0,0.0,0.0,0.0,0.0,0.0,5.5308,5.5842,5.6426,5.856,6.0462,6.1592,6.3023,6.3751,6.3425,6.4731,6.5308,6.4802,6.5609,6.6517,6.7467,6.8224,6.8776,6.9105,6.9306,6.9406,6.9406,6.9406,6.9406,6.9406,6.9406,6.9406,6.9406,6.9406,6.9406,6.9456,7.0051,7.03,7.035,7.088,7.1106,7.1056,7.0704,7.0704,7.1006,7.1887,7.2415,7.2717,7.2717,7.2717,7.2193,6.9527,6.7475,6.5362,6.1648,5.9373,5.78,5.6849,5.6609,5.6609,5.6609,5.6609,5.6609,5.6609,5.6609,5.6609,5.6609,5.6609,5.6609,5.6609,5.6609,5.6609,5.6609,5.6609,5.6609,5.6609,5.6609,5.6609,5.6609,5.6609,5.6609,5.6609,5.6055,5.593,5.6543,5.6035,5.595,5.6562,5.6609,5.6504,5.6348,5.6504,5.6504,5.6348,5.6504,5.6609,5.6609,5.6609,5.6609]},{"header":{"parameterUnit":"m.s-1","parameterCategory":1,"la1":30.6,"la2":29.2853,"lo1":-89.7004,"lo2":-87.6739,"dx":0.0162,"dy":0.0183,"nx":112,"ny":82,"refTime":"2022-12-17T06:00:00:Z","depth":0,"parameterNumber":3,"parameterNumberName":"V-component_of_WINDS"},"data":[0.0,0.0,0.0,0.0,0.0,0.0,0.0,0.0,0.0,0.0,0.0,0.0,0.0,0.0,0.0,0.0,0.0,0.0,0.0,0.0,0.0,0.0,0.0,0.0,0.0,0.0,0.0,0.0,0.0,0.0,0.0,0.0,0.0,0.0,0.0,0.0,0.0,0.0,0.0,0.0,0.0,0.0,0.0,0.0,0.0,0.0,0.0,0.0,0.0,0.0,0.0,0.0,0.0,0.0,0.0,0.0,0.0,0.0,0.0,0.0,0.0,0.0,0.0,0.0,0.0,0.0,0.0,0.0,0.0,0.0,0.0,0.0,0.0,0.0,0.0,0.0,0.0,0.0,0.0,0.0,0.0,0.0,0.0,0.0,0.0,0.0,0.0,0.0,0.0,0.0,0.0,4.3603,4.5372,4.6512,4.6436,4.5999,4.4543,4.1729,0.0,0.0,0.0,0.0,0.0,0.0,0.0,0.0,0.0,0.0,0.0,0.0,0.0,0.0,0.0,0.0,0.0,0.0,0.0,0.0,0.0,0.0,0.0,0.0,0.0,0.0,0.0,0.0,0.0,0.0,0.0,0.0,0.0,0.0,0.0,0.0,0.0,0.0,0.0,0.0,0.0,0.0,0.0,0.0,0.0,0.0,0.0,0.0,0.0,0.0,0.0,0.0,0.0,0.0,0.0,0.0,0.0,0.0,0.0,0.0,0.0,0.0,0.0,0.0,0.0,0.0,0.0,0.0,0.0,0.0,0.0,0.0,0.0,0.0,0.0,0.0,0.0,0.0,0.0,0.0,0.0,0.0,0.0,0.0,0.0,0.0,0.0,0.0,0.0,0.0,0.0,0.0,0.0,0.0,0.0,0.0,0.0,0.0,0.0,0.0,0.0,0.0,0.0,0.0,4.4392,4.6286,4.7189,4.7465,4.7023,4.6898,4.5683,4.2925,0.0,0.0,0.0,0.0,0.0,0.0,0.0,0.0,0.0,0.0,0.0,0.0,0.0,0.0,0.0,0.0,0.0,0.0,0.0,0.0,0.0,0.0,0.0,0.0,0.0,0.0,0.0,0.0,0.0,0.0,0.0,0.0,0.0,0.0,0.0,0.0,0.0,0.0,0.0,0.0,0.0,0.0,0.0,0.0,0.0,0.0,0.0,0.0,0.0,0.0,0.0,0.0,0.0,0.0,0.0,0.0,0.0,0.0,0.0,0.0,0.0,0.0,0.0,0.0,0.0,0.0,0.0,0.0,0.0,0.0,0.0,0.0,0.0,0.0,0.0,0.0,0.0,0.0,0.0,0.0,0.0,0.0,0.0,0.0,0.0,0.0,0.0,0.0,0.0,0.0,0.0,0.0,0.0,0.0,0.0,0.0,0.0,0.0,0.0,0.0,0.0,0.0,0.0,4.4252,4.621,4.7857,4.8234,4.83,4.8033,4.7716,4.6486,4.4016,4.399,0.0,0.0,0.0,0.0,0.0,0.0,0.0,0.0,0.0,0.0,0.0,0.0,0.0,0.0,0.0,0.0,0.0,0.0,0.0,0.0,0.0,0.0,0.0,0.0,0.0,0.0,0.0,0.0,0.0,0.0,0.0,0.0,0.0,0.0,0.0,0.0,0.0,0.0,0.0,0.0,0.0,0.0,0.0,0.0,0.0,0.0,0.0,0.0,0.0,0.0,0.0,0.0,0.0,0.0,0.0,0.0,0.0,0.0,0.0,0.0,0.0,0.0,0.0,0.0,0.0,0.0,0.0,0.0,0.0,0.0,0.0,0.0,0.0,0.0,0.0,0.0,0.0,0.0,0.0,0.0,0.0,0.0,0.0,0.0,0.0,0.0,0.0,0.0,0.0,0.0,0.0,0.0,0.0,0.0,0.0,0.0,0.0,0.0,0.0,0.0,0.0,0.0,4.6386,4.7867,4.8878,4.8978,4.8978,4.8978,4.856,4.7365,4.5156,4.5116,0.0,0.0,0.0,0.0,0.0,0.0,0.0,0.0,0.0,0.0,0.0,0.0,0.0,0.0,0.0,0.0,0.0,0.0,0.0,0.0,0.0,0.0,0.0,0.0,0.0,0.0,0.0,0.0,0.0,0.0,0.0,0.0,0.0,0.0,0.0,0.0,0.0,0.0,0.0,0.0,0.0,0.0,0.0,0.0,0.0,0.0,0.0,0.0,0.0,0.0,0.0,0.0,0.0,0.0,0.0,0.0,0.0,0.0,0.0,0.0,0.0,0.0,0.0,0.0,0.0,0.0,0.0,0.0,0.0,0.0,0.0,0.0,0.0,0.0,0.0,0.0,0.0,0.0,0.0,0.0,0.0,0.0,0.0,0.0,0.0,0.0,0.0,0.0,0.0,0.0,0.0,0.0,0.0,0.0,0.0,0.0,0.0,0.0,0.0,0.0,0.0,0.0,4.7346,4.8903,4.948,4.954,4.954,4.954,4.949,4.8535,4.6311,4.6305,0.0,0.0,0.0,0.0,0.0,0.0,0.0,0.0,0.0,0.0,0.0,0.0,0.0,0.0,0.0,0.0,0.0,0.0,0.0,0.0,0.0,0.0,0.0,0.0,0.0,0.0,0.0,0.0,0.0,0.0,0.0,0.0,0.0,0.0,0.0,0.0,0.0,0.0,0.0,0.0,0.0,0.0,0.0,0.0,0.0,0.0,0.0,0.0,0.0,0.0,0.0,0.0,0.0,0.0,0.0,0.0,0.0,0.0,0.0,0.0,0.0,0.0,0.0,0.0,0.0,0.0,0.0,0.0,0.0,0.0,0.0,0.0,0.0,0.0,0.0,0.0,0.0,0.0,0.0,0.0,0.0,0.0,0.0,0.0,0.0,0.0,0.0,0.0,0.0,0.0,0.0,0.0,0.0,0.0,0.0,0.0,0.0,0.0,0.0,0.0,0.0,0.0,4.7421,4.9296,0.0,5.0017,4.9907,5.0611,5.0318,4.972,4.8786,0.0,0.0,0.0,0.0,0.0,0.0,0.0,0.0,0.0,0.0,0.0,0.0,0.0,0.0,0.0,0.0,0.0,0.0,0.0,0.0,0.0,0.0,0.0,0.0,0.0,0.0,0.0,0.0,0.0,0.0,0.0,0.0,0.0,0.0,0.0,0.0,0.0,0.0,0.0,0.0,0.0,0.0,0.0,0.0,0.0,0.0,0.0,0.0,0.0,0.0,0.0,0.0,0.0,0.0,0.0,0.0,0.0,0.0,0.0,0.0,0.0,0.0,0.0,0.0,0.0,0.0,0.0,0.0,0.0,0.0,0.0,0.0,0.0,0.0,0.0,0.0,0.0,0.0,0.0,0.0,0.0,0.0,0.0,0.0,0.0,0.0,0.0,0.0,0.0,0.0,0.0,0.0,0.0,0.0,0.0,0.0,0.0,0.0,0.0,0.0,0.0,0.0,4.6557,4.8687,5.0502,0.0,5.0519,5.0521,5.2203,5.1802,5.1405,5.1261,0.0,0.0,0.0,0.0,0.0,0.0,0.0,0.0,0.0,0.0,0.0,0.0,0.0,0.0,0.0,0.0,0.0,0.0,0.0,0.0,0.0,0.0,0.0,0.0,0.0,0.0,0.0,0.0,0.0,0.0,0.0,0.0,0.0,0.0,0.0,0.0,0.0,0.0,0.0,0.0,0.0,0.0,0.0,0.0,0.0,0.0,0.0,0.0,0.0,0.0,0.0,0.0,0.0,0.0,0.0,0.0,0.0,0.0,0.0,0.0,0.0,0.0,0.0,0.0,0.0,0.0,0.0,0.0,0.0,0.0,0.0,0.0,0.0,0.0,0.0,0.0,0.0,0.0,0.0,0.0,0.0,0.0,0.0,0.0,0.0,0.0,0.0,0.0,0.0,0.0,0.0,0.0,0.0,0.0,0.0,0.0,0.0,0.0,0.0,0.0,0.0,0.0,4.9303,5.1461,5.2803,5.2228,5.1146,5.1609,5.4431,5.416,5.3753,0.0,0.0,0.0,0.0,0.0,0.0,0.0,0.0,0.0,0.0,0.0,0.0,0.0,0.0,0.0,0.0,0.0,0.0,0.0,0.0,0.0,0.0,0.0,0.0,0.0,0.0,0.0,0.0,0.0,0.0,0.0,0.0,0.0,0.0,0.0,0.0,0.0,0.0,0.0,0.0,0.0,0.0,0.0,0.0,0.0,0.0,0.0,0.0,0.0,0.0,0.0,0.0,0.0,0.0,0.0,0.0,0.0,0.0,0.0,0.0,0.0,0.0,0.0,0.0,0.0,0.0,0.0,0.0,0.0,0.0,0.0,0.0,0.0,0.0,0.0,0.0,0.0,0.0,0.0,0.0,0.0,0.0,0.0,0.0,0.0,0.0,0.0,0.0,0.0,0.0,0.0,0.0,0.0,0.0,0.0,0.0,0.0,0.0,0.0,0.0,0.0,0.0,0.0,5.142,5.2773,5.4432,5.6704,5.5534,5.5594,5.8177,5.7045,5.6658,5.767,0.0,0.0,0.0,0.0,0.0,0.0,0.0,0.0,0.0,0.0,0.0,0.0,0.0,0.0,0.0,0.0,0.0,0.0,0.0,0.0,0.0,0.0,0.0,0.0,0.0,0.0,0.0,0.0,0.0,0.0,0.0,0.0,0.0,0.0,0.0,0.0,0.0,0.0,0.0,0.0,0.0,0.0,0.0,0.0,0.0,0.0,0.0,0.0,0.0,0.0,0.0,0.0,0.0,0.0,0.0,0.0,0.0,0.0,0.0,0.0,0.0,0.0,0.0,0.0,0.0,0.0,0.0,0.0,0.0,0.0,0.0,0.0,0.0,0.0,0.0,0.0,0.0,0.0,0.0,0.0,0.0,0.0,0.0,0.0,0.0,0.0,0.0,0.0,0.0,0.0,0.0,0.0,0.0,0.0,0.0,0.0,0.0,0.0,0.0,0.0,0.0,0.0,5.4457,5.5773,5.7288,5.9195,5.8206,5.8295,6.0421,5.9808,5.9552,6.0107,0.0,0.0,0.0,0.0,0.0,0.0,0.0,0.0,0.0,0.0,0.0,0.0,0.0,0.0,0.0,0.0,0.0,0.0,0.0,0.0,0.0,0.0,0.0,0.0,0.0,0.0,0.0,0.0,0.0,0.0,0.0,0.0,0.0,0.0,0.0,0.0,0.0,0.0,0.0,0.0,0.0,0.0,0.0,0.0,0.0,0.0,0.0,0.0,0.0,0.0,0.0,0.0,0.0,0.0,0.0,0.0,0.0,0.0,0.0,0.0,0.0,0.0,0.0,0.0,0.0,0.0,0.0,0.0,0.0,0.0,0.0,0.0,0.0,0.0,0.0,0.0,0.0,0.0,0.0,0.0,0.0,0.0,0.0,0.0,0.0,0.0,0.0,0.0,0.0,0.0,0.0,0.0,0.0,0.0,0.0,0.0,0.0,0.0,0.0,0.0,0.0,0.0,5.7843,5.949,6.066,6.0554,6.0022,6.03,6.1959,6.2502,6.2371,6.1514,0.0,0.0,0.0,0.0,0.0,0.0,0.0,0.0,0.0,0.0,0.0,0.0,0.0,0.0,0.0,0.0,0.0,0.0,0.0,0.0,0.0,0.0,0.0,0.0,0.0,0.0,0.0,0.0,0.0,0.0,0.0,0.0,0.0,0.0,0.0,0.0,0.0,0.0,0.0,0.0,0.0,0.0,0.0,0.0,0.0,0.0,0.0,0.0,0.0,0.0,0.0,0.0,0.0,0.0,0.0,0.0,0.0,0.0,0.0,0.0,4.3341,0.0,0.0,0.0,0.0,0.0,0.0,0.0,0.0,0.0,0.0,0.0,0.0,0.0,0.0,0.0,0.0,0.0,0.0,0.0,0.0,0.0,0.0,0.0,0.0,0.0,0.0,0.0,0.0,0.0,0.0,0.0,0.0,0.0,0.0,0.0,0.0,0.0,0.0,0.0,0.0,0.0,5.9284,6.0136,6.1626,6.4426,6.4135,6.4508,6.6431,6.5302,6.4383,6.4172,6.2735,0.0,0.0,0.0,0.0,0.0,0.0,0.0,0.0,0.0,0.0,0.0,0.0,0.0,0.0,0.0,0.0,0.0,0.0,0.0,0.0,0.0,0.0,0.0,0.0,0.0,0.0,0.0,0.0,0.0,0.0,0.0,0.0,0.0,0.0,0.0,0.0,0.0,0.0,0.0,0.0,0.0,0.0,0.0,0.0,0.0,0.0,0.0,0.0,0.0,0.0,0.0,0.0,0.0,0.0,0.0,0.0,0.0,0.0,0.0,0.0,4.4091,0.0,0.0,0.0,0.0,0.0,0.0,0.0,0.0,0.0,0.0,0.0,0.0,0.0,0.0,0.0,0.0,0.0,0.0,0.0,0.0,0.0,0.0,0.0,0.0,0.0,0.0,0.0,0.0,0.0,0.0,0.0,0.0,0.0,0.0,0.0,0.0,0.0,0.0,0.0,0.0,6.1229,6.2203,6.3768,6.6653,6.664,6.6729,6.7463,6.6849,6.6041,6.5054,6.4052,0.0,0.0,0.0,0.0,0.0,0.0,0.0,0.0,0.0,0.0,0.0,0.0,0.0,0.0,0.0,0.0,0.0,0.0,0.0,0.0,0.0,0.0,0.0,0.0,0.0,0.0,0.0,0.0,0.0,0.0,0.0,0.0,0.0,0.0,0.0,0.0,0.0,0.0,0.0,0.0,0.0,0.0,0.0,0.0,0.0,0.0,0.0,0.0,0.0,0.0,0.0,0.0,0.0,4.7039,4.7214,4.7826,4.7826,4.8444,4.9455,4.852,4.734,4.5989,4.4945,0.0,0.0,0.0,0.0,0.0,0.0,0.0,0.0,0.0,0.0,0.0,0.0,0.0,0.0,0.0,0.0,0.0,0.0,0.0,0.0,0.0,0.0,5.0397,4.999,5.1011,5.1111,4.7593,0.0,0.0,0.0,0.0,0.0,0.0,0.0,0.0,0.0,0.0,0.0,6.2868,6.4291,6.5906,6.7808,6.8107,6.8002,6.7553,6.7912,6.7373,6.5488,6.5368,6.4411,0.0,0.0,0.0,0.0,0.0,0.0,0.0,0.0,0.0,0.0,0.0,0.0,0.0,0.0,0.0,0.0,0.0,0.0,0.0,0.0,0.0,0.0,0.0,0.0,0.0,0.0,0.0,0.0,0.0,0.0,0.0,0.0,3.9998,4.0061,0.0,0.0,0.0,0.0,0.0,0.0,0.0,0.0,0.0,0.0,0.0,0.0,0.0,4.6035,4.6873,4.7265,4.7832,4.8576,4.8978,4.9715,5.0761,5.0761,5.1348,5.236,5.2209,0.0,4.83,4.7631,0.0,0.0,0.0,0.0,0.0,0.0,0.0,0.0,0.0,0.0,0.0,0.0,0.0,0.0,0.0,0.0,0.0,0.0,0.0,0.0,0.0,0.0,5.4536,5.4573,5.5122,5.5624,5.5639,5.3499,5.1706,5.2109,5.4276,0.0,0.0,0.0,0.0,0.0,0.0,0.0,6.2988,6.4725,6.643,6.7868,6.8511,6.9079,6.9558,6.9153,6.8256,6.6819,6.6729,6.5592,6.3063,6.2301,0.0,0.0,0.0,0.0,0.0,0.0,0.0,0.0,0.0,0.0,0.0,0.0,0.0,0.0,0.0,0.0,0.0,0.0,0.0,0.0,0.0,0.0,0.0,0.0,0.0,0.0,0.0,0.0,0.0,3.9258,4.0261,4.0876,4.0487,4.0501,0.0,0.0,0.0,0.0,0.0,0.0,0.0,0.0,0.0,4.7139,4.7531,4.8275,4.9464,4.969,5.0092,5.0645,5.0586,5.0971,5.1749,5.1749,5.2176,5.287,5.2586,5.1933,5.1046,5.0167,4.9163,4.8109,0.0,0.0,0.0,0.0,4.6361,4.6853,4.6853,4.7069,4.7396,4.7622,0.0,0.0,0.0,0.0,0.0,0.0,0.0,5.4527,5.5735,5.6903,5.799,5.8805,5.9174,5.9757,6.1301,5.9535,5.7482,5.6758,5.7353,5.8182,5.8847,0.0,0.0,0.0,0.0,6.3558,6.462,6.5802,6.7208,6.893,6.9379,6.9678,6.9977,6.9738,6.899,6.7643,6.6849,6.5772,6.4246,6.2839,6.1672,0.0,0.0,0.0,0.0,0.0,0.0,0.0,0.0,0.0,0.0,0.0,0.0,0.0,0.0,0.0,0.0,0.0,0.0,0.0,0.0,0.0,0.0,0.0,0.0,0.0,0.0,0.0,0.0,4.0137,4.1153,4.2244,4.2019,4.2233,0.0,0.0,0.0,0.0,0.0,0.0,4.7089,4.6768,4.7355,4.9122,4.948,5.0309,5.1699,5.1565,5.1774,5.2285,5.19,5.1975,5.2528,5.2528,5.2829,5.3314,5.2904,5.298,5.3239,5.2,5.0996,5.0193,4.9807,4.928,4.8736,4.8319,4.8419,4.8761,4.8761,4.933,5.0019,4.9565,5.0695,5.2218,5.2197,0.0,0.0,0.0,0.0,5.7399,5.9441,6.0248,6.0908,6.2236,6.2528,6.3036,6.486,6.3843,6.2207,6.1025,6.0282,6.0398,6.2279,0.0,0.0,0.0,0.0,6.5203,6.637,6.7254,6.8331,6.9828,7.0127,7.0306,7.0456,7.0336,6.9738,6.8571,6.7418,6.6295,6.5293,6.3693,6.269,6.2375,0.0,0.0,0.0,0.0,0.0,0.0,0.0,0.0,0.0,0.0,0.0,0.0,0.0,0.0,0.0,0.0,0.0,0.0,0.0,0.0,0.0,0.0,0.0,0.0,0.0,0.0,0.0,0.0,0.0,4.516,4.5261,0.0,0.0,0.0,0.0,4.616,4.6235,4.7205,4.9314,4.9414,5.0377,5.2586,5.2184,5.2226,5.2795,5.231,5.2335,5.2845,5.282,5.3113,5.3607,5.3607,5.3951,5.4522,5.4496,5.4496,5.4396,5.2729,5.2026,5.1975,5.195,5.1599,5.1138,5.1088,5.1113,5.1138,5.1138,5.2198,5.3295,5.1675,5.2895,5.528,5.6789,5.8399,0.0,0.0,5.9239,6.0791,6.0686,6.1792,6.3247,6.4531,6.483,6.5039,6.5802,6.5368,6.4621,6.3919,6.3276,6.3096,6.3797,0.0,6.4366,6.5652,6.643,6.7104,6.7808,6.9049,6.9887,6.9977,7.05,7.1098,7.1743,7.1218,7.059,6.9947,6.9243,6.7986,6.6026,6.5233,6.4291,6.3063,6.3018,0.0,0.0,0.0,0.0,0.0,0.0,0.0,0.0,0.0,0.0,0.0,0.0,0.0,0.0,0.0,0.0,0.0,0.0,0.0,0.0,0.0,0.0,0.0,0.0,0.0,0.0,0.0,0.0,4.5974,4.6311,0.0,4.7541,4.7933,4.836,4.8896,4.9615,5.0393,5.1172,5.1222,5.1574,5.236,5.2879,5.3231,5.3414,5.3625,5.3801,5.4002,5.4336,5.4787,5.5322,5.5673,5.615,5.6714,5.6319,5.5968,5.5541,5.4612,5.3783,5.313,5.313,5.2804,5.2335,5.2335,5.3054,5.4018,5.3562,5.458,5.6057,5.6061,5.6684,5.7822,5.9871,6.1217,6.2006,6.1802,6.2643,6.3695,6.4009,6.4859,6.5937,6.7268,6.7897,6.8405,6.9034,6.8675,6.8136,6.7912,6.5951,6.4545,6.5173,6.5652,6.64,6.7747,6.8495,6.9169,6.9798,7.026,7.056,7.056,7.0769,7.1158,7.1833,7.1278,7.0799,7.059,6.9169,6.7852,6.67,6.5577,6.48,6.4321,6.4755,6.4186,0.0,0.0,0.0,0.0,0.0,0.0,0.0,0.0,0.0,0.0,0.0,0.0,0.0,0.0,0.0,0.0,0.0,0.0,0.0,0.0,0.0,0.0,0.0,0.0,0.0,0.0,4.6436,4.6788,4.749,4.8143,4.8695,4.9615,5.0393,5.0929,5.1657,5.2277,5.2628,5.2653,5.2729,5.2947,5.3808,5.4361,5.4536,5.5114,5.5509,5.5709,5.6086,5.676,5.7685,5.7217,5.7594,5.8539,5.7896,5.708,5.6205,5.647,5.5779,5.4511,5.4135,5.4159,5.4372,5.4372,5.5543,5.7102,5.7232,5.7676,5.8448,5.9983,6.0105,5.9972,6.1857,6.2884,6.3542,6.4156,6.4829,6.5547,6.643,6.7014,6.7613,6.8734,6.9333,6.9752,7.0171,6.9931,6.9678,6.9678,6.7867,6.6565,6.7238,6.7717,6.8451,6.9782,7.0141,7.0546,7.1158,7.1038,7.0889,7.0889,7.0889,7.1248,7.2146,7.1846,7.1577,7.1577,7.0157,6.893,6.8062,6.7148,6.6595,6.6355,6.634,6.5802,6.4665,0.0,0.0,0.0,0.0,0.0,0.0,0.0,0.0,0.0,0.0,0.0,0.0,0.0,0.0,0.0,0.0,0.0,0.0,0.0,0.0,0.0,0.0,0.0,4.5748,4.6075,4.6813,4.7842,4.8962,4.9866,5.0402,5.0996,5.1565,5.2126,5.2176,5.2653,5.3708,5.3758,5.4034,5.4672,5.5207,5.5717,5.6251,5.6833,5.7361,5.7876,5.8007,5.8994,6.0592,5.8258,5.8221,5.996,5.9316,5.8036,5.6529,5.8294,5.7974,5.6257,5.5156,5.5802,5.7359,5.741,5.8569,6.0348,6.2047,6.1516,6.0562,6.3192,6.2955,6.1828,6.2911,6.3632,6.4276,6.4949,6.5607,6.64,6.7673,6.8047,6.8227,6.8884,6.9064,6.9064,6.9064,6.9064,6.9093,6.9093,6.9123,6.9303,6.9887,7.0007,7.0456,7.1713,7.1368,0.0,7.1833,7.1338,7.0919,7.0919,7.0949,7.1517,7.2817,7.2937,7.2907,7.2907,7.2235,7.1294,7.0037,6.9977,6.9648,6.8974,6.7687,6.67,6.6056,0.0,0.0,0.0,0.0,0.0,0.0,0.0,0.0,0.0,0.0,0.0,0.0,0.0,0.0,0.0,0.0,0.0,0.0,0.0,0.0,0.0,0.0,4.8661,4.7973,4.8686,4.9373,4.9674,5.0368,5.1038,5.1582,5.2134,5.2686,5.3231,5.3675,5.4202,5.4888,5.5315,5.5767,5.6326,5.6922,5.7273,5.7424,5.8936,5.8866,5.7273,6.0406,6.1203,6.0011,6.1078,6.1857,6.2338,6.2184,6.1562,6.0712,6.1231,6.0918,5.9962,5.8333,5.8018,5.8619,5.9931,6.1252,6.2644,6.4406,6.4432,6.3746,6.4487,6.4755,6.4915,6.5681,6.6386,6.7044,6.7717,6.8031,6.8256,6.8615,6.9079,6.9498,6.9678,7.0051,7.038,7.038,7.0769,7.1115,7.1115,7.1487,7.1411,7.0155,7.032,7.0919,7.1773,7.2146,7.2235,7.1953,7.1743,7.1623,7.1623,7.2056,7.2698,7.3552,7.3642,7.3432,7.2937,7.1816,7.0799,7.0037,6.9512,6.896,6.8271,6.7912,6.7613,0.0,0.0,0.0,0.0,0.0,0.0,0.0,0.0,0.0,0.0,0.0,0.0,0.0,0.0,0.0,0.0,0.0,0.0,0.0,0.0,0.0,0.0,5.2582,5.1511,5.192,5.1296,5.087,5.1096,5.1624,5.2176,5.2729,5.3281,5.3934,5.4687,5.5064,5.5609,5.6394,5.6746,5.7054,5.738,5.8699,5.8915,5.792,6.1037,6.1331,5.8932,6.2479,6.3814,6.3249,6.3886,6.4611,6.5354,6.5354,6.4717,6.3761,6.4518,6.4192,6.3049,0.0,0.0,0.0,0.0,6.5129,6.584,6.6899,6.6983,6.6684,6.6684,6.6924,6.7328,6.7717,6.8122,6.8571,6.9229,6.9423,6.9482,6.9722,7.0081,7.038,7.038,7.0649,7.0889,7.0889,7.1444,7.1893,7.1893,7.2206,0.0,7.1321,7.1471,7.1876,7.2265,7.2415,7.2325,7.1953,7.1653,7.1474,7.1474,7.1846,7.2309,7.303,7.3313,0.0,0.0,0.0,7.1577,7.1218,7.056,0.0,0.0,0.0,6.896,6.8421,6.8032,0.0,0.0,6.5862,6.5712,0.0,0.0,0.0,0.0,0.0,0.0,0.0,0.0,0.0,0.0,0.0,0.0,0.0,0.0,0.0,0.0,5.6586,5.4926,5.6485,5.4161,5.2277,5.2277,5.2925,5.3556,5.3951,5.4666,5.5458,5.6337,5.679,5.73,5.7945,0.0,0.0,0.0,0.0,6.0752,5.8334,6.3109,6.4315,6.1979,6.4528,6.6536,6.7962,6.6547,6.6825,6.8407,6.8465,6.7582,6.6237,6.7821,6.7593,6.6013,6.3942,6.4232,6.6103,6.8226,6.9004,6.9004,6.9004,0.0,0.0,6.9004,6.9064,6.9123,6.9123,6.9153,6.9333,6.9947,7.0097,7.0217,7.0769,7.0889,7.0889,7.0889,7.0889,7.0889,7.0889,7.1444,7.1893,7.1893,7.2013,7.2295,7.2907,7.2877,7.2787,7.2787,7.2265,7.1863,7.1803,7.1278,7.0919,7.1009,7.1068,0.0,7.1953,7.2684,7.3027,7.2787,7.2727,7.2668,7.2668,7.2086,7.1773,7.1683,7.1098,7.0201,6.9004,6.9004,6.9004,6.9004,6.8391,6.7822,0.0,0.0,0.0,0.0,0.0,0.0,0.0,0.0,0.0,0.0,0.0,0.0,0.0,0.0,0.0,5.852,5.8305,5.8118,5.8447,5.8396,5.7077,5.3787,5.5194,5.6271,5.5761,5.7249,5.8051,5.7605,6.0418,6.1104,5.87,6.1485,6.1731,5.8649,6.2417,6.328,6.0826,6.5288,6.6558,6.4675,0.0,0.0,6.7497,6.862,6.9305,6.9673,7.0178,7.0177,6.9897,7.0239,7.0503,7.0383,6.7519,6.7496,6.9097,6.9013,6.9004,6.9004,6.9004,6.9004,6.9004,6.9004,6.9379,6.9798,6.9798,7.0141,0.0,7.0679,7.0739,7.0739,7.0859,7.0889,7.0889,7.0889,7.0889,7.0889,7.0889,7.1444,7.1893,7.1893,7.2791,7.3552,7.3672,7.2804,7.2102,7.2102,7.1983,7.1713,7.1158,7.0979,7.1098,7.1653,7.2206,7.2565,7.2698,7.3821,7.3808,7.2192,7.1577,7.1308,7.1308,7.1158,7.0859,7.0366,7.0247,6.9798,6.9004,6.9004,6.9004,6.9004,6.8854,6.9019,0.0,0.0,0.0,0.0,0.0,0.0,0.0,0.0,0.0,0.0,0.0,5.8201,5.8544,0.0,6.0265,6.1542,6.0918,6.0577,6.1509,6.1997,6.1016,5.7638,5.8617,5.9135,5.8061,5.9996,6.0882,5.9791,6.2372,6.3244,6.1526,6.3576,6.3782,6.1516,6.4821,6.5467,6.2983,6.7312,6.8603,6.6823,6.9632,7.0644,7.0132,7.1394,7.1953,7.1983,7.2641,7.291,7.291,7.291,7.309,7.3216,7.1335,7.0957,7.1398,7.1068,7.0949,7.0903,7.056,7.044,7.038,7.0051,7.0171,7.044,7.044,7.0649,7.0889,7.0889,7.0889,7.0889,7.0889,7.1158,7.1487,7.1816,7.2176,7.2385,7.2385,7.294,7.33,7.297,7.3432,7.3881,7.3881,7.3073,7.2505,7.2851,7.2624,7.2146,7.1504,7.1398,7.1398,7.1398,7.1996,7.2385,7.2385,7.3313,7.3612,7.2924,7.2265,7.189,7.189,7.189,7.1757,7.1457,7.1457,7.1278,7.0949,7.0949,7.0949,7.0949,7.0949,7.0769,0.0,0.0,0.0,0.0,0.0,0.0,0.0,5.6748,5.6928,5.7556,5.865,5.9668,6.0176,6.1373,6.281,6.4381,6.3352,6.295,6.459,6.5031,6.4496,6.2614,6.2563,6.2135,6.0766,6.284,6.3794,6.2503,6.4428,6.5401,6.4809,6.5876,6.5936,6.4661,6.7484,6.785,6.5363,6.9282,7.0605,6.9341,7.1218,7.2445,7.3116,7.3642,7.3881,7.3941,7.4616,7.4886,7.4886,7.4886,7.4886,7.4856,7.4317,7.3762,7.3266,7.2997,7.2907,7.2817,7.2265,7.2102,7.2013,7.1457,7.1308,7.1308,7.1308,7.1308,7.1308,7.1308,7.1308,7.1308,7.1308,7.1697,7.2265,7.2937,7.3522,7.3881,7.3881,7.4317,7.4497,7.3821,7.3821,7.3881,7.3881,7.3552,7.3402,7.3672,7.3253,7.2698,7.2146,7.2102,7.1876,7.1368,7.1757,7.2162,7.2282,7.2654,7.3253,7.4031,7.3462,7.3146,7.3266,7.3283,7.3283,7.3283,7.3283,7.3283,7.3283,7.3283,7.3283,7.3283,7.3146,7.2428,5.385,5.4803,5.5923,5.6585,5.6825,5.7214,0.0,5.877,5.8949,5.9621,6.0356,6.091,6.097,6.2061,6.3063,6.3273,6.4546,6.5768,6.6588,6.723,6.7734,6.805,6.6746,6.5293,6.4001,6.5708,6.6554,6.5723,6.8472,6.92,6.6968,6.9591,6.9637,6.6255,7.019,7.1179,6.8688,7.1331,7.2883,7.3252,7.2943,7.3133,7.3791,7.3851,7.3881,7.3941,7.4616,7.4886,7.4886,7.4886,7.4886,7.4886,7.4826,7.4736,7.4527,7.3343,7.2907,7.2877,7.2817,7.2787,7.2787,7.2698,7.2668,7.2668,7.2668,7.2668,7.2668,7.2668,7.2668,7.2668,7.2668,7.2727,7.2967,7.3642,7.3851,7.3881,7.3881,7.3941,7.3821,7.3146,7.3492,7.3881,7.3881,7.4347,7.4317,7.3193,7.2937,7.2877,7.2787,7.2787,7.2757,7.2668,7.2727,7.3043,7.3612,7.3206,7.3432,7.4706,7.4168,7.4078,7.4646,7.4676,7.4676,7.4676,7.4676,7.4676,7.4676,7.4676,7.4676,7.4646,7.4078,7.3402,5.6273,5.6872,5.7453,5.8112,5.8574,5.8993,5.9548,5.9997,6.0342,6.0625,6.1523,6.2241,6.2241,6.3318,6.4336,6.4725,6.5802,6.6835,6.7493,6.8496,6.9259,6.9558,6.9573,6.8777,6.6748,6.8646,6.9561,6.8566,7.0711,7.1438,7.0023,7.1554,7.1587,6.968,7.177,7.241,7.1348,7.2393,7.3253,7.3881,7.3612,7.3821,7.4497,7.4497,7.4497,7.4497,7.4766,7.4886,7.4886,7.4886,7.4886,7.4886,7.4886,7.5125,7.5377,7.442,7.4061,7.4001,7.3612,7.3492,7.3492,7.3492,7.3492,7.3552,7.3941,7.4061,7.4061,7.4061,7.4061,7.4061,7.4061,7.436,7.4719,7.5018,7.533,7.548,7.5138,7.5078,7.4869,7.418,7.4287,7.4497,7.4497,7.4706,7.4706,7.4168,7.4061,7.3911,7.3522,7.3492,7.3492,7.3492,7.3492,7.3911,7.4958,7.445,7.4467,7.5407,7.4856,7.4796,7.5437,7.5467,7.5647,7.6006,7.6006,7.6006,7.6006,7.6006,7.6006,7.6006,7.5719,7.545,5.8068,5.8397,5.8547,5.9219,5.9741,6.016,6.0326,6.0731,6.121,6.1583,6.2435,6.3213,6.3572,6.4545,6.5518,6.6161,6.6819,6.7583,6.8421,6.9528,7.0336,7.0486,7.1504,7.1529,6.9853,7.1207,7.1869,7.12,7.2248,7.2864,7.2731,7.3013,7.3043,7.2731,7.3193,7.3462,7.3462,7.3462,7.3702,7.4197,7.4197,7.4437,7.4886,7.4886,7.5006,7.5185,7.5185,7.5275,7.5407,7.5407,7.5407,7.5407,7.5407,7.5707,7.6078,7.5587,7.5407,7.5335,7.4659,7.445,7.448,7.4659,7.4599,7.4569,7.5228,7.5407,7.5407,7.5407,7.5407,7.5395,7.5215,7.5527,7.5916,7.5916,7.6228,7.6437,7.6006,7.5916,7.5707,7.5035,7.4886,7.4946,7.5155,7.5185,7.5245,7.5395,7.5407,7.5125,7.4287,7.4197,7.4197,7.4197,7.4197,7.4629,7.5796,7.5437,7.5527,7.6365,7.5976,7.5993,7.6664,7.6694,7.6904,7.7335,7.7544,7.7634,7.7634,7.7813,7.7903,7.7903,7.7724,7.7634,5.8876,5.9056,5.9219,5.9891,6.007,6.028,6.091,6.109,6.1479,6.2764,6.3063,6.3482,6.471,6.5518,6.6191,6.6849,6.7523,6.8421,6.9676,7.0424,7.1098,7.1773,7.2445,7.31,0.0,7.3219,7.313,7.3754,7.3249,7.3462,7.4736,7.4227,7.4168,7.4796,7.4826,7.4826,7.4826,7.4826,7.4856,7.4856,7.4856,7.4886,7.4886,7.4886,7.5245,7.5886,7.5886,7.6198,7.6719,7.6719,7.6719,7.6719,7.6719,7.6749,7.6766,7.6749,7.6719,7.6676,7.6066,7.5856,7.5946,7.6527,7.6317,7.5929,7.6557,7.6719,7.6719,7.6719,7.6719,7.6617,7.6018,7.5869,7.5916,7.5916,7.5916,7.5916,7.5916,7.5916,7.5707,7.5035,7.4886,7.5095,7.5766,7.5886,7.6048,7.6647,7.6719,7.6288,7.5035,7.4856,7.4856,7.4856,7.4856,7.5155,7.5856,7.5886,7.6425,7.7682,7.7741,7.8011,7.8687,7.8699,7.8717,7.8747,7.9369,7.9698,7.9728,8.0356,8.0674,8.0674,7.9997,7.9698,5.9711,5.9771,5.9907,6.0595,6.1104,6.1507,6.1702,6.2121,6.2674,6.3512,6.4395,6.5173,6.5577,6.658,6.7403,6.7628,6.8241,6.9093,7.0364,7.1128,7.1816,7.2475,7.3163,7.3642,7.3881,7.3702,7.3821,7.4497,7.4347,7.4437,7.4886,7.4676,7.4676,7.4886,7.4886,7.4886,7.4886,7.4886,7.4886,7.4903,7.5347,7.5766,7.6168,7.6168,7.6288,7.6467,7.6048,7.6036,7.6168,7.5707,7.5527,7.5527,7.5527,7.5826,7.6138,7.5707,7.6048,7.6766,7.6587,7.6228,7.5988,7.6599,7.6407,7.5988,7.6617,7.6779,7.6779,7.6779,7.6779,7.6749,7.6557,7.6497,7.6407,7.6006,7.5916,7.5916,7.5916,7.5916,7.5929,7.6108,7.6168,7.6228,7.6467,7.6497,7.6587,7.6766,7.6779,7.6647,7.6228,7.6168,7.6168,7.6168,7.6168,7.6258,7.6467,7.6497,7.6676,7.7125,7.7155,7.7424,7.81,7.813,7.834,7.8807,7.9477,7.9578,7.9148,7.9788,7.9926,7.9477,7.9698,7.9788,6.0446,6.0446,6.0625,6.1283,6.1972,6.2465,6.2465,6.2974,6.3602,6.4246,6.5218,6.6161,6.664,6.7433,6.8167,6.8646,6.887,6.9542,7.1038,7.1816,7.2505,7.3193,7.3851,7.4257,7.4257,7.4257,7.4437,7.4873,7.4886,7.4886,7.4886,7.4886,7.4886,7.4886,7.4886,7.4886,7.4886,7.5125,7.5365,7.5587,7.6036,7.6437,7.6779,7.6779,7.6946,7.7155,7.6736,7.6574,7.6544,7.6096,7.5814,7.5587,7.5587,7.5826,7.6168,7.5736,7.6096,7.6766,7.6557,7.6228,7.5988,7.6599,7.6407,7.5988,7.6617,7.6779,7.6779,7.6779,7.6779,7.6779,7.6779,7.6779,7.6706,7.6317,7.6228,7.6228,7.6228,7.6228,7.6347,7.6719,7.6779,7.6886,7.7125,7.7365,7.7514,7.7514,7.7514,7.7335,7.6838,7.6779,7.6779,7.6779,7.6779,7.6916,7.7155,7.7155,7.7275,7.7484,7.7514,7.7694,7.813,7.816,7.837,7.8807,7.9477,7.9578,7.9148,7.9836,7.9956,7.9537,8.0195,8.0405,6.109,6.112,6.1329,6.2032,6.2674,6.3168,6.3168,6.3602,6.4186,6.4845,6.5577,6.646,6.7778,6.8047,6.8496,6.9798,6.9439,6.9692,7.1683,7.2505,7.3146,7.3851,7.4497,7.4886,7.4886,7.4886,7.4886,7.4886,7.4886,7.4886,7.4886,7.4886,7.4886,7.4886,7.4886,7.4933,7.4946,7.5617,7.6258,7.6838,7.6838,7.6868,7.6916,7.6916,7.7245,7.7861,7.7813,7.7801,7.7783,7.7741,7.7335,7.6749,7.6719,7.6706,7.6706,7.6719,7.6749,7.6676,7.6138,7.5946,7.6006,7.6587,7.6347,7.5976,7.6527,7.6736,7.6749,7.6749,7.6779,7.6779,7.6779,7.6779,7.6779,7.6779,7.6779,7.6808,7.6838,7.6838,7.6838,7.6916,7.6916,7.7095,7.7724,7.837,7.8807,7.8807,7.8807,7.834,7.7065,7.6916,7.6916,7.6916,7.6916,7.7155,7.7801,7.7861,7.813,7.8759,7.8807,7.8807,7.8807,7.8807,7.8807,7.8807,7.9477,7.9788,7.9758,8.0416,8.0734,8.0704,8.1411,8.1381,6.109,6.1449,6.2121,6.3228,6.3647,6.3767,6.3767,6.3887,6.4186,6.4845,6.5936,6.7014,6.7822,6.8421,6.9004,6.9858,6.9439,6.9842,7.2295,7.2787,7.3326,7.4497,7.4796,7.4886,7.4886,7.4886,7.4886,7.4886,7.4886,7.4886,7.4886,7.4886,7.4886,7.4886,7.4886,7.5155,7.5647,7.6258,7.6916,7.7544,7.7544,7.7813,7.828,7.828,7.837,7.8519,7.8011,7.7801,7.7741,7.6784,7.6288,7.6078,7.5587,7.5395,7.5437,7.5946,7.6108,7.6168,7.6467,7.6288,7.5946,7.6078,7.5677,7.5185,7.5335,7.5736,7.6108,7.6108,7.6467,7.6779,7.6779,7.6779,7.6779,7.6779,7.6779,7.6946,7.7424,7.7544,7.7694,7.819,7.828,7.834,7.8519,7.8687,7.8807,7.8807,7.8807,7.8687,7.834,7.828,7.828,7.828,7.828,7.837,7.8519,7.8549,7.8627,7.8807,7.8807,7.8807,7.8807,7.8807,7.8807,7.8807,7.9477,7.9548,7.9058,7.9728,7.9806,7.9327,8.0016,8.0225,6.1912,6.245,6.3169,6.4171,6.4665,6.4814,6.45,6.465,6.4979,6.5368,6.6281,6.7284,6.8271,6.8511,6.896,7.0217,6.9602,6.9901,7.2518,7.2907,7.3402,7.4736,7.4886,7.4886,7.4886,7.4886,7.4886,7.4886,7.4886,7.4886,7.4886,7.4886,7.5035,7.5335,7.5335,7.5647,7.6288,7.6647,7.7155,7.7801,7.7484,7.7861,7.8807,7.8489,7.837,7.837,7.828,7.7921,7.7335,7.6904,7.6557,7.6258,7.5886,7.5736,7.5766,7.6168,7.6288,7.6347,7.6659,7.6587,7.6288,7.6288,7.6036,7.5736,7.5736,7.6006,7.6288,7.6288,7.6557,7.6886,7.7155,7.7245,7.7305,7.7604,7.7664,7.7801,7.816,7.825,7.834,7.8747,7.8807,7.8807,7.8807,7.8807,7.8807,7.8807,7.8807,7.8807,7.8807,7.8807,7.8807,7.8807,7.8807,7.8807,7.8807,7.8807,7.8807,7.8807,7.8807,7.8807,7.8807,7.8807,7.8807,7.8807,7.9178,7.9178,7.8807,7.9178,7.9178,7.8837,7.9489,7.9638,6.2928,6.3542,6.4186,6.4934,6.5518,6.5727,6.5233,6.5518,6.5877,6.5966,6.652,6.7373,6.8645,6.8451,6.869,7.038,6.9812,6.9991,7.2428,7.2847,7.3402,7.4736,7.4886,7.4886,7.4886,7.4886,7.4886,7.4886,7.4886,7.4886,7.4886,7.4976,7.5335,7.5988,7.6125,7.6407,7.6946,7.7035,7.7305,7.7801,7.7215,7.7484,7.8519,7.7933,7.7741,7.7813,7.84,7.8071,7.7095,7.7604,7.7454,7.6898,7.6838,7.6779,7.6808,7.6916,7.6928,7.6946,7.7018,7.7065,7.7035,7.6838,7.6779,7.6779,7.6779,7.6838,7.6928,7.6928,7.7006,7.7215,7.7783,7.7933,7.8071,7.8639,7.8807,7.8807,7.8807,7.8807,7.8807,7.8807,7.8807,7.8807,7.8807,7.8807,7.8807,7.8807,7.8878,7.8938,7.8938,7.8867,7.8807,7.8807,7.8807,7.8807,7.8807,7.8807,7.8807,7.8807,7.8807,7.8807,7.8807,7.8807,7.8807,7.8807,7.8807,7.8807,7.8807,7.8807,7.8807,7.8837,7.9489,7.9537,6.2928,6.3542,6.4306,6.5518,6.5518,6.5308,6.5727,6.5488,6.5338,6.5877,6.652,6.7254,6.8032,6.8541,6.8944,6.9273,6.9618,7.0336,7.1863,7.2565,7.3402,7.4736,7.4886,7.4886,7.4886,7.4886,7.4886,7.4886,7.4886,7.4886,7.4886,7.5425,7.5988,7.6617,7.7185,7.7514,7.7634,7.819,7.822,7.7801,7.7664,7.7454,7.7155,7.7035,7.7275,7.7813,7.7921,0.0,7.843,7.7981,7.7724,7.7574,7.7035,7.6779,7.6886,7.7424,7.7634,7.7711,7.825,7.846,7.828,7.7155,7.6779,7.6779,7.6779,7.7185,7.7634,7.7634,7.8041,7.846,7.8579,7.8627,7.8657,7.8759,7.8807,7.8807,7.8807,7.8807,7.8807,7.8807,7.8807,7.8807,7.8807,7.8807,7.8807,7.8807,7.9267,7.9608,7.9608,7.9148,7.8807,7.8807,7.8807,7.8807,7.8807,7.8807,7.8807,7.8807,7.8807,7.8807,7.8807,7.8807,7.8807,7.8807,7.8807,7.8807,7.8807,7.8807,7.8807,7.8837,7.9489,8.0027,6.3737,6.4291,6.4829,6.6191,6.6011,6.5697,6.637,6.5996,6.5697,6.637,6.6759,6.7194,6.7868,6.8271,6.872,6.9409,6.9798,7.0576,7.2176,7.2698,7.3402,7.4736,7.4886,7.4886,7.4886,7.4886,7.4886,7.4886,7.5215,7.5407,7.5407,7.6365,7.7006,7.7305,7.7634,7.7634,7.7275,7.7293,7.7143,7.6814,7.6455,7.6485,7.6779,7.6467,7.6676,7.7305,7.7634,7.7981,7.828,7.831,7.831,7.828,7.7981,7.7861,7.7891,7.819,7.831,7.837,7.8687,7.8807,7.8699,7.8041,7.7861,7.7861,7.7861,7.8071,7.831,7.831,7.8549,7.8807,7.8807,7.8807,7.8807,7.8807,7.8807,7.8807,7.8807,7.8807,7.8807,7.8807,7.8807,7.8908,7.9267,7.9327,7.9447,7.9776,8.0105,8.0326,8.0326,8.0045,7.9836,7.9836,7.9836,7.9836,7.9836,7.9836,7.9836,7.9836,7.9836,7.9836,7.9836,7.9836,7.9836,7.9836,7.9836,7.9836,7.9836,7.9836,7.9836,7.9836,8.0165,8.0494,6.4291,6.48,6.5069,6.6281,6.6071,6.5772,6.661,6.6281,6.5966,6.664,6.6894,6.7134,6.7493,6.7912,6.8511,6.9409,7.0037,7.0935,7.2475,7.2937,7.3552,7.4766,7.4886,7.4886,7.4886,7.4886,7.4946,7.5095,7.5707,7.6078,7.6078,7.7185,7.7801,7.7801,7.7801,7.7544,7.7035,7.6407,7.6036,7.5886,7.5365,7.5557,7.6377,7.5916,7.6078,7.6826,7.7365,7.7753,7.8071,7.8579,7.8807,7.8807,7.8807,7.8807,7.8807,7.8807,7.8807,7.8807,7.8807,7.8807,7.8807,7.8807,7.8807,7.8807,7.8807,7.8807,7.8807,7.8807,7.8807,7.8807,7.8807,7.8807,7.8807,7.8807,7.8807,7.8807,7.8807,7.8807,7.8819,7.8998,7.8998,7.9238,7.9907,7.9997,8.0177,8.0734,8.0913,8.1003,8.1003,8.1123,8.1231,8.1231,8.0973,8.0794,8.0794,8.0794,8.0794,8.0794,8.0794,8.0794,8.0794,8.0794,8.0794,8.0794,8.0794,8.0794,8.0794,8.0794,8.0794,8.0794,8.0943,8.1093,6.3737,6.4096,6.4276,6.4994,6.468,6.4515,6.5787,6.5577,6.5263,6.5936,6.658,6.6819,6.6281,6.7687,6.875,6.8241,7.0187,7.1803,7.1983,7.306,7.4078,7.4796,7.4886,7.4886,7.4886,7.4886,7.5155,7.5766,7.6377,7.6719,7.6719,7.7394,7.7801,7.7801,7.7801,7.7753,7.7694,7.7065,7.6437,7.5916,7.5826,7.5557,7.5065,7.5006,7.5647,7.6779,7.6886,7.7574,0.0,7.8759,7.8807,7.8807,7.8807,7.8807,7.8807,7.8807,7.8807,7.8807,7.8807,7.8807,7.8807,7.8807,7.8807,7.8807,7.8807,7.8807,7.8807,7.8807,7.8807,7.8807,7.8807,7.8807,7.8807,7.8807,7.8807,7.8807,7.8807,7.8807,7.8968,7.9578,7.9698,7.9907,8.0584,8.0704,8.0734,8.0794,8.1321,8.171,8.171,8.2238,8.2627,8.2627,8.153,8.0794,8.0794,8.0794,8.0794,8.0794,8.0794,8.0794,8.0794,8.0794,8.0794,8.0794,8.0794,8.0794,8.0794,8.0794,8.0794,8.0823,8.1441,8.2039,6.3333,6.3722,6.4156,6.4815,6.4785,6.4859,6.5787,6.5473,6.5174,6.5847,6.5877,6.5847,6.5966,6.6969,6.7956,6.8511,7.0127,7.1577,7.2385,7.3659,7.4587,7.4873,7.5275,7.5335,7.4946,7.4886,7.5185,7.5856,7.6467,7.6647,7.6288,7.6856,7.7574,7.837,7.7263,7.6826,7.7185,7.6185,7.5527,7.5305,7.5305,7.5155,7.4916,7.5335,7.5976,7.6808,7.7245,7.7933,0.0,7.8807,7.8807,7.8807,7.8807,7.8807,7.8807,7.8807,7.8807,7.8807,7.8807,7.8807,7.8807,7.8807,7.8807,7.8807,7.8807,7.8807,7.8807,7.8807,7.8807,7.8807,7.8807,7.8807,7.8807,7.8807,7.8807,7.8908,7.9327,7.9417,7.9597,8.0285,8.0405,8.0614,8.1291,8.1411,8.153,8.1949,8.2238,8.2417,8.2417,8.2627,8.2806,8.2806,8.2309,8.2009,8.2009,8.2009,8.2009,8.2009,8.2009,8.2009,8.2009,8.2009,8.2009,8.2009,8.2009,8.2009,8.2009,8.2009,8.2009,8.2009,8.2297,8.3114,6.2988,6.3273,6.3647,6.45,6.471,6.4889,6.5547,6.5338,6.5084,6.5338,6.5188,6.5144,6.5607,6.64,6.7433,6.8764,7.0231,7.1607,7.2727,7.4031,7.4976,7.5155,7.5617,7.5707,7.5245,7.5365,7.5647,7.6108,7.6557,7.6599,7.6198,7.6198,7.6766,7.7891,7.6784,7.6288,7.6527,7.5455,7.4886,7.4886,7.4886,7.5006,7.5215,7.5677,7.6347,7.7125,7.7574,7.819,0.0,7.8807,7.8807,7.8807,7.8807,7.8807,7.8807,7.8807,7.8807,7.8807,7.8807,7.8807,7.8807,7.8807,7.8807,7.8807,7.8807,7.8807,7.8807,7.8807,7.8807,7.8807,7.8807,7.8807,7.8867,7.9058,7.9088,7.9297,7.9937,8.0087,8.0296,8.0973,8.1093,8.1302,8.1979,8.2099,8.2268,8.2717,8.2806,8.2806,8.2806,8.2806,8.2806,8.2806,8.2806,8.2806,8.2806,8.2806,8.2806,8.2806,8.2806,8.2806,8.2806,8.2806,8.2806,8.2806,8.2806,8.306,8.3598,8.3598,8.3865,8.4405,8.4405,8.5071,6.2734,6.2614,6.2421,6.3677,6.4006,6.4186,6.4845,6.4994,6.4815,6.4156,6.453,6.4994,6.5024,6.6086,6.7433,6.8764,7.062,7.2132,7.2787,7.4031,7.5155,7.5826,7.5916,7.5916,7.5886,7.6437,7.6779,7.6779,7.6779,7.6779,7.6779,7.5587,7.5245,7.5916,7.6497,7.6527,7.5916,7.5245,7.4886,7.4886,7.4886,7.5245,7.5886,7.5916,7.6604,7.7801,7.7801,7.819,0.0,7.8807,7.8807,7.8807,7.8807,7.8807,7.8807,7.8807,7.8807,7.8807,7.8807,7.8807,7.8807,7.8807,7.8807,7.8807,7.8807,7.8807,7.8807,7.8807,7.8807,7.8807,7.8807,7.8807,7.8968,7.9638,7.9788,7.9967,8.0644,8.0794,8.0973,8.165,8.18,8.2009,8.2687,8.2776,8.2776,8.2806,8.2806,8.2806,8.2806,8.2806,8.2806,8.2806,8.2806,8.2806,8.2806,8.2806,8.2806,8.2806,8.2806,8.2806,8.2806,8.2806,8.2806,8.2806,8.2806,8.3691,8.5466,8.5466,8.6379,8.8121,8.8121,8.817,6.2435,6.2614,6.2884,6.3273,6.3677,6.4066,6.4276,6.4336,6.4276,6.4036,6.3827,6.3977,6.4845,6.5368,6.6355,6.8645,7.026,7.1457,7.2116,7.4151,7.5318,7.4629,7.454,7.4899,7.5826,7.5647,7.5677,7.6138,7.6168,7.5976,7.5527,7.5557,7.5886,7.6497,7.5856,7.5617,7.5916,7.5245,7.4886,7.4886,7.4886,7.5245,7.5916,7.6317,7.6976,7.7831,7.828,7.8579,7.8807,7.8807,7.8807,7.8807,7.8807,7.8807,7.8807,7.8807,7.8807,7.8807,7.8807,7.8807,7.8807,7.8807,7.8807,7.8807,7.8807,7.8807,7.8807,7.8807,7.8807,7.8926,7.9339,7.9489,7.9638,8.0315,8.0476,8.0674,8.1351,8.15,8.168,8.2357,8.2477,8.2567,8.2747,8.2806,8.2806,8.2806,8.2806,8.2806,8.2806,8.2806,8.2806,8.2806,8.2806,8.2806,8.2806,8.2806,8.2806,8.2806,8.2806,8.2806,8.2806,8.2806,8.2806,8.2806,8.4013,8.4939,8.5502,8.6746,8.7644,8.8237,8.948,9.0032,6.2584,6.2614,6.2854,6.3333,6.3722,6.4006,6.4006,6.4006,6.3947,6.3722,6.3542,6.3767,6.4815,6.5428,6.6475,6.8645,7.0081,7.1218,7.2146,7.3941,7.5018,7.4689,7.442,7.4779,7.6108,7.5425,7.5185,7.5856,7.5916,7.5617,7.4946,7.5305,7.5677,7.6048,7.5557,7.5365,7.5527,7.5095,7.4886,7.4886,7.5155,7.5617,7.6258,7.6886,7.7544,7.819,7.8627,7.8807,0.0,7.8807,7.8807,7.8807,7.8807,7.8807,7.8807,7.8807,7.8807,7.8807,7.8807,7.8807,7.8807,7.8807,7.8807,7.8807,7.8807,7.8807,7.8807,7.8807,7.8968,7.9267,7.9698,7.9997,8.0345,8.1003,8.1183,8.1381,8.2039,8.2159,8.2297,8.2717,8.2806,8.2806,8.2806,8.2806,8.2806,8.2806,8.3386,8.384,8.384,8.4424,8.4818,8.4818,8.4818,8.4818,8.4818,8.358,8.2806,8.2806,8.2806,8.3116,8.3803,8.384,8.413,8.4818,8.5952,8.6867,8.7525,8.9349,9.0241,9.0257,9.1399,9.1912,0.0,6.2644,6.245,6.3647,6.3947,6.3947,6.3947,6.3977,0.0,6.3273,6.3662,6.4306,6.4994,6.6161,6.7478,6.8914,7.0141,7.1368,7.2698,7.3432,7.433,7.5677,7.5155,7.5245,7.6617,7.5527,7.5095,7.5856,7.5856,7.5557,7.4916,7.4886,7.4886,7.4886,7.5497,7.5527,7.4916,7.4886,7.4886,7.4916,7.5587,7.6228,7.6808,7.7484,7.816,0.0,7.8807,7.8807,7.8807,7.8807,7.8807,7.8807,7.8807,7.8807,7.8807,7.8807,7.8807,7.8807,7.8807,7.8807,7.8807,7.8807,7.8807,7.8807,7.8807,7.8807,7.8807,7.8867,7.9327,7.9818,7.9907,8.0405,8.1033,8.171,8.186,8.2039,8.2657,8.2806,8.2806,8.2806,8.2806,8.2806,8.2806,8.2806,8.2844,8.2965,8.4424,8.5556,8.5699,8.7147,8.822,8.822,8.822,8.822,8.822,8.5125,8.318,8.318,8.318,8.3939,8.5614,8.5685,8.6484,8.8187,8.8338,8.9267,9.1084,9.277,9.3586,9.3586,9.3586,9.3586,6.2944,0.0,6.2944,6.3243,6.3303,6.3303,0.0,6.3662,6.3947,6.3827,6.4291,6.5129,6.6311,6.6789,6.7762,7.0081,7.0709,7.1368,7.2698,7.3027,7.3642,7.4976,7.3629,7.3539,7.5869,7.4433,7.4074,7.5766,7.5407,7.5065,7.4916,7.4886,7.4886,7.4886,7.5035,7.5065,7.4886,7.4886,7.4886,7.4916,7.5587,7.6228,7.6808,7.7484,7.816,7.8807,7.8807,7.8807,7.8807,7.8807,7.8807,7.8807,7.8807,7.8807,7.8807,7.8807,7.8807,7.8807,7.8807,7.8807,7.8807,7.8807,7.8807,7.8807,7.8807,7.8807,7.8908,7.9399,7.9668,8.0027,8.1063,8.1471,8.174,8.2417,8.2567,8.2627,8.2776,8.2806,8.2806,8.2806,8.2806,8.2806,8.2806,8.2806,8.3255,8.4679,8.5215,8.6005,8.7388,8.795,8.822,8.822,8.822,8.822,8.822,8.7422,8.6923,8.6923,8.6923,8.713,8.7559,8.7576,8.7781,8.8171,8.9561,9.1147,9.2954,9.3409,9.3586,9.3586,9.3586,9.3586,6.2928,6.3108,6.3108,6.3108,6.3108,6.3168,6.3452,6.3782,6.4096,6.4411,6.5248,6.6131,6.6864,6.7508,6.8465,7.0201,7.0709,7.1487,7.3133,7.3612,7.4108,7.4796,7.3659,7.3509,7.5275,7.418,7.3941,7.5335,7.5095,7.4886,7.4886,7.4886,7.4886,7.4886,7.4886,7.4886,7.4886,7.4886,7.5035,7.5365,7.6006,7.6647,7.7275,7.7951,7.846,7.8807,7.8807,7.8807,7.8807,7.8807,7.8807,7.8807,7.8807,7.8807,7.8807,7.8807,7.8807,7.8807,7.8807,7.8807,7.8807,7.8807,7.8807,7.8867,7.9178,7.9267,7.9327,7.9698,8.0237,8.0883,8.162,8.2009,8.2357,8.2717,8.2806,8.2806,8.2806,8.2806,8.2806,8.2806,8.2806,8.2806,8.2806,8.3498,8.4369,8.5341,8.692,8.8321,8.93,9.016,9.0688,9.0688,9.0688,9.0688,9.0688,9.0688,8.9983,8.8289,8.822,8.8572,8.9398,8.9447,8.9838,9.0672,9.1632,9.262,9.3586,9.3586,9.3586,9.3586,9.3586,9.3586,6.2884,6.3108,6.3108,6.3108,6.3168,6.3363,6.3887,6.4156,6.4515,6.5159,6.6281,6.7194,6.7284,6.8315,6.9363,7.0037,7.0739,7.1816,7.3522,7.4138,7.4467,7.4587,7.4018,7.3898,7.4676,7.421,7.4197,7.4856,7.4886,7.4886,7.4886,7.4886,7.4886,7.4886,7.4886,7.4886,7.4886,7.4886,7.5245,7.5916,7.6527,7.7155,7.7813,7.8489,7.8867,7.8938,7.8819,7.8867,7.8938,7.8819,7.8807,7.8807,7.8807,7.8807,7.8807,7.8807,7.8807,7.8807,7.8807,7.8807,7.8807,7.8807,7.8807,7.8926,7.9608,7.9878,7.9967,8.0087,8.0913,8.183,8.1919,8.2368,8.2806,8.2806,8.2806,8.2836,8.2926,8.2937,8.2986,8.3076,8.3106,8.3171,8.3492,8.4803,8.5996,8.66,8.9196,9.1203,9.1587,9.2784,9.3654,9.3755,9.3654,9.3586,9.3586,9.3586,9.2298,8.9218,8.9037,8.9724,9.1258,9.1321,9.202,9.3556,9.3586,9.3586,9.3586,9.3586,9.3586,9.3586,9.3586,9.3586,6.2764,6.3108,6.3108,6.3108,6.3482,6.3887,6.3977,6.4874,6.5892,6.655,6.7313,6.8002,6.8585,6.9319,7.0037,7.0649,7.177,7.2698,7.2997,7.2654,7.2581,7.3133,7.2624,7.2701,7.3911,7.3941,7.4197,7.4856,7.4886,7.4886,7.4886,7.4886,7.4886,7.4886,7.4886,7.4886,7.4886,7.4886,7.5245,7.5916,7.6527,7.7155,7.7813,7.8489,7.9118,7.9608,7.9058,7.9118,7.9608,7.9028,7.8807,7.8807,7.8807,7.8807,7.8807,7.8807,7.8807,7.8807,7.8807,7.8807,7.8807,7.8807,7.8807,7.8926,7.9608,8.0207,8.0764,8.1332,8.165,8.1919,8.2507,8.2717,8.2806,8.2806,8.2806,8.2937,8.3438,8.3557,8.3737,8.4295,8.4414,8.4912,8.6589,8.7091,8.833,9.1448,9.189,9.2604,9.4767,9.4215,9.3857,9.4451,9.3977,9.3586,9.3586,9.3586,9.3345,9.28,9.2755,9.2909,9.3182,9.3197,9.3301,9.3586,9.3586,9.3586,9.3586,9.3586,9.3586,9.3586,9.3586,9.3586,6.2734,6.3108,6.3197,6.3512,6.3797,6.4096,6.447,6.5592,6.664,6.6954,6.8122,6.9049,6.9004,6.9558,7.0217,7.0799,7.2009,7.2907,7.2907,7.2624,7.2565,7.2847,7.2954,7.324,7.3821,7.4227,7.4557,7.4886,7.4886,7.4886,7.4886,7.4886,7.4886,7.4886,7.4886,7.5065,7.5455,7.5437,7.5766,7.6407,7.7394,7.825,7.889,7.9567,7.9866,7.9788,7.9459,7.9327,7.9238,7.8926,7.8807,7.8807,7.8807,7.8807,7.8807,7.8807,7.8807,7.8807,7.8807,7.8807,7.8807,7.8807,7.9058,7.9477,8.0135,8.1063,8.1949,8.2249,8.2357,8.2417,8.2717,8.3027,8.3277,8.3277,8.3547,8.4201,8.5511,8.5815,8.6212,8.7515,8.7796,8.8055,8.8951,8.9935,9.1152,9.2842,9.3635,9.4342,9.5105,9.4958,9.4755,9.4706,9.4417,9.418,9.418,9.3823,9.3586,9.3586,9.3586,9.3586,9.3586,9.3586,9.3586,9.3586,9.3586,9.3586,9.3586,9.3586,9.3586,9.3586,9.3586,9.3586,6.2734,6.3183,6.3422,6.3887,6.4126,6.4441,6.5278,6.6251,6.7134,6.7613,6.881,6.9708,6.9482,6.9842,7.044,7.1248,7.195,7.2488,7.2638,7.2518,7.2488,7.2654,7.3253,7.3732,7.3881,7.4497,7.4886,7.4886,7.4886,7.4886,7.4886,7.4886,7.4886,7.4886,7.4886,7.5215,7.5886,7.6036,7.6407,7.7065,7.822,7.9148,7.9818,8.0476,8.0614,8.0266,8.0087,7.9728,7.9238,7.9088,7.8938,7.8837,7.8968,7.9028,7.8998,7.8867,7.8807,7.8807,7.8807,7.8878,7.9028,7.9028,7.9597,8.0356,8.0883,8.1979,8.2997,8.2997,8.3117,8.3206,8.3057,8.3487,8.4061,8.4498,8.5023,8.5956,8.8032,8.8481,8.8962,9.0573,9.0882,9.1006,9.1434,9.2677,9.3742,9.4177,9.5294,9.5905,9.5518,9.5499,9.5398,9.4992,9.4808,9.4706,9.4706,9.418,9.3789,9.362,9.3586,9.3586,9.3586,9.3586,9.3586,9.3586,9.3586,9.3586,9.3586,9.3586,9.3586,9.3586,9.3789,9.3857,6.2734,6.3512,6.3947,6.3977,6.447,6.5278,6.655,6.6924,6.7523,6.9409,6.9393,6.9423,7.056,7.0799,7.1248,7.2548,7.177,7.1248,7.1893,7.1427,7.1278,7.1893,7.2565,7.3223,7.3821,7.4497,7.4886,7.4886,7.4886,7.4886,7.4886,7.4886,7.4886,7.4886,7.4886,7.5215,7.5886,7.6467,7.7065,7.7724,7.846,7.9148,7.9818,8.0476,8.1093,8.162,8.1003,8.0704,8.0614,7.9967,7.9339,7.8849,7.9489,7.9728,7.9638,7.9028,7.8807,7.8807,7.8807,7.9208,7.9728,7.9728,8.0614,8.168,8.171,8.2619,8.3647,8.3647,8.4066,8.4425,8.3797,8.4126,8.5076,8.6878,8.7352,8.8086,9.0591,9.1122,9.1331,9.2122,9.2268,9.2811,9.4532,9.4964,9.5653,9.7397,9.7197,9.7037,9.7698,9.6026,9.5011,9.5635,9.5127,9.4706,9.4706,9.4639,9.4315,9.3654,9.3586,9.3586,9.3586,9.3586,9.3586,9.3586,9.3586,9.3586,9.3586,9.3586,9.3586,9.362,9.4315,9.4605,6.2854,6.3542,6.4186,6.5054,6.5742,6.637,6.6879,6.7972,6.896,6.9319,7.0141,7.1068,7.1996,7.1787,7.1697,7.2206,7.1846,7.1457,7.1308,7.1427,7.1623,7.1863,7.2864,7.3612,7.3881,7.4497,7.4886,7.4886,7.4886,7.4886,7.4886,7.4886,7.4886,7.4886,7.5305,7.5826,7.6467,7.7095,7.7963,7.904,7.9716,8.0195,8.0464,8.156,8.1949,8.18,8.153,8.1183,8.0764,8.0087,7.9638,7.9417,7.9238,7.9429,7.9728,7.9058,7.8807,7.8867,7.9297,7.9848,8.0494,8.0913,8.168,8.2488,8.2858,8.3617,8.4335,8.4335,8.5103,8.5671,8.4604,8.5686,8.7237,8.797,8.9418,9.1164,9.3296,9.3767,9.4184,9.5622,9.5884,9.6095,9.6819,9.693,9.7169,9.7895,9.7766,9.7529,9.7341,9.6988,9.6514,9.5872,9.5161,9.489,9.5364,9.4958,9.4586,9.4315,9.3857,9.3586,9.3586,9.3586,9.3586,9.3586,9.3586,9.3586,9.3586,9.3586,9.3586,9.362,9.389,9.4248,6.3213,6.4141,6.5114,6.5817,6.6969,6.7882,6.7687,6.887,6.9917,6.9662,7.0979,7.2355,7.2834,7.2535,7.2222,7.2222,7.1863,7.1427,7.0949,7.1474,7.1983,7.2176,7.3193,7.3971,7.4197,7.4616,7.4886,7.4886,7.4886,7.4886,7.4886,7.4886,7.4886,7.4886,7.5557,7.6198,7.6779,7.7454,7.8471,7.9818,8.0494,8.0913,8.1153,8.2297,8.2567,8.2099,8.2099,8.174,8.1063,8.0405,8.0117,8.0027,7.9387,7.9656,8.0315,7.9208,7.9058,7.9477,7.9698,8.0524,8.153,8.1949,8.2847,8.3745,8.3946,8.4634,8.5282,8.5073,8.5821,8.6499,8.5581,8.7067,8.8985,8.958,9.1549,9.38,9.5671,9.6078,9.6466,9.7737,9.7987,9.7987,9.7987,9.7987,9.7987,9.7987,9.7987,9.7834,9.7308,9.7461,9.7258,9.6259,9.5296,9.4992,9.5736,9.5127,9.4706,9.4706,9.4214,9.3857,9.362,9.3586,9.3721,9.3943,9.3958,9.406,9.4296,9.4296,9.4296,9.4296,9.4533,9.4905,6.3842,6.5443,6.6819,6.6176,6.8016,6.9828,6.9183,6.9558,7.0187,7.0799,7.195,7.2877,7.2907,7.2877,7.2877,7.2877,7.177,7.0889,7.0889,7.1487,7.2162,7.2817,7.3492,7.4151,7.4826,7.4886,7.4886,7.4886,7.4886,7.4886,7.4886,7.4886,7.4886,7.4916,7.5557,7.6198,7.6779,7.7484,7.8471,7.9818,8.0494,8.1153,8.183,8.2488,8.2806,8.2806,8.2806,8.2417,8.177,8.1093,8.0823,8.0734,8.0057,8.0644,8.156,7.9555,7.9656,8.0704,8.0057,8.1123,8.2806,8.2806,8.4134,8.5581,8.4923,8.5641,8.6559,8.5881,8.62,8.6708,8.6708,8.8122,9.0022,9.1935,9.3851,9.5736,9.7612,9.7987,9.7987,9.7987,9.7987,9.7987,9.7987,9.7987,9.7987,9.7987,9.7987,9.7987,9.7987,9.7375,9.6902,9.6902,9.5567,9.4992,9.5736,9.5127,9.4706,9.4706,9.4706,9.4383,9.3654,9.362,9.3943,9.4673,9.4706,9.506,9.5804,9.5804,9.5804,9.5804,9.6563,9.6902,6.3842,6.5114,6.649,6.7224,6.872,7.0067,7.029,7.0875,7.1534,7.2159,7.186,7.177,7.2727,7.2146,7.1667,7.2116,7.1457,7.0889,7.0889,7.1876,7.2684,7.2877,7.3911,7.4676,7.4886,7.4886,7.4886,7.4886,7.4886,7.4886,7.4886,7.4886,7.5125,7.5587,7.6198,7.6856,7.7484,7.8651,7.9638,8.0524,8.1183,8.162,8.183,8.2488,8.2806,8.2806,8.2806,8.2687,8.2447,8.177,8.15,8.1441,8.0764,8.1033,8.168,8.0584,8.0464,8.0913,8.165,8.2559,8.3587,8.4534,8.5242,8.5731,8.6,8.605,8.605,8.6319,8.6559,8.6708,8.6708,8.911,9.1667,9.2269,9.4846,9.7328,9.7895,9.7987,9.7987,9.7987,9.7987,9.7987,9.7987,9.7987,9.7987,9.7987,9.7987,9.7987,9.7987,9.7375,9.6902,9.6902,9.5567,9.4992,9.5736,9.5601,9.5466,9.5466,9.5939,9.5669,9.4417,9.4383,9.4485,9.4706,9.4706,9.506,9.5804,9.5804,9.5804,9.5804,9.6007,9.6394,6.3887,6.5173,6.658,6.7403,6.86,6.9812,7.0709,7.1218,7.1697,7.2355,7.1846,7.1547,7.2355,7.1846,7.1444,7.1833,7.1338,7.0979,7.1248,7.2219,7.2997,7.3283,7.4257,7.4886,7.4886,7.4886,7.4886,7.4886,7.4886,7.4886,7.4886,7.4886,7.5215,7.5886,7.6497,7.7125,7.7801,7.913,8.0147,8.0823,8.1471,8.1949,8.2189,8.2627,8.2806,8.2806,8.2806,8.2657,8.2387,8.2249,8.2039,8.177,8.1351,8.162,8.2069,8.1153,8.1123,8.171,8.2537,8.3386,8.4275,8.5342,8.59,8.617,8.6589,8.6409,8.62,8.6589,8.6708,8.6708,8.6708,8.9531,9.241,9.241,9.5277,9.7987,9.7987,9.7987,9.7987,9.7987,9.7987,9.7987,9.7987,9.7987,9.7987,9.7987,9.7987,9.7987,9.7987,9.7375,9.6902,9.6902,9.5838,9.533,9.577,9.5804,9.5939,9.6225,9.6665,9.6496,9.5601,9.5026,9.4842,9.5127,9.5161,9.5635,9.6683,9.6683,9.6683,9.6683,9.6683,9.692,6.3977,6.5413,6.6954,6.7074,6.8136,6.9482,7.0649,7.0889,7.1098,7.1773,7.1863,7.1803,7.1803,7.1803,7.1803,7.1803,7.1308,7.1128,7.1803,7.2475,7.3146,7.3821,7.4497,7.4886,7.4886,7.4886,7.4886,7.4886,7.4886,7.4886,7.4886,7.4946,7.5305,7.5976,7.6587,7.7245,7.7981,7.9249,8.0207,8.0883,8.159,8.2189,8.2806,8.2806,8.2806,8.2806,8.2806,8.2447,8.1949,8.2567,8.2447,8.189,8.189,8.2249,8.2657,8.1422,8.174,8.2806,8.2926,8.3745,8.4814,8.5551,8.62,8.6708,8.6708,8.6708,8.6708,8.6708,8.6708,8.6708,8.6708,8.9531,9.241,9.241,9.5277,9.7987,9.7987,9.7987,9.7987,9.7987,9.7987,9.7987,9.7987,9.7987,9.7987,9.7987,9.7987,9.7987,9.7987,9.7394,9.6969,9.6902,9.6293,9.5872,9.5804,9.5838,9.6191,9.6868,9.6969,9.6969,9.6902,9.5601,9.5229,9.5872,9.592,9.6582,9.7987,9.7987,9.7987,9.7987,9.7987,9.7987,6.3857,6.5084,6.646,6.7523,6.9139,7.056,7.0829,7.0889,7.1098,7.1773,7.1487,7.1128,7.1128,7.1128,7.1128,7.1128,7.1009,7.1128,7.1803,7.2475,7.3146,7.3821,7.4497,7.4886,7.4886,7.4886,7.4886,7.4886,7.4886,7.4886,7.4886,7.5395,7.5976,7.6587,7.7245,7.8142,7.9369,8.0177,8.0913,8.159,8.2249,8.2657,8.2806,8.2806,8.2806,8.2806,8.2806,8.2717,8.2597,8.2747,8.2717,8.2597,8.2597,8.2687,8.2776,8.2477,8.2567,8.2956,8.3936,8.4474,8.4904,8.611,8.6589,8.6708,8.6708,8.6708,8.6708,8.6708,8.6708,8.6708,8.6708,8.9531,9.241,9.241,9.5277,9.7987,9.7987,9.7987,9.7987,9.7987,9.7987,9.7987,9.7987,9.7987,9.7987,9.7987,9.7987,9.7987,9.7987,9.7867,9.7529,9.6969,9.6766,9.6428,9.5838,9.6326,9.6732,9.6868,9.7428,9.7495,9.6935,9.6597,9.6496,9.6665,9.6665,9.7105,9.7987,9.7987,9.7987,9.7987,9.7987,9.7987,6.3647,6.4515,6.5503,6.7493,6.9468,7.0829,7.053,7.0679,7.1009,7.1338,7.1128,7.0889,7.0889,7.0889,7.0889,7.0889,7.1158,7.1607,7.2265,7.2954,7.3642,7.4317,7.4676,7.4886,7.4886,7.4886,7.4886,7.4886,7.4886,7.4886,7.4886,7.5527,7.6168,7.6779,7.7454,7.8442,7.9788,8.0464,8.1123,8.18,8.2477,8.2806,8.2806,8.2806,8.2806,8.2806,8.2806,8.2806,8.2806,8.2806,8.2806,8.2806,8.2806,8.2806,8.2806,8.2806,8.2806,8.2956,8.3906,8.4425,8.4863,8.59,8.6439,8.6708,8.6708,8.6708,8.6708,8.6708,8.6708,8.6708,8.6708,8.9531,9.241,9.241,9.5277,9.7987,9.7987,9.7987,9.7987,9.7987,9.7987,9.7987,9.7987,9.7987,9.7987,9.7987,9.7987,9.7987,9.7987,9.7987,9.7732,9.6969,9.7206,9.7138,9.6394,9.6988,9.7428,9.7428,9.78,9.7834,9.7428,9.7428,9.7274,9.6902,9.6902,9.7274,9.7987,9.7987,9.7987,9.7987,9.7987,9.7987,6.3498,6.4246,6.5114,6.7553,6.9468,7.0649,7.0247,7.053,7.0889,7.0889,7.0889,7.0889,7.0889,7.0889,7.0889,7.0889,7.1457,7.2116,7.2817,7.3492,7.4168,7.4826,7.4886,7.4886,7.4886,7.4886,7.4886,7.4886,7.4886,7.4946,7.5065,7.5707,7.6347,7.6946,7.7724,7.8711,7.9967,8.0644,8.1302,8.1979,8.2537,8.2806,8.2806,8.2806,8.2806,8.2806,8.2806,8.2806,8.2806,8.2806,8.2806,8.2806,8.2806,8.2806,8.2806,8.2806,8.2806,8.2896,8.3497,8.4156,8.4814,8.5492,8.617,8.6708,8.6708,8.6708,8.6708,8.6708,8.6708,8.6708,8.6708,8.9531,9.241,9.241,9.5277,9.7987,9.7987,9.7987,9.7987,9.7987,9.7987,9.7987,9.7987,9.7987,9.7987,9.7987,9.7987,9.7987,9.7987,9.7987,9.7766,9.7172,9.7631,9.7766,9.7138,9.7664,9.7987,9.7987,9.7987,9.7987,9.7987,9.7987,9.7698,9.7105,9.7105,9.7409,9.7987,9.7987,9.7987,9.7987,9.7987,9.7987,6.3617,6.5263,6.6954,6.8495,6.9498,7.0247,7.0679,7.0829,7.0889,7.0889,7.0889,7.0889,7.0889,7.0889,7.0889,7.0889,7.1457,7.2116,7.2817,7.3492,7.4168,7.4826,7.4886,7.4886,7.4886,7.4886,7.4886,7.4886,7.4886,7.5155,7.5736,7.6347,7.6976,7.7634,7.889,7.9907,8.0674,8.1332,8.2009,8.2657,8.2747,8.2806,8.2806,8.2806,8.2806,8.2806,8.2806,8.2806,8.2806,8.2806,8.2806,8.2806,8.2806,8.2806,8.2806,8.2806,8.2806,8.2896,8.3497,8.4156,8.4814,8.5492,8.617,8.6708,8.6708,8.6708,8.6708,8.6708,8.6708,8.6708,8.6708,8.9531,9.241,9.241,9.5277,9.7987,9.7987,9.7987,9.7987,9.7987,9.7987,9.7987,9.7987,9.7987,9.7987,9.7987,9.7987,9.7987,9.7987,9.7987,9.7953,9.7867,9.7935,9.7969,9.7867,9.7935,9.7987,9.7987,9.7987,9.7987,9.7987,9.7987,9.7953,9.7867,9.7867,9.7901,9.7987,9.7987,9.7987,9.7987,9.7987,9.7987,6.3438,6.5203,6.6849,6.8585,6.9498,7.0157,7.0769,7.0889,7.0889,7.0889,7.0889,7.0889,7.0889,7.0889,7.1009,7.1398,7.2026,7.2684,7.3373,7.4031,7.4557,7.4856,7.4886,7.4886,7.4886,7.4886,7.4886,7.4886,7.4886,7.5185,7.5856,7.6467,7.7125,7.7801,7.91,8.0117,8.0794,8.1471,8.2129,8.2806,8.2806,8.2806,8.2806,8.2806,8.2806,8.2806,8.2806,8.2806,8.2806,8.2806,8.2806,8.2806,8.2806,8.2806,8.2806,8.2806,8.2806,8.2836,8.3117,8.3876,8.4754,8.5023,8.5851,8.6708,8.6708,8.6708,8.6708,8.6708,8.6708,8.6955,8.7987,9.0318,9.2674,9.3732,9.603,9.7987,9.7987,9.7987,9.7987,9.7987,9.7987,9.7987,9.7987,9.7987,9.7987,9.7987,9.7987,9.7987,9.7987,9.7987,9.7987,9.7987,9.7987,9.7987,9.7987,9.7987,9.7987,9.7987,9.7987,9.7987,9.7987,9.7987,9.7987,9.7987,9.7987,9.7987,9.7987,9.7987,9.7987,9.7987,9.7987,9.7987,6.3228,6.4755,6.6146,6.7837,6.887,6.9708,7.05,7.0799,7.0889,7.0889,7.0889,7.0889,7.0889,7.0889,7.1128,7.1803,7.2475,7.3116,7.3791,7.4467,7.4886,7.4886,7.4886,7.4886,7.4886,7.4886,7.4886,7.4886,7.4886,7.5275,7.6078,7.6557,7.7185,7.8041,7.9339,8.0296,8.0794,8.165,8.2327,8.2806,8.2806,8.2806,8.2806,8.2806,8.2806,8.2806,8.2806,8.2806,8.2806,8.2806,8.2806,8.2806,8.2806,8.2806,8.2806,8.2806,8.2806,8.2806,8.2806,8.3536,8.4485,8.4634,8.5492,8.6469,8.6648,8.6708,8.6708,8.6708,8.6708,8.7142,8.9004,9.0927,9.2852,9.4746,9.661,9.7987,9.7987,9.7987,9.7987,9.7987,9.7987,9.7987,9.7987,9.7987,9.7987,9.7987,9.7987,9.7987,9.7987,9.7987,9.7987,9.7987,9.7987,9.7987,9.7987,9.7987,9.7987,9.7987,9.7987,9.7987,9.7987,9.7987,9.7987,9.7987,9.7987,9.7987,9.7987,9.7987,9.7987,9.7987,9.7987,9.7987,6.3108,6.4066,6.5233,6.5966,6.7134,6.8466,6.9738,7.0486,7.0889,7.0889,7.0889,7.0889,7.0889,7.0889,7.1128,7.1803,7.2475,7.3116,7.3791,7.4467,7.4886,7.4886,7.4886,7.4886,7.4886,7.4886,7.4886,7.4886,7.4886,7.5437,7.6706,7.6779,7.7394,7.8699,8.0045,8.0764,8.0794,8.2099,8.2776,8.2806,8.2806,8.2806,8.2806,8.2806,8.2806,8.2806,8.2806,8.2806,8.2806,8.2806,8.2806,8.2806,8.2806,8.2806,8.2806,8.2806,8.2806,8.2806,8.2806,8.3236,8.3867,8.4485,8.5192,8.5851,8.6499,8.6708,8.6708,8.6708,8.6708,8.7142,8.9004,9.0927,9.2852,9.4746,9.661,9.7987,9.7987,9.7987,9.7987,9.7987,9.7987,9.7987,9.7987,9.7987,9.7987,9.7987,9.7987,9.7987,9.7987,9.7987,9.7987,9.7987,9.7987,9.7987,9.7987,9.7987,9.7987,9.7987,9.7987,9.7987,9.7987,9.7987,9.7987,9.7987,9.7987,9.7987,9.7987,9.7987,9.7987,9.7987,9.7987,9.7987,6.2868,6.3722,6.4844,6.6805,6.7643,6.8451,7.0171,7.044,7.0426,7.0829,7.0889,7.0889,7.0889,7.0889,7.1248,7.2355,7.2727,7.3266,7.4377,7.4736,7.4886,7.4886,7.4886,7.4886,7.4886,7.4886,7.4886,7.4886,7.5305,7.5916,7.6749,7.7215,7.8053,7.9417,8.0345,8.1212,8.2069,8.2567,8.2806,8.2806,8.2806,8.2806,8.2806,8.2806,8.2806,8.2806,8.2806,8.2806,8.2806,8.2806,8.2806,8.2806,8.2806,8.2806,8.2806,8.2806,8.2806,8.2806,8.2806,8.3187,8.3807,8.4485,8.5162,8.5821,8.6499,8.6708,8.6708,8.6708,8.7551,8.8636,8.9343,9.1832,9.4679,9.653,9.75,9.7987,9.7987,9.7987,9.7987,9.7987,9.7987,9.7987,9.7987,9.7987,9.7987,9.7987,9.7987,9.7987,9.7987,9.7987,9.7987,9.7987,9.7987,9.7987,9.7987,9.7987,9.7987,9.7987,9.7987,9.7987,9.7987,9.7987,9.7987,9.7987,9.7987,9.7987,9.7987,9.7987,9.7987,9.7987,9.7987,9.7987,6.2241,6.3063,6.4171,6.6146,6.7164,6.8122,6.9871,7.029,7.0486,7.1098,7.1248,7.1248,7.1248,7.1248,7.1607,7.2727,7.2907,7.3373,7.4706,7.4886,7.4886,7.4886,7.4886,7.4886,7.4886,7.4886,7.4886,7.4886,7.5527,7.6168,7.6766,7.7424,7.8519,8.0087,8.0794,8.168,8.2776,8.2806,8.2806,8.2806,8.2806,8.2806,8.2806,8.2806,8.2806,8.2806,8.2806,8.2806,8.2806,8.2806,8.2806,8.2806,8.2806,8.2806,8.2806,8.2806,8.2806,8.2806,8.2806,8.3187,8.3807,8.4485,8.5162,8.5821,8.6499,8.6708,8.6708,8.6708,8.759,8.8864,9.0151,9.3304,9.645,9.7706,9.7987,9.7987,9.7987,9.7987,9.7987,9.7987,9.7987,9.7987,9.7987,9.7987,9.7987,9.7987,9.7987,9.7987,9.7987,9.7987,9.7987,9.7987,9.7987,9.7987,9.7987,9.7987,9.7987,9.7987,9.7987,9.7987,9.7987,9.7987,9.7987,9.7987,9.7987,9.7987,9.7987,9.7987,9.7987,9.7987,9.7987,9.7987,0.0,0.0,0.0,6.3887,6.5503,6.7343,6.8704,6.9961,7.1038,7.1743,7.1863,7.1863,7.1863,7.1863,7.2102,7.2757,7.2877,7.3343,7.4676,7.4856,7.4886,7.4886,7.4886,7.4886,7.4886,7.4886,7.4886,7.4886,7.5527,7.6168,7.6766,7.7484,7.8789,8.0734,8.1471,8.2129,8.2776,8.2806,8.2806,8.2806,8.2806,8.2806,8.2806,8.2806,8.2806,8.2806,8.2806,8.2806,8.2806,8.2806,8.2806,8.2806,8.2806,8.2806,8.2806,8.2806,8.2806,8.2806,8.2806,8.3187,8.3807,8.4485,8.5162,8.5821,8.6499,8.6708,8.6708,8.6708,8.6738,8.7649,9.1502,9.5194,9.7941,9.7987,9.7987,9.7987,9.7987,9.7987,9.7987,9.7987,9.7987,9.7987,9.7987,9.7987,9.7987,9.7987,9.7987,9.7987,9.7987,9.7987,9.7987,9.7987,9.7987,9.7987,9.7987,9.7987,9.7987,9.7987,9.7987,9.7987,9.7987,9.7987,9.7987,9.7987,9.7987,9.7987,9.7987,9.7987,9.7987,9.7987,9.7987,9.7987,6.1882,0.0,0.0,0.0,0.0,0.0,6.8585,6.9273,6.9842,7.0949,7.1188,7.1188,7.1188,7.1188,7.1398,7.2056,7.2176,7.2624,7.3988,7.4197,7.4377,7.4826,7.4886,7.4886,7.4886,7.4886,7.4886,0.0,7.5946,7.6617,7.6779,7.8801,8.0225,8.0794,8.1919,8.2627,8.2806,8.2806,8.2806,8.2806,8.2806,8.2806,8.2806,8.2806,8.2806,8.2806,8.2806,8.2806,8.2806,8.2806,8.2806,8.2806,8.2806,8.2806,8.2806,8.2806,8.2806,8.2806,8.2806,8.3187,8.3807,8.4485,8.5162,8.5821,8.6499,8.6708,8.6708,8.6708,8.7668,8.9594,9.3442,9.5194,9.6338,9.7675,9.7987,9.7987,9.7987,9.7987,9.7987,9.7987,9.7987,9.7987,9.7987,9.7987,9.7987,9.7987,9.7987,9.7987,9.7987,9.7987,9.7987,9.7987,9.7987,9.7987,9.7987,9.7987,9.7987,9.7987,9.7987,9.7987,9.7987,9.7987,9.7987,9.7987,9.7987,9.7987,9.7987,9.7987,9.7987,9.7987,9.7987,9.7987,6.2195,6.2854,6.3782,6.4411,0.0,0.0,6.7837,6.8794,6.9692,7.0709,7.1128,7.1308,7.1308,7.1308,7.1457,7.1833,7.1893,7.2282,7.3343,7.3492,7.3732,7.4407,7.4497,7.4587,7.4856,7.4886,7.4886,7.4886,7.5856,7.6647,7.7185,7.9219,8.0524,8.0794,8.2099,8.2806,8.2806,8.2806,8.2806,8.2806,8.2806,8.2806,8.2806,8.2806,8.2806,8.2806,8.2806,8.2806,8.2806,8.2806,8.2806,8.2806,8.2806,8.2806,8.2806,8.2806,8.2806,8.2806,8.2806,8.3386,8.4186,8.4574,8.5342,8.62,8.6589,8.6708,8.6708,8.6708,8.8647,9.1416,9.4428,9.5769,9.6626,9.7737,9.7987,9.7987,9.7987,9.7987,9.7987,9.7987,9.7987,9.7987,9.7987,9.7987,9.7987,9.7987,9.7987,9.7987,9.7987,9.7987,9.7987,9.7987,9.7987,9.7987,9.7987,9.7987,9.7987,9.7987,9.7987,9.7987,9.7987,9.7987,9.7987,9.7987,9.7987,9.7987,9.7987,9.7987,9.7987,9.7987,9.7987,9.7987,6.2405,6.2644,6.3227,6.3782,6.4844,0.0,6.67,6.8331,6.9858,7.056,7.1218,7.1683,7.1683,7.1803,7.1893,7.1893,7.1893,7.2162,7.2907,7.2937,7.3146,7.3821,7.3821,7.4031,7.4706,7.4796,7.4826,7.4886,7.5527,7.6455,7.7741,7.907,8.0117,8.0764,8.2099,8.2806,8.2806,8.2806,8.2806,8.2806,8.2806,8.2806,8.2806,8.2806,8.2806,8.2806,8.2806,8.2806,8.2806,8.2806,8.2806,8.2806,8.2806,8.2806,8.2806,8.2806,8.2806,8.2806,8.2806,8.3626,8.4694,8.4694,8.5611,8.6708,8.6708,8.6708,8.6738,8.6955,8.9606,9.2849,9.4696,9.6578,9.7987,9.7987,9.7987,9.7987,9.7987,9.7987,9.7987,9.7987,9.7987,9.7987,9.7987,9.7987,9.7987,9.7987,9.7987,9.7987,9.7987,9.7987,9.7987,9.7987,9.7987,9.7987,9.7987,9.7987,9.7987,9.7987,9.7987,9.7987,9.7987,9.7987,9.7987,9.7987,9.7987,9.7987,9.7987,9.7987,9.7987,9.7987,9.7987,9.7987,0.0,0.0,0.0,0.0,0.0,0.0,6.5922,6.6909,6.7926,6.9123,6.9901,7.0366,7.0366,7.1204,7.1893,7.1893,7.1893,7.2312,7.3522,7.3253,7.3146,7.3821,7.3432,7.3373,7.4048,7.4108,7.4317,7.4856,7.5527,7.6455,7.7741,7.907,8.0117,8.0764,8.2099,8.2806,8.2806,8.2806,8.2806,8.2806,8.2806,8.2806,8.2806,8.2806,8.2806,8.2806,8.2806,8.2806,8.2806,8.2806,8.2806,8.2806,8.2806,8.2806,8.2806,8.2806,8.2806,8.2806,8.2806,8.3626,8.4694,8.4694,8.5611,8.6708,8.6708,8.6708,8.7004,8.8533,9.063,9.2849,9.4696,9.6578,9.7987,9.7987,9.7987,9.7987,9.7987,9.7987,9.7987,9.7987,9.7987,9.7987,9.7987,9.7987,9.7987,9.7987,9.7987,9.7987,9.7987,9.7987,9.7987,9.7987,9.7987,9.7987,9.7987,9.7987,9.7987,9.7987,9.7987,9.7987,9.7987,9.7987,9.7987,9.7987,9.7987,9.7987,9.7987,9.7987,9.7987,9.7987,9.7987,9.7987,0.0,0.0,0.0,6.3108,0.0,0.0,0.0,6.6041,6.7194,6.7867,6.8794,6.9618,6.9947,7.0516,7.1174,7.1803,7.1893,7.2372,7.3702,7.3043,7.2774,7.3762,7.3612,7.3672,7.4347,7.4407,7.4527,7.4856,7.5527,7.6288,7.7245,7.889,8.0117,8.0764,8.2099,8.2806,8.2806,8.2806,8.2806,8.2806,8.2806,8.2806,8.2806,8.2806,8.2806,8.2806,8.2806,8.2806,8.2806,8.2806,8.2806,8.2806,8.2806,8.2806,8.2806,8.2806,8.2806,8.2806,8.2806,8.3626,8.4694,8.4694,8.5611,8.6708,8.6708,8.6708,8.7269,9.0133,9.1631,9.3059,9.5884,9.7312,9.7987,9.7987,9.7987,9.7987,9.7987,9.7987,9.7987,9.7987,9.7987,9.7987,9.7987,9.7987,9.7987,9.7987,9.7987,9.7987,9.7987,9.7987,9.7987,9.7987,9.7987,9.7987,9.7987,9.7987,9.7987,9.7987,9.7987,9.7987,9.7987,9.7987,9.7987,9.7987,9.7987,9.7987,9.7987,9.7987,9.7987,9.7987,9.7987,9.7987,0.0,0.0,0.0,0.0,0.0,6.3871,0.0,0.0,0.0,6.658,6.7687,6.8764,6.9319,6.9738,7.0277,7.1204,7.1564,7.2102,7.3163,7.2505,7.2461,7.3911,7.3851,7.4001,7.4826,7.5125,7.5215,7.5095,7.5826,7.6467,7.6976,7.8771,8.0117,8.0764,8.2099,8.2806,8.2806,8.2806,8.2806,8.2806,8.2806,8.2806,8.2806,8.2806,8.2806,8.2806,8.2806,8.2806,8.2806,8.2806,8.2806,8.2806,8.2806,8.2806,8.2806,8.2806,8.2806,8.2806,8.2806,8.3626,8.4694,8.4694,8.5611,8.6708,8.6708,8.6955,8.7978,9.1448,9.2674,9.3732,9.7121,9.7987,9.7987,9.7987,9.7987,9.7987,9.7987,9.7987,9.7987,9.7987,9.7987,9.7987,9.7987,9.7987,9.7987,9.7987,9.7987,9.7987,9.7987,9.7987,9.7987,9.7987,9.7987,9.7987,9.7987,9.7987,9.7987,9.7987,9.7987,9.7987,9.7987,9.7987,9.7987,9.7987,9.7987,9.7987,9.7987,9.7987,9.7987,9.7987,9.7987,9.7987,0.0,0.0,0.0,0.0,6.3542,0.0,0.0,0.0,0.0,0.0,0.0,6.7254,6.7343,0.0,0.0,6.9393,7.029,7.1068,7.1218,7.1607,7.2611,7.4557,7.3732,7.3522,7.4766,7.5916,7.6347,7.5826,7.6904,7.7622,7.7664,7.904,8.0117,8.0764,8.2099,8.2806,8.2806,8.2806,8.2806,8.2806,8.2806,8.2806,8.2806,8.2806,8.2806,8.2806,8.2806,8.2806,8.2806,8.2806,8.2806,8.2806,8.2806,8.2806,8.2806,8.2806,8.2806,8.2806,8.2806,8.3626,8.4694,8.4694,8.5611,8.6708,8.6708,8.7851,8.9612,9.1775,9.3612,9.5343,9.7454,9.7987,9.7987,9.7987,9.7987,9.7987,9.7987,9.7987,9.7987,9.7987,9.7987,9.7987,9.7987,9.7987,9.7987,9.7987,9.7987,9.7987,9.7987,9.7987,9.7987,9.7987,9.7987,9.7987,9.7987,9.7987,9.7987,9.7987,9.7987,9.7987,9.7987,9.7987,9.7987,9.7987,9.7987,9.7987,9.7987,9.7987,9.7987,9.7987,9.7987,9.7987,0.0,0.0,0.0,0.0,0.0,0.0,0.0,0.0,6.465,0.0,0.0,0.0,0.0,0.0,0.0,0.0,6.9183,6.9931,7.032,7.0636,7.1683,7.4048,7.3821,0.0,7.4796,7.6066,7.6377,7.5395,7.7203,7.8041,7.7275,7.9219,8.0524,8.0794,8.2099,8.2806,8.2806,8.2806,8.2806,8.2806,8.2806,8.2806,8.2806,8.2806,8.2806,8.2806,8.2806,8.2806,8.2806,8.2806,8.2806,8.2806,8.2806,8.2806,8.2806,8.2806,8.2806,8.2866,8.3187,8.3936,8.4833,8.5611,8.6229,8.6708,8.6708,8.8006,8.991,9.1846,9.3766,9.5638,9.75,9.7987,9.7987,9.7987,9.7987,9.7987,9.7987,9.7987,9.7987,9.7987,9.7987,9.7987,9.7987,9.7987,9.7987,9.7987,9.7987,9.7987,9.7987,9.7987,9.7987,9.7987,9.7987,9.7987,9.7987,9.7987,9.7987,9.7987,9.7987,9.7987,9.7987,9.7987,9.7987,9.7987,9.7987,9.7987,9.7987,9.7987,9.7987,9.7987,9.7987,9.7987,6.887,0.0,0.0,0.0,0.0,0.0,0.0,0.0,0.0,0.0,0.0,0.0,0.0,0.0,0.0,0.0,0.0,6.8495,6.8615,6.9109,7.0486,7.3283,7.3941,7.4377,0.0,7.6215,7.6617,7.5497,7.7682,7.8489,7.7155,7.9429,8.0794,8.0794,8.2099,8.2806,8.2806,8.2806,8.2806,8.2806,8.2806,8.2806,8.2806,8.2806,8.2806,8.2806,8.2806,8.2806,8.2806,8.2806,8.2806,8.2806,8.2806,8.2806,8.2806,8.2806,8.2896,8.3117,8.3557,8.4275,8.5162,8.6319,8.6708,8.6708,8.6708,8.8006,8.991,9.1846,9.3766,9.5638,9.75,9.7987,9.7987,9.7987,9.7987,9.7987,9.7987,9.7987,9.7987,9.7987,9.7987,9.7987,9.7987,9.7987,9.7987,9.7987,9.7987,9.7987,9.7987,9.7987,9.7987,9.7987,9.7987,9.7987,9.7987,9.7987,9.7987,9.7987,9.78,9.78,9.8003,9.7987,9.7987,9.7987,9.7987,9.7987,9.7987,9.7987,9.7987,9.7987,9.7987,9.7987,0.0,0.0,0.0,6.8734,0.0,0.0,0.0,0.0,6.5787,0.0,0.0,0.0,0.0,0.0,0.0,0.0,0.0,0.0,0.0,6.6819,6.9289,7.2548,7.4078,7.4886,0.0,7.6634,7.7484,0.0,7.8621,7.9189,7.7843,7.9716,8.0794,8.0794,8.2099,8.2806,8.2806,8.2806,8.2806,8.2806,8.2806,8.2806,8.2806,8.2806,8.2806,8.2806,8.2806,8.2806,8.2806,8.2806,8.2806,8.2806,8.2806,8.2806,8.2806,8.2806,8.3158,8.3658,8.3688,8.4545,8.5791,8.6469,8.6708,8.6708,8.6708,8.8006,8.991,9.1846,9.3766,9.5638,9.75,9.7987,9.7987,9.7987,9.7987,9.7987,9.7987,9.7987,9.7987,9.7987,9.7987,9.7987,9.7987,9.7987,9.7987,9.7987,9.7987,9.7987,9.7987,9.7987,9.7987,9.7987,9.7987,9.7987,9.7987,9.7987,9.7987,9.7987,9.7341,9.7274,9.7969,9.7987,9.7987,9.7987,9.7987,9.7987,9.7987,9.7987,9.7987,9.7987,9.7987,9.7987,0.0,0.0,7.0516,7.032,0.0,0.0,0.0,0.0,0.0,0.0,0.0,0.0,0.0,0.0,0.0,0.0,0.0,0.0,0.0,6.634,6.7762,6.8854,7.1324,7.327,7.4168,7.5988,0.0,7.5617,7.7771,7.8531,7.7215,7.8639,7.9866,8.0764,8.168,8.2357,8.2806,8.2806,8.2806,8.2806,8.2806,8.2806,8.2806,8.2806,8.2806,8.2806,8.2806,8.2806,8.2836,8.3217,8.3397,8.3457,8.3876,8.4055,8.3995,8.3576,8.3527,8.3827,8.4724,8.5611,8.6409,8.6619,8.6708,8.6936,8.8199,8.9892,9.181,9.3716,9.5606,9.7184,9.7848,9.7987,9.7987,9.7987,9.7987,9.7987,9.7987,9.7987,9.7987,9.7987,9.7987,9.7987,9.7987,9.7987,9.7987,9.7987,9.7987,9.7987,9.7987,9.7987,9.7987,9.7987,9.7987,9.7987,9.7987,9.7563,9.7461,9.7969,9.7308,9.724,9.7969,9.7987,9.7987,9.7987,9.7987,9.7987,9.7987,9.7987,9.7987,9.7987,9.7987,9.7987,7.3313,7.2774,0.0,7.2026,7.1607,0.0,7.0693,0.0,0.0,0.0,0.0,0.0,0.0,0.0,0.0,0.0,0.0,0.0,0.0,6.5877,6.655,6.7284,6.9828,7.2056,7.3402,7.5108,7.5976,7.5587,7.7143,7.7831,7.7185,7.819,7.9316,8.0405,8.1351,8.2009,8.2447,8.2687,8.2806,8.2806,8.2806,8.2806,8.2806,8.2806,8.2806,8.2806,8.2806,8.2806,8.2866,8.3438,8.3688,8.3748,8.4425,8.4694,8.4634,8.4215,8.4215,8.4574,8.5671,8.6349,8.6708,8.6708,8.6708,8.7044,8.894,9.036,9.19,9.4478,9.6062,9.7153,9.7848,9.7987,9.7987,9.7987,9.7987,9.7987,9.7987,9.7987,9.7987,9.7987,9.7987,9.7987,9.7987,9.7987,9.7987,9.7987,9.7987,9.7987,9.7987,9.7987,9.7987,9.7987,9.7987,9.7987,9.7987,9.7089,9.6935,9.7935,9.7056,9.6969,9.7969,9.7987,9.7867,9.7597,9.7867,9.7867,9.7597,9.7867,9.7987,9.7987,9.7987,9.7987]}]]